     2.10           OBSERVATION DATA    G (GPS)             RINEX VERSION / TYPE
teqc 2000Jul20 Karen Wendt 20040525 20:09:47UTC             PGM / RUN BY / DATE
Linux 2.0.36|Pentium II|gcc -static|Linux|486/DX+           COMMENT
teqc 2000Jul20 Karen Wendt 20040525 20:09:46UTC             COMMENT
BIT 2 OF LLI FLAGS DATA COLLECTED UNDER A/S CONDITION       COMMENT
v209 V209_1935_USC&GS                                       MARKER NAME
JLS USGS                                                    OBSERVER / AGENCY
ZE1200331018 ASHTECH UZ-12 ZE00                             REC # / TYPE / VERS
CR14341 ASH700936D_M NONE                                   ANT # / TYPE
 -2445229.0000 -4314207.0000  4000660.0000                  APPROX POSITION XYZ
        0.5279        0.0000        0.0000                  ANTENNA: DELTA H/E/N
     1     1                                                WAVELENGTH FACT L1/2
     5    C1    L1    L2    P1    P2                        # / TYPES OF OBSERV
    30.0000                                                 INTERVAL
                                                            COMMENT
National Earthquake Hazard Reduction Program                COMMENT
Crustal Strain Project                                      COMMENT
345 Middlefield Road, MS/977                                COMMENT
U.S. Geological Survey, Menlo Park, California 94025        COMMENT
Contact: kwendt@usgs.gov (Ph: 650-329-4866)                 COMMENT
Antenna height is vertical to base of antenna               COMMENT
                                                            COMMENT
SNR is mapped to RINEX snr flag value [1-9]                 COMMENT
L1: 1 -> 1; 90 -> 5; 210 -> 9                               COMMENT
L2: 1 -> 1; 150 -> 5; 250 -> 9                              COMMENT
  2004     5    21     0     0    0.0000000     GPS         TIME OF FIRST OBS
                                                            END OF HEADER
 04  5 21  0  0  0.0000000  0  6G14G25G20G 1G11G30
  22758220.022   -10378675.44643  -8080494.46842  22758222.228    22758219.681
  20637580.777   -20215729.52844 -15602095.31042  20637582.871    20637580.154
  22692394.436    -7033490.48343  -4223513.64042  22692396.374    22692395.197
  23456821.003    -1435985.13743  -1105785.87142  23456823.522    23456824.819
  21470691.971   -13514971.50744 -10483594.20942  21470694.230    21470691.681
  24123236.015    -2994268.17243  -2276407.88042  24123238.591    24123239.087
 04  5 21  0  0 30.0000000  0  6G14G25G20G 1G11G30
  22772880.637   -10301632.90843  -8020461.35742  22772882.964    22772880.417
  20637764.286   -20214764.81644 -15601343.57142  20637766.397    20637763.715
  22676140.005    -7118907.99143  -4290072.67042  22676141.905    22676140.698
  23442599.910    -1510716.90843  -1164018.26142  23442602.291    23442603.583
  21474093.713   -13497094.96544 -10469664.44042  21474095.998    21474093.390
  24121561.743    -3003067.13743  -2283264.22542  24121564.077    24121564.823
 04  5 21  0  1  0.0000000  0  6G14G25G20G 1G11G30
  22787555.719   -10224514.37343  -7960369.02642  22787558.081    22787555.741
  20638049.077   -20213268.30044 -15600177.44242  20638051.162    20638048.497
  22659907.718    -7204209.13343  -4356541.02342  22659909.575    22659908.210
  23428410.942    -1585279.18943  -1222118.59942  23428413.407    23428414.727
  21477598.751   -13478676.04344 -10455312.05242  21477601.060    21477598.361
  24119987.660    -3011339.24143  -2289709.96342  24119989.999    24119990.318
 04  5 21  0  1 30.0000000  0  6G14G25G20G 1G11G30
  22802244.976   -10147321.55643  -7900218.82042  22802247.302    22802245.165
  20638434.790   -20211241.06244 -15598597.76242  20638436.874    20638434.306
  22643697.856    -7289392.97743  -4422917.98242  22643699.734    22643698.159
  23414254.372    -1659672.52043  -1280087.27042  23414256.565    23414258.041
  21481206.616   -13459716.53544 -10440538.41842  21481208.912    21481206.320
  24118513.663    -3019084.05243  -2295744.88442  24118516.112    24118516.205
 04  5 21  0  2  0.0000000  0  6G14G25G20G 1G11G30
  22816948.783   -10070053.20143  -7840009.76142  22816950.972    22816948.897
  20638921.710   -20208681.96444 -15596603.64042  20638923.779    20638921.272
  22627510.975    -7374455.84643  -4489200.67642  22627512.886    22627511.278
  23400130.072    -1733894.55143  -1337922.46642  23400132.447    23400134.066
  21484917.565   -13440214.96343 -10425342.40242  21484919.903    21484917.326
  24117140.857    -3026298.60243  -2301366.55042  24117143.257    24117143.302
 04  5 21  0  2 30.0000000  0  6G14G25G20G 1G11G30
  22831665.731    -9992715.99843  -7779747.05442  22831667.884    22831665.649
  20639508.761   -20205596.93644 -15594199.71042  20639510.847    20639508.326
  22611346.283    -7459401.61543  -4555392.12442  22611348.255    22611346.618
  23386037.768    -1807950.70043  -1395628.42642  23386039.838    23386041.488
  21488730.499   -13420178.05744 -10409729.24542  21488732.805    21488730.165
  24115867.860    -3032987.41843  -2306578.61742  24115870.369    24115870.324
 04  5 21  0  3  0.0000000  0  6G14G25G20G 1G11G30
  22846396.537    -9915305.51743  -7719427.26842  22846398.738    22846396.401
  20640196.709   -20201981.51144 -15591382.48042  20640198.831    20640196.338
  22595205.250    -7544223.43743  -4621486.98842  22595207.180    22595205.459
  23371978.005    -1881835.67243  -1453201.03342  23371980.116    23371981.547
  21492646.204   -13399601.32144 -10393695.44142  21492648.520    21492645.845
  24114696.562    -3039144.30143  -2311376.18342  24114698.915    24114698.835
 04  5 21  0  3 30.0000000  0  6G14G25G20G 1G11G30
  22861141.444    -9837820.32743  -7659049.25142  22861143.562    22861141.363
  20640986.010   -20197833.99344 -15588150.63742  20640988.098    20640985.574
  22579088.422    -7628917.44443  -4687482.26142  22579090.393    22579088.620
  23357950.741    -1955546.97943  -1510638.26842  23357953.052    23357954.711
  21496664.805   -13378483.56144 -10377240.06642  21496667.108    21496664.439
  24113626.773    -3044765.98343  -2315756.68642  24113629.020    24113629.318
 04  5 21  0  4  0.0000000  0  6G14G25G20G 1G11G30
  22875898.476    -9760270.33543  -7598620.72142  22875900.681    22875898.664
  20641874.698   -20193163.91944 -15584511.60642  20641876.791    20641874.219
  22562994.644    -7713490.60343  -4753383.36242  22562996.565    22562994.703
  23343955.391    -2029093.39043  -1567947.01942  23343957.556    23343959.051
  21500784.490   -13356834.63544 -10360370.80242  21500786.794    21500784.158
  24112657.400    -3049860.38043  -2319726.33142  24112659.571    24112659.876
 04  5 21  0  4 30.0000000  0  6G14G25G20G 1G11G30
  22890669.008    -9682651.17043  -7538138.29142  22890671.167    22890669.216
  20642863.632   -20187966.67244 -15580461.78342  20642865.754    20642863.196
  22546925.114    -7797935.93243  -4819184.84642  22546926.957    22546925.270
  23329992.103    -2102469.41043  -1625123.01442  23329994.463    23329995.781
  21505006.151   -13334650.01544 -10343084.09742  21505008.457    21505005.775
  24111789.558    -3054421.03943  -2323280.08742  24111791.874    24111792.182
 04  5 21  0  5  0.0000000  0  6G14G25G20G 1G11G30
  22905453.300    -9604959.95843  -7477599.72442  22905455.453    22905453.479
  20643953.503   -20182239.53644 -15575999.06742  20643955.601    20643953.030
  22530880.946    -7882248.09443  -4884882.56642  22530882.766    22530881.235
  23316062.025    -2175671.32543  -1682163.34042  23316064.385    23316065.925
  21509330.143   -13311927.39444 -10325378.17242  21509332.445    21509329.703
  24111023.641    -3058443.96843  -2326414.85242  24111026.238    24111026.416
 04  5 21  0  5 30.0000000  0  6G14G25G20G 1G11G30
  22920249.521    -9527205.52043  -7417011.88442  22920251.741    22920249.773
  20645142.578   -20175990.98344 -15571130.04842  20645144.704    20645142.056
  22514860.938    -7966433.55143  -4950481.55542  22514862.764    22514861.246
  23302163.756    -2248706.93543  -1739074.07942  23302166.026    23302167.615
  21513754.876   -13288675.48244 -10307259.80942  21513757.175    21513754.445
  24110359.389    -3061935.98343  -2329135.86942  24110361.697    24110361.513
 04  5 21  0  6  0.0000000  0  6G14G25G20G 1G11G30
  22935058.805    -9449382.31243  -7356370.47742  22935061.006    22935059.153
  20646431.956   -20169215.15344 -15565850.17042  20646434.105    20646431.375
  22498866.533    -8050483.97943  -5015975.32942  22498868.425    22498866.844
  23288298.497    -2321569.43243  -1795849.91242  23288300.758    23288302.209
  21518281.228   -13264889.02543 -10288724.92942  21518283.548    21518280.887
  24109797.146    -3064889.54043  -2331437.32142  24109799.472    24109799.326
 04  5 21  0  6 30.0000000  0  6G14G25G20G 1G11G30
  22949880.109    -9371495.95443  -7295679.84542  22949882.306    22949880.367
  20647820.615   -20161917.69244 -15560163.82042  20647822.787    20647820.001
  22482897.314    -8134402.45643  -5081366.29442  22482899.228    22482897.480
  23274465.235    -2394263.58343  -1852494.59042  23274467.519    23274468.897
  21522908.223   -13240573.64543 -10269777.90542  21522910.520    21522907.904
  24109336.698    -3067308.76443  -2333322.42442  24109339.014    24109339.143
 04  5 21  0  7  0.0000000  0  6G14G25G20G 1G11G30
  22964713.896    -9293544.22643  -7234938.27342  22964716.054    22964714.002
  20649308.909   -20154096.48344 -15554069.35842  20649311.088    20649308.318
  22466954.157    -8218184.11043  -5146650.65842  22466956.111    22466954.262
  23260664.582    -2466786.30943  -1909005.69342  23260666.911    23260668.117
  21527636.353   -13215727.56744 -10250417.34942  21527638.644    21527636.062
  24108978.882    -3069189.94143  -2334788.27242  24108981.112    24108981.285
 04  5 21  0  7 30.0000000  0  6G14G25G20G 1G11G30
  22979559.894    -9215528.60343  -7174146.92942  22979562.113    22979559.842
  20650896.592   -20145753.07544 -15547567.98742  20650898.770    20650896.053
  22451037.206    -8301828.15843  -5211827.76342  22451039.183    22451037.272
  23246896.402    -2539138.29243  -1965383.72842  23246898.694    23246899.762
  21532465.014   -13190352.50444 -10230644.58642  21532467.327    21532464.774
  24108723.421    -3070532.94143  -2335834.75042  24108725.732    24108725.783
 04  5 21  0  8  0.0000000  0  6G14G25G20G 1G11G30
  22994418.011    -9137448.74443  -7113305.53642  22994420.306    22994418.058
  20652583.815   -20136886.75144 -15540659.14842  20652585.948    20652583.252
  22435147.077    -8385331.16843  -5276894.97542  22435149.018    22435147.184
  23233160.981    -2611317.91643  -2021627.45342  23233163.228    23233164.339
  21537394.451   -13164448.40344 -10210459.60742  21537396.785    21537394.199
  24108570.485    -3071335.65243  -2336460.24942  24108572.848    24108572.998
 04  5 21  0  8 30.0000000  0  6G14G25G20G 1G11G30
  23009287.589    -9059308.67943  -7052417.22342  23009289.870    23009287.761
  20654369.805   -20127501.34644 -15533345.83342  20654371.933    20654369.217
  22419283.476    -8468694.74443  -5341853.55142  22419285.426    22419283.661
  23219457.748    -2683328.31943  -2077739.28542  23219460.000    23219461.089
  21542423.728   -13138019.61644 -10189865.77642  21542426.042    21542423.421
  24108520.135    -3071600.67643  -2336666.73242  24108522.537    24108522.678
 04  5 21  0  9  0.0000000  0  6G14G25G20G 1G11G30
  23024168.923    -8981106.72043  -6991480.68542  23024171.143    23024169.231
  20656254.825   -20117595.44444 -15525626.94042  20656256.963    20656254.239
  22403447.223    -8551914.63543  -5406700.17142  22403449.161    22403447.344
  23205787.194    -2755166.78243  -2133717.15942  23205789.443    23205790.590
  21547553.124   -13111064.78944 -10168862.03642  21547555.438    21547552.793
  24108572.641    -3071324.55443  -2336451.56542  24108575.254    24108575.215
 04  5 21  0  9 30.0000000  0  6G14G25G20G 1G11G30
  23039061.317    -8902847.77643  -6930499.74142  23039063.426    23039061.480
  20658237.943   -20107174.26744 -15517506.53342  20658240.070    20658237.288
  22387637.847    -8634993.18843  -5471436.65542  22387639.778    22387637.990
  23192148.660    -2826837.36643  -2189564.23542  23192150.921    23192152.038
  21552781.620   -13083588.99644 -10147452.34242  21552783.921    21552781.288
  24108727.483    -3070510.85243  -2335817.50142  24108730.054    24108729.747
 04  5 21  0 10  0.0000000  0  6G14G25G20G 1G11G30
  23053965.540    -8824525.82243  -6869469.69642  23053967.784    23053965.642
  20660320.211   -20096231.62144 -15508979.78642  20660322.374    20660319.618
  22371857.113    -8717921.82443  -5536056.32142  22371858.988    22371857.206
  23178543.448    -2898333.13843  -2245275.07442  23178545.739    23178546.659
  21558110.271   -13055587.03044 -10125632.64842  21558112.520    21558109.816
  24108985.893    -3069152.15443  -2334758.76842  24108988.392    24108988.247
 04  5 21  0 10 30.0000000  0  6G14G25G20G 1G11G30
  23068880.846    -8746146.07343  -6808394.62742  23068883.050    23068880.824
  20662500.709   -20084772.91744 -15500050.91142  20662502.846    20662500.153
  22356104.353    -8800703.18143  -5600561.21542  22356106.216    22356104.509
  23164970.484    -2969658.43343  -2300853.07442  23164972.805    23164973.771
  21563537.897   -13027064.45944 -10103407.28842  21563540.136    21563537.580
  24109347.497    -3067252.29443  -2333278.32842  24109350.034    24109350.001
 04  5 21  0 11  0.0000000  0  6G14G25G20G 1G11G30
  23083807.084    -8667707.53043  -6747273.73142  23083809.399    23083807.353
  20664779.618   -20072797.01044 -15490719.02442  20664781.754    20664779.137
  22340380.276    -8883333.42443  -5664948.34842  22340382.178    22340380.601
  23151430.425    -3040811.19243  -2356296.63842  23151432.836    23151433.688
  21569064.782   -12998020.56244 -10080775.70242  21569067.010    21569064.556
  24109812.731    -3064808.55043  -2331374.06742  24109815.092    24109815.055
 04  5 21  0 11 30.0000000  0  6G14G25G20G 1G11G30
  23098743.898    -8589213.35343  -6686109.50442  23098746.252    23098744.380
  20667156.268   -20060307.79444 -15480987.15942  20667158.380    20667155.740
  22324684.714    -8965813.47343  -5729218.44942  22324686.641    22324685.168
  23137922.804    -3111794.13843  -2411607.92042  23137925.181    23137925.898
  21574690.170   -12968459.15144 -10057740.86242  21574692.403    21574689.885
  24110380.664    -3061823.14143  -2329047.76442  24110383.241    24110383.036
 04  5 21  0 12  0.0000000  0  6G14G25G20G 1G11G30
  23113691.911    -8510661.93243  -6624900.63642  23113694.151    23113692.209
  20669630.886   -20047303.25744 -15470853.74442  20669633.021    20669630.367
  22309018.529    -9048139.12943  -5793368.24342  22309020.491    22309019.117
  23124447.886    -3182604.49743  -2466784.69142  23124450.246    23124451.127
  21580414.332   -12938379.08444 -10034301.88042  21580416.576    21580413.896
  24111052.475    -3058293.03143  -2326297.03142  24111055.174    24111054.788
 04  5 21  0 12 30.0000000  0  6G14G25G20G 1G11G30
  23128650.144    -8432056.20243  -6563649.47042  23128652.356    23128650.364
  20672202.956   -20033786.78444 -15460321.41942  20672205.072    20672202.476
  22293381.708    -9130310.50643  -5857397.81642  22293383.662    22293382.465
  23111005.461    -3253244.28243  -2521828.53842  23111007.835    23111008.558
  21586236.462   -12907783.78344 -10010461.40242  21586238.713    21586235.975
  24111827.558    -3054219.51643  -2323122.82542  24111830.363    24111829.980
 04  5 21  0 13  0.0000000  0  6G14G25G20G 1G11G30
  23143618.809    -8353395.92443  -6502355.81042  23143620.997    23143618.866
  20674872.482   -20019758.42144 -15449390.21642  20674874.605    20674871.935
  22277774.785    -9212324.83043  -5921305.01942  22277776.726    22277775.570
  23097595.716    -3323712.51843  -2576738.69842  23097598.108    23097598.696
  21592156.543   -12876673.78744  -9986219.87542  21592158.827    21592155.969
  24112706.174    -3049601.36643  -2319524.27042  24112709.158    24112708.776
 04  5 21  0 13 30.0000000  0  6G14G25G20G 1G11G30
  23158597.734    -8274680.95543  -6441019.54342  23158599.998    23158597.822
  20677639.345   -20005218.36844 -15438060.29942  20677641.507    20677638.805
  22262198.375    -9294179.33943  -5985087.69442  22262200.254    22262199.064
  23084218.839    -3394008.21043  -2631514.43442  23084221.186    23084221.592
  21598174.433   -12845049.42644  -9961577.54242  21598176.738    21598173.888
  24113688.852    -3044437.19943  -2315500.23042  24113691.852    24113691.450
 04  5 21  0 14  0.0000000  0  6G14G25G20G 1G11G30
  23173586.708    -8195912.16943  -6379641.31842  23173589.046    23173587.046
  20680503.425   -19990167.58444 -15426332.41342  20680505.567    20680502.858
  22246652.692    -9375872.29843  -6048744.49242  22246654.593    22246653.291
  23070874.675    -3464131.31643  -2686155.68542  23070877.020    23070877.333
  21604289.972   -12812912.30544  -9936535.64042  21604292.288    21604289.401
  24114775.796    -3038726.44443  -2311050.24342  24114778.525    24114778.112
 04  5 21  0 14 30.0000000  0  6G14G25G20G 1G11G30
  23188585.872    -8117090.69043  -6318222.04342  23188588.199    23188586.343
  20683464.372   -19974607.61444 -15414207.74842  20683466.505    20683463.825
  22231138.101    -9457402.33043  -6112274.34342  22231139.943    22231138.470
  23057563.482    -3534082.13743  -2740662.71942  23057565.713    23057566.020
  21610502.703   -12780264.13244  -9911095.52642  21610505.043    21610502.145
  24115966.514    -3032469.41743  -2306174.61442  24115969.261    24115968.941
 04  5 21  0 15  0.0000000  0  6G14G25G20G 1G11G30
  23203594.873    -8038218.53943  -6256763.28242  23203597.110    23203595.334
  20686521.793   -19958540.79744 -15401688.14042  20686523.913    20686521.199
  22215654.443    -9538768.87943  -6175676.77942  22215656.342    22215654.886
  23044284.735    -3603861.99643  -2795036.54242  23044286.981    23044287.178
  21616812.137   -12747107.69944  -9885259.38642  21616814.474    21616811.624
  24117260.539    -3025666.73143  -2300873.83342  24117263.548    24117263.567
 04  5 21  0 15 30.0000000  0  6G14G25G20G 1G11G30
  23218613.543    -7959296.19943  -6195265.40742  23218615.717    23218613.802
  20689675.556   -19941967.69744 -15388774.02742  20689677.674    20689674.918
  22200202.327    -9619969.83943  -6238950.20442  22200204.248    22200202.726
  23031038.538    -3673470.55243  -2849276.87542  23031040.764    23031041.139
  21623218.135   -12713444.06244  -9859028.00042  21623220.453    21623217.672
  24118659.021    -3018317.81843  -2295147.37742  24118661.859    24118661.977
 04  5 21  0 16  0.0000000  0  6G14G25G20G 1G11G30
  23233641.668    -7880323.20743  -6133728.07242  23233643.855    23233641.833
  20692925.612   -19924888.40944 -15375465.48342  20692927.748    20692925.050
  22184782.517    -9701002.05443  -6302092.16642  22184784.426    22184782.583
  23017825.130    -3742906.59943  -2903382.76842  23017827.420    23017827.735
  21629720.549   -12679273.49944  -9832401.60942  21629722.901    21629720.111
  24120161.550    -3010421.11943  -2288994.11142  24120164.233    24120164.507
 04  5 21  0 16 30.0000000  0  6G14G25G20G 1G11G30
  23248679.513    -7801299.43543  -6072151.18542  23248681.759    23248679.501
  20696271.931   -19907303.18744 -15361762.70742  20696274.098    20696271.330
  22169395.193    -9781862.96043  -6365100.63342  22169397.124    22169395.064
  23004644.977    -3812169.09543  -2957353.44642  23004647.210    23004647.342
  21636319.302   -12644596.73644  -9805380.77142  21636321.657    21636318.888
  24121768.800    -3001975.47743  -2282413.09542  24121771.342    24121771.629
 04  5 21  0 17  0.0000000  0  6G14G25G20G 1G11G30
  23263726.070    -7722229.77743  -6010538.52542  23263728.359    23263726.057
  20699713.492   -19889217.65944 -15347670.07542  20699715.653    20699712.849
  22154039.931    -9862555.01543  -6427977.52542  22154041.898    22154039.740
  22991496.872    -3881262.53043  -3011192.36142  22991499.151    22991499.263
  21643013.296   -12609419.65643  -9777970.09542  21643015.626    21643012.923
  24123479.792    -2992984.97343  -2275407.49942  24123482.390    24123482.304
 04  5 21  0 17 30.0000000  0  6G14G25G20G 1G11G30
  23278781.804    -7643110.47343  -5948887.18142  23278784.176    23278782.312
  20703250.915   -19870628.42444 -15333184.94742  20703253.069    20703250.294
  22138717.925    -9943071.70143  -6490717.74742  22138719.889    22138717.828
  22978381.814    -3950182.17043  -3064895.86442  22978384.115    22978384.126
  21649803.060   -12573739.27543  -9750167.23842  21649805.348    21649802.750
  24125295.237    -2983444.62243  -2267973.44242  24125298.035    24125297.622
 04  5 21  0 18  0.0000000  0  6G14G25G20G 1G11G30
  23293846.193    -7563946.41743  -5887200.93942  23293848.487    23293846.948
  20706883.194   -19851540.54644 -15318311.26842  20706885.332    20706882.642
  22123429.143   -10023415.08943  -6553322.94242  22123431.012    22123429.045
  22965299.054    -4018932.08943  -3118467.12542  22965301.348    22965301.316
  21656687.580   -12537560.87143  -9721976.30142  21656689.853    21656687.295
  24127214.904    -2973358.45343  -2260114.03142  24127217.692    24127216.994
 04  5 21  0 18 30.0000000  0  6G14G25G20G 1G11G30
  23308920.315    -7484731.85443  -5825475.37442  23308922.439    23308920.956
  20710611.297   -19831949.01544 -15303045.12842  20710613.456    20710610.790
  22108174.956   -10103577.19343  -6615786.88942  22108176.758    22108174.749
  22952249.796    -4087505.96343  -3171901.18642  22952252.112    22952252.000
  21663667.718   -12500880.09944  -9693393.90742  21663670.016    21663667.425
  24129239.253    -2962719.79343  -2251824.16942  24129242.133    24129241.535
 04  5 21  0 19  0.0000000  0  6G14G25G20G 1G11G30
  23324003.215    -7405471.53243  -5763714.15642  23324005.309    23324003.701
  20714434.255   -19811859.33044 -15287390.82042  20714436.396    20714433.664
  22092954.664   -10183559.95843  -6678111.07942  22092956.512    22092954.563
  22939233.318    -4155907.71243  -3225201.15842  22939235.583    22939235.637
  21670742.433   -12463702.61944  -9664424.47542  21670744.698    21670742.059
  24131368.278    -2951532.50743  -2243106.81342  24131371.163    24131370.538
 04  5 21  0 19 30.0000000  0  6G14G25G20G 1G11G30
  23339094.330    -7326167.35243  -5701918.76542  23339096.463    23339094.781
  20718351.542   -19791273.73344 -15271350.09042  20718353.664    20718350.947
  22077768.763   -10263362.69643  -6740294.99742  22077770.606    22077768.579
  22926249.392    -4224138.32443  -3278367.76842  22926251.598    22926251.818
  21677911.111   -12426030.96844  -9635069.97642  21677913.407    21677910.816
  24133601.233    -2939797.47443  -2233962.65742  24133604.028    24133603.638
 04  5 21  0 20  0.0000000  0  6G14G25G20G 1G11G30
  23354193.778    -7246819.22143  -5640089.12342  23354195.938    23354194.322
  20722363.218   -19770192.52344 -15254923.16742  20722365.316    20722362.576
  22062617.480   -10342982.57843  -6802336.40642  22062619.356    22062617.497
  22913298.103    -4292197.15843  -3331400.50042  22913300.325    22913300.545
  21685173.728   -12387866.06343  -9605331.13342  21685175.968    21685173.393
  24135938.700    -2927514.00043  -2224391.11842  24135941.192    24135941.150
 04  5 21  0 20 30.0000000  0  6G14G25G20G 1G11G30
  23369301.694    -7167427.60143  -5578225.58242  23369303.842    23369302.076
  20726468.965   -19748616.41844 -15238110.60242  20726471.114    20726468.425
  22047501.493   -10422417.77643  -6864233.91642  22047503.403    22047501.477
  22900379.543    -4360083.94443  -3384299.16842  22900381.817    22900382.003
  21692529.839   -12349209.27744  -9575208.99842  21692532.076    21692529.581
  24138380.754    -2914681.57243  -2214391.78942  24138383.397    24138382.943
 04  5 21  0 21  0.0000000  0  6G14G25G20G 1G11G30
  23384418.086    -7087991.27543  -5516327.23142  23384420.291    23384418.273
  20730668.971   -19726545.54444 -15220912.51342  20730671.067    20730668.422
  22032421.317   -10501664.71343  -6925984.74342  22032423.235    22032421.208
  22887494.045    -4427796.98543  -3437062.45942  22887496.368    22887496.524
  21699979.562   -12310060.52643  -9544703.50542  21699981.805    21699979.446
  24140927.369    -2901298.36543  -2203963.34242  24140930.124    24140929.670
 04  5 21  0 21 30.0000000  0  6G14G25G20G 1G11G30
  23399541.690    -7008516.04143  -5454398.53642  23399543.914    23399541.849
  20734961.843   -19703986.16344 -15203333.76342  20734963.973    20734961.326
  22017376.380   -10580726.19743  -6987591.04842  22017378.296    22017376.297
  22874640.766    -4495341.18243  -3489694.20242  22874643.074    22874643.139
  21707521.687   -12270426.65643  -9513820.01042  21707523.890    21707521.539
  24143578.101    -2887369.30543  -2193109.52042  24143580.936    24143580.285
 04  5 21  0 22  0.0000000  0  6G14G25G20G 1G11G30
  23414674.292    -6928993.10043  -5392432.67442  23414676.512    23414674.804
  20739349.296   -19680929.97644 -15185367.89642  20739351.378    20739348.695
  22002368.927   -10659590.78643  -7049043.92442  22002370.854    22002368.926
  22861821.374    -4562707.18543  -3542187.09042  22861823.660    22861823.679
  21715157.556   -12230299.91943  -9482552.45042  21715159.804    21715157.446
  24146334.424    -2872884.93943  -2181823.00242  24146337.333    24146336.345
 04  5 21  0 22 30.0000000  0  6G14G25G20G 1G11G30
  23429814.544    -6849431.79543  -5330436.93642  23429816.670    23429815.006
  20743829.305   -19657387.21744 -15167022.88542  20743831.424    20743828.703
  21987397.501   -10738265.47143  -7110348.81742  21987399.464    21987397.619
  22849034.074    -4629903.88243  -3594548.02242  22849036.385    22849036.544
  21722885.181   -12189690.72643  -9450908.95342  21722887.434    21722885.223
  24149194.459    -2857853.90243  -2170110.48142  24149197.436    24149196.337
 04  5 21  0 23  0.0000000  0  6G14G25G20G 1G11G30
  23444962.311    -6769829.34643  -5268409.12542  23444964.628    23444962.927
  20748402.213   -19633355.94144 -15148297.21242  20748404.341    20748401.705
  21972463.295   -10816745.06043  -7171501.69942  21972465.275    21972463.389
  22836279.805    -4696927.94243  -3646774.44242  22836282.111    22836282.196
  21730704.864   -12148597.78843  -9418888.50742  21730707.101    21730705.018
  24152159.391    -2842273.29343  -2157969.71742  24152162.173    24152161.097
 04  5 21  0 23 30.0000000  0  6G14G25G20G 1G11G30
  23460117.549    -6690188.31143  -5206351.23142  23460119.786    23460117.913
  20753067.707   -19608838.86344 -15129192.98942  20753069.761    20753067.149
  21957566.260   -10895029.29843  -7232502.36042  21957568.214    21957566.321
  22823558.095    -4763780.84143  -3698867.51042  22823560.388    22823560.404
  21738616.050   -12107024.45143  -9386493.73442  21738618.257    21738616.040
  24155228.401    -2826144.40043  -2145401.76342  24155231.240    24155230.564
 04  5 21  0 24  0.0000000  0  6G14G25G20G 1G11G30
  23475280.485    -6610506.15043  -5144261.33942  23475282.739    23475280.981
  20757825.922   -19583834.40744 -15109708.99342  20757827.977    20757825.311
  21942707.330   -10973113.00943  -7293346.77042  21942709.294    21942707.419
  22810869.522    -4830459.45743  -3750824.78542  22810871.786    22810871.839
  21746618.908   -12064969.24343  -9353723.45342  21746621.153    21746618.827
  24158402.547    -2809464.23543  -2132404.25842  24158405.281    24158404.936
 04  5 21  0 24 30.0000000  0  6G14G25G20G 1G11G30
  23490451.097    -6530783.98943  -5082140.24842  23490453.256    23490451.605
  20762676.432   -19558344.83244 -15089846.97742  20762678.476    20762675.790
  21927886.830   -11050994.91543  -7354033.92942  21927888.778    21927886.997
  22798213.856    -4896964.39843  -3802646.72342  22798216.130    22798216.228
  21754713.064   -12022434.55743  -9320579.56642  21754715.319    21754712.938
  24161681.299    -2792233.48543  -2118977.71342  24161684.115    24161684.032
 04  5 21  0 25  0.0000000  0  6G14G25G20G 1G11G30
  23505628.695    -6451026.74643  -5019991.82942  23505630.679    23505629.223
  20767618.205   -19532375.42644 -15069611.07542  20767620.291    20767617.577
  21913104.373   -11128677.01043  -7414565.38942  21913106.296    21913104.571
  22785590.499    -4963299.95643  -3854336.67342  22785592.758    22785592.946
  21762897.102   -11979426.29943  -9287066.66842  21762899.352    21762897.121
  24165064.459    -2774456.44243  -2105125.50442  24165067.075    24165066.912
 04  5 21  0 25 30.0000000  0  6G14G25G20G 1G11G30
  23520813.227    -6371232.03243  -4957814.21542  23520815.243    23520813.836
  20772651.642   -19505924.66444 -15049000.08842  20772653.707    20772650.998
  21898360.967   -11206154.68143  -7474937.57142  21898362.830    21898361.053
  22772999.948    -5029463.30743  -3905892.43942  22773002.145    22773002.346
  21771171.689   -11935943.54944  -9253184.03342  21771173.889    21771171.754
  24168552.055    -2756130.53243  -2090845.55942  24168554.610    24168554.193
 04  5 21  0 26  0.0000000  0  6G14G25G20G 1G11G30
  23536004.770    -6291399.91243  -4895607.44142  23536006.795    23536005.436
  20777776.403   -19478993.65644 -15028014.88142  20777778.482    20777775.810
  21883656.803   -11283425.11243  -7535148.27042  21883658.705    21883656.904
  22760442.328    -5095453.80743  -3957313.50542  22760444.457    22760444.660
  21779536.335   -11891987.61944  -9218932.68542  21779538.585    21779536.447
  24172143.742    -2737255.04943  -2076137.40542  24172146.639    24172146.060
 04  5 21  0 26 30.0000000  0  6G14G25G20G 1G11G30
  23551203.297    -6211532.01443  -4833372.79442  23551205.272    23551203.928
  20782992.073   -19451585.11844 -15006657.57742  20782994.130    20782991.475
  21868992.208   -11360487.68943  -7595196.99542  21868994.094    21868992.259
  22747917.395    -5161272.64443  -4008600.80842  22747919.509    22747919.758
  21787990.431   -11847561.46644  -9184314.92642  21787992.708    21787990.440
  24175839.845    -2717831.28943  -2061002.03842  24175842.858    24175842.440
 04  5 21  0 27  0.0000000  0  6G14G25G20G 1G11G30
  23566408.995    -6131626.08343  -4771108.52542  23566411.126    23566409.623
  20788298.907   -19423697.49344 -14984926.95642  20788300.944    20788298.236
  21854368.126   -11437337.51543  -7655079.93842  21854369.980    21854368.145
  22735425.576    -5226916.81243  -4059752.03442  22735427.700    22735427.894
  21796534.155   -11802664.15944  -9149330.04042  21796536.407    21796534.134
  24179640.407    -2697856.69043  -2045437.40742  24179643.715    24179643.571
 04  5 21  0 27 30.0000000  0  6G14G25G20G 1G11G30
  23581621.479    -6051684.17943  -4708816.20242  23581623.660    23581622.057
  20793696.469   -19395333.19844 -14962824.90542  20793698.543    20793695.791
  21839784.734   -11513973.85243  -7714796.54542  21839786.619    21839784.624
  22722966.616    -5292387.76643  -4110768.23142  22722968.770    22722969.105
  21805166.998   -11757298.96443  -9113980.58042  21805169.215    21805166.910
  24183546.267    -2677332.86143  -2029444.83342  24183549.190    24183549.216
 04  5 21  0 28  0.0000000  0  6G14G25G20G 1G11G30
  23596839.803    -5971712.27243  -4646500.51342  23596841.949    23596840.255
  20799183.268   -19366499.71344 -14940357.25242  20799185.404    20799182.623
  21825241.314   -11590400.21543  -7774349.52442  21825243.200    21825241.167
  22710539.811    -5357691.12543  -4161653.86342  22710541.905    22710542.135
  21813887.280   -11711473.26143  -9078272.26142  21813889.540    21813887.305
  24187555.583    -2656265.58843  -2013028.77342  24187558.272    24187558.230
 04  5 21  0 28 30.0000000  0  6G14G25G20G 1G11G30
  23612065.081    -5891703.53643  -4584156.11942  23612067.300    23612065.484
  20804760.540   -19337191.18044 -14917519.43542  20804762.666    20804759.849
  21810739.504   -11666607.28743  -7833731.61642  21810741.425    21810739.420
  22698146.172    -5422819.47843  -4212403.12642  22698148.307    22698148.484
  21822696.203   -11665181.98943  -9042201.17042  21822698.458    21822696.248
  24191669.287    -2634647.81143  -1996183.72542  24191672.090    24191671.744
 04  5 21  0 29  0.0000000  0  6G14G25G20G 1G11G30
  23627296.793    -5811660.33343  -4521784.87742  23627298.956    23627297.396
  20810427.557   -19307410.98344 -14894314.08742  20810429.659    20810426.824
  21796279.496   -11742594.77543  -7892942.60442  21796281.444    21796279.418
  22685785.531    -5487774.45743  -4263017.26142  22685787.714    22685787.871
  21831593.093   -11618428.63743  -9005770.02542  21831595.332    21831593.042
  24195887.297    -2612481.44843  -1978911.21742  24195890.192    24195889.590
 04  5 21  0 29 30.0000000  0  6G14G25G20G 1G11G30
  23642534.972    -5731583.05043  -4459387.06342  23642537.229    23642535.812
  20816184.058   -19277160.22244 -14870742.06942  20816186.217    20816183.349
  21781861.761   -11818360.56243  -7951980.83442  21781863.649    21781861.728
  22673457.983    -5552555.88643  -4313496.20142  22673460.140    22673460.222
  21840577.579   -11571214.63643  -8968979.93342  21840579.845    21840577.631
  24200209.580    -2589766.70443  -1961211.44942  24200212.403    24200211.925
 04  5 21  0 30  0.0000000  0  6G14G25G20G 1G11G30
  23657778.712    -5651477.02443  -4396966.88342  23657780.864    23657779.644
  20822028.943   -19246445.14544 -14846808.24542  20822031.090    20822028.210
  21767485.666   -11893907.35043  -8010848.42442  21767487.605    21767485.543
  22661162.604    -5617168.87643  -4363843.91742  22661164.754    22661164.575
  21849648.545   -11523546.83343  -8931836.22342  21849650.810    21849648.492
  24204635.438    -2566508.59443  -1943088.22742  24204638.090    24204637.925
 04  5 21  0 30 30.0000000  0  6G14G25G20G 1G11G30
  23673028.571    -5571338.47343  -4334521.33442  23673030.796    23673029.538
  20827962.697   -19215262.82544 -14822510.33442  20827964.864    20827962.024
  21753152.379   -11969228.86343  -8069540.48442  21753154.353    21753152.221
  22648899.942    -5681609.06843  -4414056.97042  22648902.151    22648901.933
  21858806.201   -11475423.21143  -8894337.33842  21858808.524    21858806.058
  24209165.663    -2542703.30543  -1924538.64542  24209168.159    24209167.872
 04  5 21  0 31  0.0000000  0  6G14G25G20G 1G11G30
  23688284.925    -5491165.50243  -4272048.96642  23688287.073    23688285.924
  20833985.649   -19183612.44544 -14797847.71042  20833987.751    20833984.855
  21738862.867   -12044320.49843  -8128053.39242  21738864.791    21738862.803
  22636670.679    -5745873.97143  -4464133.44442  22636672.865    22636672.581
  21868050.710   -11426843.20943  -8856482.83442  21868053.046    21868050.587
  24213800.231    -2518348.76243  -1905561.11942  24213802.720    24213802.329
 04  5 21  0 31 30.0000000  0  6G14G25G20G 1G11G30
  23703546.995    -5410962.87843  -4209553.47642  23703549.065    23703547.793
  20840096.398   -19151500.03744 -14772825.05342  20840098.533    20840095.645
  21724616.680   -12119184.64043  -8186389.04442  21724618.573    21724616.555
  22624473.930    -5809967.77943  -4514076.57942  22624476.079    22624475.837
  21877380.858   -11377813.31143  -8818277.75642  21877383.196    21877380.712
  24218538.383    -2493449.51743  -1886159.13842  24218540.924    24218540.571
 04  5 21  0 32  0.0000000  0  6G14G25G20G 1G11G30
  23718814.576    -5330732.35443  -4147036.28442  23718816.608    23718815.430
  20846294.584   -19118928.62144 -14747444.73642  20846296.681    20846293.819
  21710413.983   -12193820.34443  -8244546.70242  21710415.846    21710413.748
  22612309.570    -5873891.95343  -4563887.55242  22612311.702    22612311.428
  21886796.049   -11328336.51543  -8779724.45342  21886798.386    21886795.961
  24223379.993    -2468007.30943  -1866334.07542  24223382.393    24223382.289
 04  5 21  0 32 30.0000000  0  6G14G25G20G 1G11G30
  23734087.933    -5250470.66343  -4084494.77742  23734090.064    23734088.938
  20852580.482   -19085896.07044 -14721705.09442  20852582.581    20852579.689
  21696255.821   -12268221.96443  -8302521.94742  21696257.672    21696255.561
  22600178.168    -5937642.77143  -4613563.44042  22600180.319    22600179.858
  21896296.553   -11278411.33943  -8740821.77142  21896298.863    21896296.445
  24228325.543    -2442018.91643  -1846083.39842  24228327.873    24228327.795
 04  5 21  0 33  0.0000000  0  6G14G25G20G 1G11G30
  23749367.307    -5170178.27043  -4021929.36042  23749369.444    23749368.249
  20858953.784   -19052403.84444 -14695607.25542  20858955.935    20858953.083
  21682142.654   -12342387.21943  -8360313.02442  21682144.542    21682142.218
  22588079.791    -6001220.17843  -4663104.21842  22588081.900    22588081.546
  21905881.921   -11228039.71843  -8701571.20442  21905884.202    21905881.945
  24233374.657    -2415484.86343  -1825407.48342  24233377.261    24233377.009
 04  5 21  0 33 30.0000000  0  6G14G25G20G 1G11G30
  23764651.974    -5089856.45743  -3959340.99442  23764654.218    23764652.965
  20865414.205   -19018454.46244 -14669153.18942  20865416.358    20865413.506
  21668074.601   -12416315.06543  -8417919.10642  21668076.505    21668074.052
  22576014.125    -6064625.07543  -4712510.54742  22576016.308    22576016.029
  21915551.673   -11177224.61643  -8661975.06442  21915553.979    21915551.815
  24238527.601    -2388406.43143  -1804307.43742  24238530.248    24238530.017
 04  5 21  0 34  0.0000000  0  6G14G25G20G 1G11G30
  23779941.800    -5009507.73943  -3896731.67442  23779944.071    23779942.739
  20871960.841   -18984051.62844 -14642345.78542  20871963.002    20871960.159
  21654051.791   -12490005.38443  -8475340.11242  21654053.682    21654051.189
  22563980.969    -6127859.50443  -4761784.05742  22563983.159    22563982.750
  21925304.976   -11125970.34443  -8622036.70942  21925307.251    21925305.234
  24243783.512    -2360786.04043  -1782785.10042  24243786.269    24243786.288
 04  5 21  0 34 30.0000000  0  6G14G25G20G 1G11G30
  23795236.549    -4929133.04743  -3834102.12642  23795238.872    23795237.577
  20878593.420   -18949196.97144 -14615186.30942  20878595.581    20878592.705
  21640074.489   -12563456.31243  -8532574.57442  21640076.375    21640073.949
  22551980.227    -6190923.69043  -4810924.89842  22551982.422    22551981.997
  21935141.528   -11074279.16443  -8581757.90342  21935143.798    21935141.889
  24249142.556    -2332624.57543  -1760841.16042  24249145.192    24249145.212
 04  5 21  0 35  0.0000000  0  6G14G25G20G 1G11G30
  23810536.919    -4848729.17043  -3771449.83542  23810539.163    23810538.080
  20885312.350   -18913888.75644 -14587673.41342  20885314.538    20885311.669
  21626143.860   -12636662.25644  -8589618.12942  21626145.743    21626143.390
  22540012.431    -6253814.14843  -4859930.38742  22540014.659    22540014.324
  21945061.500   -11022149.44743  -8541137.38742  21945063.735    21945061.818
  24254604.957    -2303918.95243  -1738473.12342  24254607.737    24254607.529
 04  5 21  0 35 30.0000000  0  6G14G25G20G 1G11G30
  23825842.813    -4768295.91443  -3708774.66242  23825845.010    23825843.951
  20892117.411   -18878128.12344 -14559807.98742  20892119.559    20892116.695
  21612260.368   -12709620.53843  -8646468.71442  21612262.315    21612259.922
  22528078.054    -6316530.31843  -4908800.06842  22528080.176    22528079.712
  21955064.647   -10969582.87843  -8500176.47342  21955066.843    21955064.903
  24260171.023    -2274669.27943  -1715681.22442  24260173.671    24260173.300
 04  5 21  0 36  0.0000000  0  6G14G25G20G 1G11G30
  23841153.379    -4687838.30643  -3646080.50042  23841155.689    23841154.583
  20899007.347   -18841921.34444 -14531594.90742  20899009.520    20899006.617
  21598423.542   -12782333.57643  -8703128.20142  21598425.517    21598423.079
  22516175.766    -6379076.85043  -4957537.55342  22516177.906    22516177.258
  21965149.611   -10916586.39343  -8458880.56842  21965151.811    21965149.849
  24265839.735    -2244880.69543  -1692469.33542  24265842.350    24265841.732
 04  5 21  0 36 30.0000000  0  6G14G25G20G 1G11G30
  23856468.807    -4607356.17143  -3583367.23442  23856471.059    23856470.072
  20905982.037   -18805269.12444 -14503034.74042  20905984.195    20905981.338
  21584633.894   -12854798.57643  -8759594.40942  21584635.832    21584633.433
  22504305.901    -6441453.02843  -5006142.30542  22504308.032    22504307.361
  21975316.248   -10863161.15843  -8417250.55342  21975318.454    21975316.295
  24271610.896    -2214553.07143  -1668837.46042  24271613.632    24271612.945
 04  5 21  0 37  0.0000000  0  6G14G25G20G 1G11G30
  23871789.189    -4526846.04043  -3520632.15542  23871791.500    23871790.741
  20913041.815   -18768169.49244 -14474125.93642  20913043.993    20913041.110
  21570892.595   -12927009.66043  -8815862.75342  21570894.536    21570892.118
  22492469.275    -6503655.21643  -5054611.49842  22492471.388    22492470.562
  21985564.645   -10809305.44343  -8375285.10242  21985566.883    21985564.685
  24277485.313    -2183683.33743  -1644783.12842  24277488.035    24277487.454
 04  5 21  0 37 30.0000000  0  6G14G25G20G 1G11G30
  23887114.207    -4446313.14243  -3457879.33042  23887116.371    23887115.591
  20920185.547   -18730629.17644 -14444873.74642  20920187.703    20920184.742
  21557198.996   -12998969.48143  -8871935.29542  21557200.960    21557198.642
  22480664.819    -6565688.05043  -5102948.70042  22480666.919    22480666.037
  21995893.712   -10755026.40943  -8332989.80642  21995895.905    21995893.592
  24283461.639    -2152276.90643  -1620310.60742  24283464.500    24283464.113
 04  5 21  0 38  0.0000000  0  6G14G25G20G 1G11G30
  23902444.122    -4365755.50543  -3395107.23642  23902446.099    23902445.337
  20927413.288   -18692646.93644 -14415277.19642  20927415.469    20927412.548
  21543554.095   -13070673.58843  -8927808.59242  21543556.083    21543553.752
  22468892.889    -6627549.34143  -5151152.20942  22468895.096    22468894.298
  22006303.328   -10700323.98243  -8290364.58242  22006305.552    22006303.155
  24289540.571    -2120332.08243  -1595418.51642  24289543.389    24289542.892
 04  5 21  0 38 30.0000000  0  6G14G25G20G 1G11G30
  23917779.024    -4285171.01143  -3332314.19642  23917780.971    23917780.134
  20934725.237   -18654222.40044 -14385336.00142  20934727.366    20934724.517
  21529958.755   -13142117.19943  -8983478.89442  21529960.743    21529958.460
  22457154.136    -6689236.48543  -5199220.05142  22457156.337    22457155.536
  22016793.496   -10645197.76143  -8247409.13642  22016795.745    22016793.367
  24295722.176    -2087847.08343  -1570105.57342  24295725.166    24295724.796
 04  5 21  0 39  0.0000000  0  6G14G25G20G 1G11G30
  23933117.589    -4204566.25843  -3269505.40742  23933119.518    23933118.794
  20942119.755   -18615363.75044 -14355056.53342  20942121.892    20942119.108
  21516412.212   -13213304.42143  -9038949.42642  21516414.182    21516411.860
  22445447.459    -6750755.59643  -5247156.95242  22445449.642    22445448.705
  22027362.757   -10589656.26543  -8204130.09542  22027365.025    22027362.641
  24302005.467    -2054828.92343  -1544377.17342  24302008.344    24302008.167
 04  5 21  0 39 30.0000000  0  6G14G25G20G 1G11G30
  23948461.535    -4123932.83543  -3206674.25642  23948463.553    23948462.804
  20949598.384   -18576063.63544 -14324433.07442  20949600.493    20949597.720
  21502916.541   -13284224.23543  -9094211.58042  21502918.490    21502916.316
  22433774.285    -6812097.89243  -5294956.05542  22433776.489    22433775.538
  22038012.304   -10533692.55243  -8160522.04142  22038014.557    22038012.157
  24308391.795    -2021269.19943  -1518226.77642  24308394.439    24308394.201
 04  5 21  0 40  0.0000000  0  6G14G25G20G 1G11G30
  23963809.146    -4043281.55643  -3143829.19642  23963811.132    23963810.416
  20957158.672   -18536334.12744 -14293475.02142  20957160.807    20957157.957
  21489470.291   -13354884.91243  -9149271.82742  21489472.200    21489469.953
  22422132.893    -6873273.78143  -5342625.53142  22422135.033    22422134.111
  22048739.740   -10477319.32443  -8116594.89342  22048741.991    22048739.645
  24314878.803    -1987179.48443  -1491663.38642  24314881.607    24314881.139
 04  5 21  0 40 30.0000000  0  6G14G25G20G 1G11G30
  23979161.121    -3962606.31043  -3080965.46742  23979163.217    23979162.403
  20964801.561   -18496170.26644 -14262178.50542  20964803.696    20964800.851
  21476074.967   -13425277.82844  -9204123.41842  21476076.824    21476074.582
  22410524.214    -6934276.81743  -5390160.29142  22410526.300    22410525.673
  22059545.963   -10420532.91143  -8072345.78642  22059548.201    22059545.866
  24321467.834    -1952553.71643  -1464682.28842  24321470.687    24321470.387
 04  5 21  0 41  0.0000000  0  6G14G25G20G 1G11G30
  23994517.383    -3881909.03543  -3018084.58042  23994519.362    23994518.699
  20972526.420   -18455575.76744 -14230546.43642  20972528.514    20972525.740
  21462730.688   -13495402.54843  -9258766.03642  21462732.542    21462730.246
  22398948.227    -6995108.84943  -5437561.81642  22398950.302    22398949.547
  22070430.088   -10363336.94143  -8027777.54142  22070432.345    22070429.918
  24328158.352    -1917394.78743  -1437285.73342  24328161.042    24328160.772
 04  5 21  0 41 30.0000000  0  6G14G25G20G 1G11G30
  24009877.982    -3801190.09443  -2955186.77742  24009880.049    24009878.926
  20980333.019   -18414552.15344 -14198579.99042  20980335.065    20980332.263
  21449437.671   -13565256.90443  -9313197.96542  21449439.608    21449437.422
  22387404.847    -7055769.61143  -5484829.86142  22387406.903    22387406.188
  22081391.714   -10305733.44043  -7982891.74642  22081393.984    22081391.502
  24334950.310    -1881703.08843  -1409474.04542  24334953.057    24334952.392
 04  5 21  0 42  0.0000000  0  5G14G25G20G 1G11
  24025244.335    -3720438.65643  -2892263.66042  24025246.586    24025245.523
  20988222.881   -18373090.40744 -14166272.14142  20988224.943    20988222.164
  21436198.876   -13634827.42743  -9367408.73142  21436200.750    21436198.597
  22375896.109    -7116248.15143  -5531955.92142  22375898.151    22375897.426
  22092432.539   -10247713.88943  -7937681.75542  22092434.792    22092432.302
 04  5 21  0 42 30.0000000  0  5G14G25G20G 1G11
  24040613.056    -3639676.38243  -2829332.11642  24040615.290    24040614.323
  20996191.838   -18331213.16044 -14133640.51742  20996193.908    20996191.117
  21423010.398   -13704133.30043  -9421413.27542  21423012.256    21423010.160
  22364418.087    -7176565.63043  -5578956.49042  22364420.179    22364419.362
  22103548.073   -10189301.42743  -7892165.61342  22103550.332    22103547.799
 04  5 21  0 43  0.0000000  0  5G14G25G20G 1G11
  24055985.403    -3558894.65043  -2766385.39742  24055987.664    24055986.800
  21004241.261   -18288913.30944 -14100679.59742  21004243.318    21004240.509
  21409874.347   -13773163.46743  -9475202.98742  21409876.212    21409874.163
  22352972.333    -7236713.31343  -5625824.76842  22352974.422    22352973.527
  22114739.465   -10130489.56143  -7846338.21942  22114741.758    22114739.390
 04  5 21  0 43 30.0000000  0  5G14G25G20G 1G11
  24071361.858    -3478091.80343  -2703422.24842  24071363.959    24071363.211
  21012371.031   -18246190.95944 -14067389.45642  21012373.135    21012370.295
  21396791.592   -13841913.75843  -9528774.61242  21396793.440    21396791.375
  22341559.343    -7296688.98043  -5672558.99242  22341561.483    22341560.541
  22126006.880   -10071278.83243  -7800200.03942  22126009.136    22126006.881
 04  5 21  0 44  0.0000000  0  5G14G25G20G 1G11
  24086742.374    -3397265.71743  -2640440.94742  24086744.587    24086743.801
  21020581.396   -18203045.34044 -14033769.49742  21020583.476    21020580.644
  21383763.024   -13910379.42344  -9582124.45342  21383764.851    21383762.701
  22330179.297    -7356490.23743  -5719157.30542  22330181.523    22330180.754
  22137350.333   -10011669.03243  -7753750.90842  22137352.558    22137350.362
 04  5 21  0 44 30.0000000  0  5G14G25G20G 1G11
  24102125.895    -3316426.35243  -2577449.32642  24102127.909    24102126.765
  21028870.066   -18159487.75044 -13999828.51542  21028872.161    21028869.345
  21370787.325   -13978567.75044  -9635258.19242  21370789.155    21370786.880
  22318830.819    -7416126.67543  -5765627.21742  22318832.956    22318832.200
  22148767.414    -9951671.85843  -7706999.92242  22148769.626    22148767.509
 04  5 21  0 45  0.0000000  0  6G14G16G25G20G 1G11
  24117512.984    -3235566.55443  -2514441.81142  24117515.029    24117513.765
  24290260.138
  21037238.221   -18115512.73944 -13965562.27342  21037240.279    21037237.476
  21357866.061   -14046469.48544  -9688168.60742  21357867.920    21357865.594
  22307515.115    -7475591.03043  -5811963.00542  22307517.327    22307516.498
  22160259.259    -9891282.47543  -7659943.31042  22160261.428    22160259.229
 04  5 21  0 45 30.0000000  0  6G14G16G25G20G 1G11
  24132903.812    -3154688.62443  -2451420.13342  24132905.778    24132904.292
  24272285.770     -775446.42553   -592479.28152  24272286.277    24272286.697
  21045685.127   -18071124.07844 -13930973.70942  21045687.177    21045684.370
  21344999.387   -14114084.20644  -9740855.37842  21345001.263    21344998.904
  22296231.676    -7534885.21543  -5858166.20542  22296233.919    22296233.081
  22171824.859    -9830505.36043  -7612584.58442  22171827.024    22171824.837
 04  5 21  0 46  0.0000000  0  6G14G16G25G20G 1G11
  24148299.151    -3073785.88543  -2388379.14242  24148301.077    24148299.818
  24254316.400     -869863.68843   -666050.92642  24254318.834    24254320.070
  21054211.751   -18026316.61544 -13896058.80842  21054213.762    21054211.007
  21332189.108   -14181402.66144  -9793311.29142  21332190.979    21332188.568
  22284982.034    -7594002.27243  -5904231.40242  22284984.219    22284983.282
  22183465.009    -9769335.82843  -7564920.05842  22183467.178    22183465.098
 04  5 21  0 46 30.0000000  0  6G14G16G25G20G 1G11
  24163697.007    -2992868.73943  -2325326.90842  24163699.177    24163697.845
  24236352.575     -964264.01943   -739609.36342  24236354.767    24236356.504
  21062815.674   -17981102.37644 -13860826.93642  21062817.740    21062815.023
  21319433.675   -14248432.62044  -9845542.40642  21319435.578    21319433.108
  22273764.246    -7652952.33543  -5950166.47042  22273766.370    22273765.342
  22195177.556    -9707786.23443  -7516959.39142  22195179.725    22195177.588
 04  5 21  0 47  0.0000000  0  6G14G16G25G20G 1G11
  24179098.290    -2911935.21443  -2262261.95642  24179100.182    24179099.422
  24218392.781    -1058642.75143   -813150.97242  24218394.872    24218396.572
  21071497.195   -17935480.97844 -13825277.80542  21071499.230    21071496.534
  21306733.965   -14315170.06444  -9897545.58942  21306735.844    21306733.383
  22262578.578    -7711733.24243  -5995969.70142  22262580.686    22262579.723
  22206962.312    -9645856.92643  -7468702.84642  22206964.520    22206962.454
 04  5 21  0 47 30.0000000  0  6G14G16G25G20G 1G11
  24194503.265    -2830980.79143  -2199180.67042  24194505.199    24194504.946
  24200438.527    -1152991.89743   -886669.56742  24200440.714    24200442.294
  21080256.731   -17889449.10444 -13789408.81742  21080258.818    21080256.072
  21294091.188   -14381607.89543  -9949315.30442  21294093.055    21294090.716
  22251425.910    -7770340.19943  -6041637.38742  22251428.029    22251427.242
  22218819.816    -9583545.24443  -7420148.35642  22218822.050    22218820.019
 04  5 21  0 48  0.0000000  0  6G14G16G25G20G 1G11
  24209911.375    -2750011.74343  -2136088.01742  24209913.314    24209913.109
  24182489.402    -1247314.14743   -960167.22042  24182491.580    24182493.541
  21089092.951   -17843014.54244 -13753226.05042  21089095.022    21089092.217
  21281504.732   -14447749.80543 -10000854.42242  21281506.576    21281504.295
  22240305.253    -7828779.03343  -6087174.10142  22240307.384    22240306.634
  22230748.573    -9520859.52643  -7371302.39542  22230750.788    22230748.799
 04  5 21  0 48 30.0000000  0  6G14G16G25G20G 1G11
  24225322.575    -2669026.74943  -2072982.94942  24225324.380    24225324.093
  24164546.136    -1341605.27843  -1033640.61342  24164548.452    24164550.513
  21098005.612   -17796178.11044 -13716730.14542  21098007.690    21098004.925
  21268975.424   -14513591.94044 -10052159.96442  21268977.220    21268974.922
  22229217.018    -7887048.23443  -6132578.62542  22229219.119    22229218.232
  22242748.258    -9457800.87843  -7322165.83342  22242750.508    22242748.611
 04  5 21  0 49  0.0000000  0  6G14G16G25G20G 1G11
  24240736.903    -2588024.05043  -2009864.05242  24240738.804    24240738.475
  24146609.818    -1435860.00843  -1107085.59942  24146612.219    24146614.429
  21106994.790   -17748939.60944 -13679920.92742  21106996.866    21106994.174
  21256503.950   -14579130.24344 -10103228.75142  21256505.713    21256503.316
  22218161.307    -7945145.94243  -6177849.50742  22218163.439    22218162.600
  22254818.938    -9394369.79543  -7272739.06042  22254821.176    22254819.187
 04  5 21  0 49 30.0000000  0  6G14G16G25G20G 1G11
  24256153.786    -2507008.82543  -1946735.40342  24256155.585    24256154.972
  24128680.091    -1530080.25843  -1180503.72442  24128682.491    24128684.873
  21116059.275   -17701305.80844 -13642803.68742  21116061.341    21116058.612
  21244089.695   -14644367.27144 -10154062.77042  21244091.500    21244089.124
  22207137.369    -8003077.08743  -6222990.61642  22207139.406    22207138.578
  22266959.023    -9330573.50843  -7223027.72242  22266961.252    22266959.114
 04  5 21  0 50  0.0000000  0  6G14G16G25G20G 1G11
  24271574.664    -2425971.71343  -1883589.73042  24271576.656    24271575.519
  24110759.273    -1624253.38743  -1253885.11242  24110761.837    24110764.222
  21125200.450   -17653268.83944 -13605372.29142  21125202.521    21125199.714
  21231735.024   -14709291.21344 -10204652.83342  21231736.858    21231734.462
  22196147.017    -8060831.86243  -6267994.27442  22196149.045    22196148.116
  22279169.903    -9266404.83743  -7173026.23642  22279172.181    22279170.018
 04  5 21  0 50 30.0000000  0  6G14G16G25G20G 1G11
  24286998.013    -2344923.01343  -1820435.03742  24286999.971    24286998.509
  24092846.259    -1718386.45043  -1327235.31842  24092848.816    24092851.116
  21134416.109   -17604840.76044 -13567636.14142  21134418.183    21134415.239
  21219438.452   -14773909.86444 -10255005.00342  21219440.281    21219437.977
  22185188.242    -8118420.46043  -6312868.44942  22185190.321    22185189.138
  22291449.381    -9201876.41143  -7122744.39342  22291451.616    22291449.425
 04  5 21  0 51  0.0000000  0  6G14G16G25G20G 1G11
  24302423.891    -2263858.89743  -1757268.27042  24302425.931    24302424.591
  24074942.159    -1812472.28443  -1400548.73342  24074944.783    24074946.980
  21143706.417   -17556019.51744 -13529593.62342  21143708.567    21143705.653
  21207201.174   -14838216.96744 -10305114.40342  21207202.987    21207200.817
  22174261.853    -8175838.76643  -6357609.93042  22174263.967    22174262.862
  22303797.546    -9136986.52143  -7072180.88442  22303799.780    22303797.513
 04  5 21  0 51 30.0000000  0  6G14G16G25G20G 1G11
  24317853.117    -2182778.98243  -1694089.23742  24317855.206    24317853.717
  24057047.909    -1906506.94243  -1473822.24642  24057050.414    24057052.576
  21153071.373   -17506806.12544 -13491245.53142  21153073.526    21153070.696
  21195023.832   -14902209.48044 -10354978.68242  21195025.584    21195023.362
  22163368.051    -8233086.02543  -6402218.11442  22163370.146    22163368.951
  22316214.113    -9071736.94243  -7021337.11342  22316216.303    22316214.006
 04  5 21  0 52  0.0000000  0  6G14G16G25G20G 1G11
  24333284.983    -2101684.07043  -1630898.50242  24333287.150    24333286.149
  24039163.707    -2000488.34043  -1547054.26442  24039166.185    24039168.247
  21162510.617   -17457203.01644 -13452593.76842  21162512.730    21162509.836
  21182906.534   -14965886.33744 -10404596.99242  21182908.285    21182905.959
  22152506.621    -8290163.01043  -6446693.63742  22152508.658    22152507.379
  22328698.615    -9006131.01943  -6970215.68442  22328700.796    22328698.445
 04  5 21  0 52 30.0000000  0  6G14G16G25G20G 1G11
  24348719.936    -2020572.79543  -1567694.99742  24348722.159    24348721.534
  24021290.417    -2094411.65043  -1620241.01642  24021293.069    24021294.960
  21172023.848   -17407210.74844 -13413638.76242  21172025.980    21172023.070
  21170850.161   -15029243.19344 -10453965.95142  21170851.920    21170849.558
  22141677.892    -8347068.01243  -6491035.15042  22141679.965    22141678.719
  22341250.797    -8940169.22043  -6918816.93742  22341252.984    22341250.746
 04  5 21  0 53  0.0000000  0  6G14G16G25G20G 1G11
  24364156.865    -1939451.19143  -1504483.51742  24364159.040    24364158.620
  24003427.864    -2188279.81743  -1693384.83142  24003430.305    24003432.070
  21181609.546   -17356837.44044 -13374386.84442  21181611.729    21181608.791
  21158853.935   -15092283.87944 -10503088.55042  21158855.737    21158853.319
  22130880.720    -8403807.05043  -6535247.32642  22130882.802    22130881.712
  22353868.935    -8873860.35343  -6867147.75142  22353871.107    22353868.916
 04  5 21  0 53 30.0000000  0  6G14G16G25G20G 1G11
  24379596.908    -1858312.28843  -1441258.46542  24379599.012    24379598.977
  23985577.649    -2282082.60243  -1766477.69342  23985579.994    23985581.572
  21191268.775   -17306077.51144 -13334833.66442  21191270.982    21191268.024
  21146919.647   -15154998.82744 -10551957.32242  21146921.455    21146919.101
  22120116.740    -8460372.82543  -6579324.51142  22120118.727    22120117.523
  22366554.046    -8807199.63743  -6815204.40042  22366556.274    22366554.166
 04  5 21  0 54  0.0000000  0  6G14G16G25G20G 1G11
  24395039.513    -1777161.67843  -1378024.33042  24395041.481    24395041.347
  23967739.259    -2375821.98343  -1839521.12942  23967741.755    23967743.395
  21201000.372   -17254937.94144 -13294984.66442  21201002.520    21200999.539
  21135046.681   -15217391.32844 -10600574.84042  21135048.507    21135046.233
  22109384.317    -8516770.81243  -6623270.92542  22109386.474    22109385.333
  22379304.787    -8740194.78943  -6762992.87442  22379306.925    22379304.933
 04  5 21  0 54 30.0000000  0  6G14G16G25G20G 1G11
  24410484.707    -1695998.90143  -1314780.71642  24410486.576    24410486.057
  23949913.459    -2469494.38943  -1912512.36142  23949916.158    23949918.017
  21210803.836   -17203420.27244 -13254841.03842  21210806.036    21210803.032
  21123235.649   -15279458.44344 -10648938.80442  21123237.427    21123235.193
  22098684.156    -8573000.13443  -6667085.94842  22098686.277    22098685.192
  22392120.484    -8672847.80943  -6710514.76942  22392122.617    22392120.683
 04  5 21  0 55  0.0000000  0  6G14G16G25G20G 1G11
  24425932.083    -1614822.76643  -1251526.70542  24425934.119    24425933.414
  23932101.917    -2563095.28643  -1985447.91442  23932104.384    23932106.114
  21220679.198   -17151524.90344 -13214403.10042  21220681.371    21220678.408
  21111487.218   -15341196.73044 -10697046.54642  21111489.000    21111486.734
  22088016.365    -8629059.52643  -6710768.53342  22088018.474    22088017.424
  22405001.178    -8605159.84243  -6657770.94642  22405003.300    22405001.326
 04  5 21  0 55 30.0000000  0  6G14G16G25G20G 1G11
  24441382.148    -1533632.31143  -1188261.50742  24441384.304    24441383.712
  23914304.578    -2656620.48843  -2058324.50042  23914306.998    23914308.512
  21230626.202   -17099252.75144 -13173671.57042  21230628.359    21230625.512
  21099802.091   -15402602.56344 -10744895.23442  21099803.856    21099801.559
  22077381.219    -8684947.74143  -6754317.74542  22077383.333    22077382.134
  22417946.573    -8537132.18443  -6604762.43542  22417948.684    22417946.662
 04  5 21  0 56  0.0000000  0  6G14G16G25G20G 1G11
  24456834.278    -1452431.17643  -1124987.97942  24456836.526    24456836.058
  23896521.635    -2750070.30043  -2131142.33242  23896523.996    23896525.465
  21240643.914   -17046609.34544 -13132650.74342  21240646.039    21240643.297
  21088179.950   -15463677.27444 -10792485.90042  21088181.726    21088179.426
  22066777.971    -8740668.32243  -6797736.34842  22066780.056    22066778.812
  22430955.155    -8468770.87143  -6551493.94042  22430957.322    22430955.430
 04  5 21  0 56 30.0000000  0  6G14G16G25G20G 1G11
  24472288.922    -1371217.32243  -1061704.59442  24472291.142    24472290.731
  23878754.078    -2843439.41043  -2203897.30242  23878756.377    23878757.765
  21250732.346   -16993594.37844 -13091340.39742  21250734.429    21250731.772
  21076621.672   -15524416.38144 -10839815.05142  21076623.474    21076621.236
  22056207.016    -8796219.07343  -6841022.60642  22056209.111    22056207.894
  22444027.287    -8400076.47043  -6497965.89842  22444029.409    22444027.529
 04  5 21  0 57  0.0000000  0  6G14G16G25G20G 1G11
  24487746.088    -1289988.61743   -998409.60442  24487748.332    24487748.207
  23861002.676    -2936722.60743  -2276585.31142  23861004.916    23861006.307
  21260891.514   -16940207.48144 -13049740.22642  21260893.599    21260890.934
  21065128.030   -15584815.44444 -10886879.24042  21065129.875    21065127.677
  22045668.875    -8851597.50943  -6884174.59542  22045670.966    22045669.641
  22457162.899    -8331049.00343  -6444178.31942  22457164.977    22457163.060
 04  5 21  0 57 30.0000000  0  6G14G16G25G20G 1G11
  24503205.371    -1208748.92843   -935106.04742  24503207.701    24503207.693
  23843267.668    -3029919.95743  -2349206.48542  23843270.023    23843270.982
  21271120.502   -16886454.01644 -13007854.43342  21271122.543    21271119.843
  21053698.999   -15644875.55144 -10933679.30642  21053700.802    21053698.640
  22035162.851    -8906807.20143  -6927195.10442  22035164.928    22035163.494
  22470360.652    -8261694.63143  -6390136.00942  22470362.793    22470360.827
 04  5 21  0 58  0.0000000  0  6G14G16G25G20G 1G11
  24518666.790    -1127500.70243   -871795.85342  24518668.686    24518668.811
  23825548.982    -3123030.86143  -2421760.31242  23825551.414    23825552.233
  21281418.387   -16832338.43744 -12965686.46642  21281420.427    21281417.688
  21042334.409   -15704597.14644 -10980215.60842  21042336.219    21042333.904
  22024688.340    -8961850.78343  -6970086.18042  22024690.475    22024689.048
  22483619.382    -8192018.87843  -6335843.25442  22483621.554    22483619.738
 04  5 21  0 58 30.0000000  0  6G14G16G25G20G 1G11
  24534130.796    -1046237.41343   -808473.92742  24534132.731    24534132.820
  23807848.629    -3216045.78543  -2494239.27242  23807851.024    23807851.607
  21291786.047   -16777856.23744 -12923232.82342  21291788.108    21291785.345
  21031035.830   -15763971.28044 -11026481.15142  21031037.651    21031035.319
  22014246.707    -9016721.45943  -7012842.51542  22014248.824    22014247.519
  22496940.394    -8122016.97343  -6281296.37842  22496942.513    22496940.720
 04  5 21  0 59  0.0000000  0  6G14G16G25G20G 1G11
  24549596.558     -964963.97443   -745144.09042  24549598.521    24549598.420
  23790166.441    -3308966.10143  -2566644.56942  23790168.711    23790169.349
  21302222.138   -16723014.17244 -12880498.76742  21302224.216    21302221.497
  21019802.963   -15823000.45244 -11072477.89542  21019804.765    21019802.389
  22003837.202    -9071423.91643  -7055467.77242  22003839.199    22003837.920
  22510322.047    -8051696.52043  -6226501.26942  22510324.213    22510322.471
 04  5 21  0 59 30.0000000  0  6G14G16G25G20G 1G11
  24565063.964     -883682.53943   -681808.01342  24565065.974    24565065.812
  23772502.435    -3401790.91943  -2638975.42142  23772504.684    23772505.445
  21312725.981   -16667816.07944 -12837487.28142  21312728.057    21312725.416
  21008635.797   -15881684.48844 -11118205.70642  21008637.618    21008635.098
  21993459.329    -9125960.28143  -7097963.62242  21993461.315    21993459.955
  22523763.321    -7981061.96143  -6171461.40742  22523765.538    22523763.878
 04  5 21  1  0  0.0000000  0  6G14G16G25G20G 1G11
  24580533.944     -802386.68843   -618460.71842  24580535.945    24580536.242
  23754858.338    -3494510.29443  -2711224.08342  23754860.611    23754861.607
  21323298.478   -16612257.41644 -12794194.83242  21323300.580    21323297.889
  20997535.963   -15940014.45344 -11163657.61542  20997537.788    20997535.205
  21983114.157    -9180323.87043  -7140324.81842  21983116.205    21983115.011
  22537265.330    -7910109.40743  -6116173.77442  22537267.454    22537265.690
 04  5 21  1  0 30.0000000  0  5G14G25G20G 1G11
  24596005.700     -721082.97943   -555107.31542  24596007.516    24596008.205
  21333937.967   -16556346.40244 -12750627.82642  21333940.093    21333937.448
  20986502.681   -15997994.56844 -11208836.91342  20986504.531    20986501.914
  21972800.792    -9234520.98343  -7182556.30942  21972802.859    21972801.595
  22550825.812    -7838848.11243  -6060645.53942  22550827.987    22550826.362
 04  5 21  1  1  0.0000000  0  5G14G25G20G 1G11
  24611479.848     -639765.63543   -491743.20942  24611481.611    24611482.554
  21344645.281   -16500079.38044 -12706783.41242  21344647.421    21344644.658
  20975537.588   -16055616.78444 -11253737.32742  20975539.429    20975536.818
  21962520.180    -9288545.62743  -7224653.39842  21962522.268    21962521.019
  22564445.750    -7767274.67943  -6004874.08542  22564447.942    22564446.431
 04  5 21  1  1 30.0000000  0  5G14G25G20G 1G11
  24626955.375     -558441.19043   -428373.63542  24626957.141    24626958.391
  21355418.707   -16443464.76744 -12662668.14942  21355420.840    21355418.069
  20964639.778   -16112885.08844 -11298361.96242  20964641.640    20964639.030
  21952271.251    -9342404.42143  -7266621.24442  21952273.238    21952272.102
  22578123.436    -7695397.93043  -5948866.29142  22578125.688    22578124.129
 04  5 21  1  2  0.0000000  0  5G14G25G20G 1G11
  24642433.186     -477107.76943   -364997.08242  24642434.913    24642435.514
  21366258.316   -16386502.48344 -12618281.97742  21366260.425    21366257.683
  20953810.034   -16169795.56344 -11342707.77342  20953811.921    20953809.267
  21942054.082    -9396095.19743  -7308458.17542  21942056.152    21942055.057
  22591858.847    -7623218.69043  -5892622.78342  22591861.014    22591859.433
 04  5 21  1  2 30.0000000  0  5G14G25G20G 1G11
  24657912.752     -395762.78343   -301611.47542  24657914.708    24657915.095
  21377164.156   -16329191.78644 -12573624.30942  21377166.315    21377163.616
  20943049.453   -16226342.92144 -11386770.64142  20943051.306    20943048.620
  21931869.562    -9449615.24443  -7350162.08642  21931871.601    21931870.381
  22605651.636    -7550736.99443  -5836143.59042  22605653.879    22605652.298
 04  5 21  1  3  0.0000000  0  5G14G25G20G 1G11
  24673393.910     -314409.85843   -238219.69742  24673395.960    24673395.865
  21388135.356   -16271538.15144 -12528699.42342  21388137.460    21388134.762
  20932357.566   -16282528.88544 -11430551.89542  20932359.435    20932356.704
  21921716.752    -9502968.22343  -7391735.80042  21921718.761    21921717.572
  22619500.824    -7477959.01543  -5779433.52342  22619503.100    22619501.441
 04  5 21  1  3 30.0000000  0  5G14G25G20G 1G11
  24688877.094     -233043.25443   -174817.22242  24688879.582    24688879.218
  21399172.468   -16213537.61644 -12483504.22042  21399174.609    21399171.843
  20921736.051   -16338345.09044 -11474045.02642  20921737.908    20921735.232
  21911597.006    -9556148.17043  -7433174.69842  21911599.031    21911597.723
  22633407.198    -7404881.39243  -5722489.98742  22633409.458    22633407.790
 04  5 21  1  4  0.0000000  0  5G14G25G20G 1G11
  24704361.950     -151669.95843   -111409.58342  24704364.115    24704364.243
  21410273.796   -16155199.24444 -12438045.76842  21410275.963    21410273.261
  20911184.021   -16393796.33444 -11517253.77142  20911185.869    20911183.178
  21901508.735    -9609162.07443  -7474484.18442  21901510.822    21901509.506
  22647368.690    -7331513.71943  -5665320.43342  22647370.968    22647369.317
 04  5 21  1  4 30.0000000  0  6G14G16G25G20G 1G11
  24719848.512      -70287.11443    -47994.47742  24719850.652    24719851.208
  23597029.789     -772563.40353   -585986.47552  23597028.230    23597028.727
  21421439.657   -16096522.24344 -12392323.45242  21421441.783    21421439.119
  20900702.455   -16448877.40444 -11560174.07442  20900704.318    20900701.604
  21891452.712    -9662006.70843  -7515661.77342  21891454.832    21891453.499
  22661385.243    -7257855.72543  -5607924.65942  22661387.496    22661385.960
 04  5 21  1  5  0.0000000  0  5G16G25G20G 1G11
  23579610.580     -864090.54343   -657306.10242  23579611.415    23579612.717
  21432670.889   -16037501.77844 -12346333.50242  21432672.956    21432670.352
  20890293.029   -16503579.39944 -11602798.99242  20890294.875    20890292.158
  21881430.147    -9714675.35643  -7556702.24542  21881432.244    21881430.885
  22675458.060    -7183903.31743  -5550299.47042  22675460.320    22675458.639
 04  5 21  1  5 30.0000000  0  5G16G25G20G 1G11
  23562216.791     -955488.90643   -728525.46242  23562219.159    23562219.796
  21443964.403   -15978154.00344 -12300088.49742  21443966.449    21443963.799
  20879953.423   -16557914.44944 -11645137.97842  20879955.274    20879952.542
  21871438.393    -9767182.35543  -7597616.76642  21871440.436    21871439.130
  22689583.520    -7109673.63743  -5492458.20942  22689585.805    22689584.085
 04  5 21  1  6  0.0000000  0  5G16G25G20G 1G11
  23544850.751    -1046749.15343   -799637.19542  23544853.134    23544853.226
  21455321.025   -15918475.04544 -12253585.43842  21455323.038    21455320.273
  20869685.232   -16611874.03144 -11687184.39042  20869687.094    20869684.405
  21861478.591    -9819521.46743  -7638400.45642  21861480.666    21861479.272
  22703762.547    -7035162.74943  -5434397.84242  22703764.800    22703763.091
 04  5 21  1  6 30.0000000  0  5G16G25G20G 1G11
  23527511.845    -1137865.85843   -870637.12342  23527514.286    23527514.064
  21466740.741   -15858464.39744 -12206823.91742  21466742.745    21466739.879
  20859489.345   -16665453.75144 -11728934.81342  20859491.216    20859488.478
  21851551.221    -9871690.28043  -7679051.44542  21851553.304    21851551.857
  22717994.985    -6960371.35843  -5376118.89442  22717997.232    22717995.384
 04  5 21  1  7  0.0000000  0  5G16G25G20G 1G11
  23510200.071    -1228839.54343   -941525.56642  23510202.576    23510202.229
  21478222.346   -15798127.94844 -12159808.52142  21478224.420    21478221.633
  20849365.343   -16718655.17244 -11770390.44342  20849367.215    20849364.601
  21841655.504    -9923692.50643  -7719572.62842  21841657.573    21841656.150
  22732279.576    -6885305.61843  -5317626.15742  22732281.805    22732279.968
 04  5 21  1  7 30.0000000  0  5G16G25G20G 1G11
  23492917.406    -1319660.27843  -1012294.84742  23492919.931    23492919.632
  21489766.842   -15737460.91444 -12112535.53042  21489768.929    21489766.258
  20839315.209   -16771469.27444 -11811544.27142  20839317.034    20839314.454
  21831792.813    -9975521.25143  -7759958.64742  21831794.864    21831793.405
  22746616.941    -6809961.91843  -5258916.83842  22746619.192    22746617.549
 04  5 21  1  8  0.0000000  0  5G16G25G20G 1G11
  23475662.074    -1410336.96943  -1082951.84842  23475664.662    23475664.392
  21501371.751   -15676477.23144 -12065015.79742  21501373.792    21501371.080
  20829336.829   -16823905.78444 -11852403.87542  20829338.662    20829336.091
  21821960.878   -10027188.47243  -7800218.77442  21821962.893    21821961.441
  22761004.564    -6734354.66943  -5200002.15742  22761006.785    22761005.192
 04  5 21  1  8 30.0000000  0  5G16G25G20G 1G11
  23458436.498    -1500857.56643  -1153487.22542  23458439.069    23458438.799
  21513038.056   -15615170.45744 -12017244.30442  21513040.155    21513037.380
  20819432.355   -16875953.94444 -11892960.86742  20819434.194    20819431.648
  21812161.331   -10078685.30143  -7840346.14342  21812163.365    21812161.922
  22775443.495    -6658477.96043  -5140877.51142  22775445.742    22775444.183
 04  5 21  1  9  0.0000000  0  5G16G25G20G 1G11
  23441239.995    -1591223.93343  -1223902.43842  23441242.720    23441242.493
  21524764.669   -15553547.20244 -11969226.20842  21524766.747    21524763.979
  20809601.213   -16927616.48444 -11933217.37442  20809603.048    20809600.604
  21802393.320   -10130016.60743  -7880344.54742  21802395.313    21802393.784
  22789932.317    -6582339.18743  -5081548.66742  22789934.532    22789932.985
 04  5 21  1  9 30.0000000  0  5G16G25G20G 1G11
  23424075.662    -1681422.74443  -1294187.10642  23424078.381    23424078.100
  21536552.891   -15491599.50344 -11920955.29442  21536555.056    21536552.353
  20799845.904   -16978880.91244 -11973163.66742  20799847.703    20799845.328
  21792658.613   -10181172.43543  -7920206.19942  21792660.578    21792659.134
  22804472.330    -6505931.18043  -5022010.01642  22804474.537    22804472.896
 04  5 21  1 10  0.0000000  0  5G16G25G20G 1G11
  23406941.573    -1771461.50043  -1364347.01342  23406944.202    23406944.167
  21548400.484   -15429340.08743 -11872441.48642  21548402.632    21548399.964
  20790164.790   -17029755.73044 -12012806.36642  20790166.547    20790164.172
  21782955.391   -10232163.33343  -7959939.35542  21782957.371    21782955.843
  22819061.069    -6429267.11443  -4962271.85042  22819063.232    22819061.687
 04  5 21  1 10 30.0000000  0  5G16G25G20G 1G11
  23389839.739    -1861331.34843  -1434375.34442  23389842.348    23389842.226
  21560308.084   -15366765.23344 -11823681.88742  21560310.218    21560307.567
  20780559.276   -17080233.23944 -12052139.48442  20780561.064    20780558.596
  21773284.641   -10282983.48643  -7999539.43542  21773286.653    21773285.170
  22833699.024    -6352344.38043  -4902332.12542  22833701.188    22833699.699
 04  5 21  1 11  0.0000000  0  5G16G25G20G 1G11
  23372770.183    -1951032.29843  -1504272.05542  23372772.764    23372772.573
  21572274.730   -15303880.06743 -11774680.47342  21572276.870    21572274.245
  20771029.119   -17130314.43244 -12091163.77342  20771030.944    20771028.464
  21763645.712   -10333636.03043  -8039008.91442  21763647.703    21763646.361
  22848385.106    -6275168.58743  -4842195.20142  22848387.309    22848385.798
 04  5 21  1 11 30.0000000  0  5G16G25G20G 1G11
  23355733.304    -2040561.32043  -1574034.76642  23355735.818    23355735.672
  21584300.067   -15240686.84844 -11725439.03242  21584302.173    21584299.546
  20761574.796   -17179997.39144 -12129877.75942  20761576.611    20761574.077
  21754038.645   -10384121.30843  -8078348.05542  21754040.652    21754039.328
  22863118.728    -6197742.87843  -4781863.54842  22863120.950    22863119.436
 04  5 21  1 12  0.0000000  0  5G16G25G20G 1G11
  23338730.080    -2129914.12643  -1643660.15942  23338732.372    23338732.304
  21596383.739   -15177186.52343 -11675958.27642  21596385.890    21596383.286
  20752196.836   -17229278.62644 -12168278.71442  20752198.703    20752196.177
  21744463.684   -10434437.98243  -8117555.82942  21744465.658    21744464.287
  22877899.665    -6120068.51243  -4721338.11442  22877901.827    22877900.565
 04  5 21  1 12 30.0000000  0  5G16G25G20G 1G11
  23321760.856    -2219086.91143  -1713145.31642  23321763.279    23321762.953
  21608525.477   -15113380.81543 -11626239.55642  21608527.619    21608525.052
  20742895.931   -17278155.48744 -12206364.56942  20742897.770    20742895.239
  21734920.965   -10484585.10743  -8156631.47642  21734923.010    21734921.495
  22892727.634    -6042147.61143  -4660620.59142  22892729.759    22892728.519
 04  5 21  1 13  0.0000000  0  5G16G25G20G 1G11
  23304826.309    -2308078.90543  -1782489.60942  23304828.671    23304828.162
  21620724.699   -15049274.02543 -11576286.23642  21620726.771    21620724.202
  20733671.870   -17326628.47444 -12244135.71942  20733673.693    20733671.133
  21725410.051   -10534565.44843  -8195577.17142  21725412.103    21725410.501
  22907601.316    -5963985.87043  -4599715.40342  22907603.500    22907602.288
 04  5 21  1 13 30.0000000  0  5G16G25G20G 1G11
  23287927.012    -2396884.45843  -1851688.57142  23287929.415    23287928.916
  21632981.127   -14984865.67843 -11526097.92942  21632983.225    21632980.741
  20724525.487   -17374692.76844 -12281588.40342  20724527.332    20724524.725
  21715931.341   -10584376.28643  -8234390.78342  21715933.421    21715931.918
  22922521.014    -5885583.05443  -4538622.37742  22922523.150    22922521.907
 04  5 21  1 14  0.0000000  0  5G16G25G20G 1G11
  23271063.314    -2485503.66643  -1920742.38742  23271065.693    23271065.259
  21645294.112   -14920160.86143 -11475678.60942  21645296.186    21645293.722
  20715456.684   -17422349.48744 -12318723.50042  20715458.564    20715455.923
  21706484.191   -10634020.83643  -8273074.80642  21706486.255    21706484.932
  22937485.438    -5806945.28043  -4477346.25142  22937487.614    22937486.226
 04  5 21  1 14 30.0000000  0  5G16G25G20G 1G11
  23254236.706    -2573927.37843  -1989643.82442  23254239.069    23254238.782
  21657664.026   -14855155.96943 -11425025.46042  21657666.188    21657663.716
  20706466.986   -17469590.68344 -12355534.82142  20706468.830    20706466.153
  21697069.861   -10683493.06743  -8311624.57542  21697071.980    21697070.626
  22952494.990    -5728069.68143  -4415884.80742  22952497.145    22952495.765
 04  5 21  1 15  0.0000000  0  5G16G25G20G 1G11
  23237446.065    -2662161.57643  -2058397.58242  23237448.561    23237448.455
  21670089.175   -14789862.10744 -11374147.15042  21670091.295    21670088.694
  20697555.056   -17516423.42144 -12392027.85442  20697556.885    20697554.180
  21687686.694   -10732801.99343  -8350047.09242  21687688.789    21687687.394
  22967547.629    -5648967.74243  -4354247.01542  22967549.733    22967548.421
 04  5 21  1 15 30.0000000  0  5G16G25G20G 1G11
  23220693.527    -2750195.19943  -2126995.06442  23220696.045    23220696.078
  21682570.370   -14724273.12543 -11323038.87042  21682572.538    21682569.871
  20688722.820   -17562837.30344 -12428194.50642  20688724.669    20688721.968
  21678336.115   -10781939.55443  -8388336.07642  21678338.186    21678336.721
  22982644.294    -5569634.41343  -4292428.88842  22982646.452    22982645.139
 04  5 21  1 16  0.0000000  0  5G16G25G20G 1G11
  23203979.000    -2838030.18343  -2195437.78042  23203981.430    23203981.407
  21695106.270   -14658396.50943 -11271706.45342  21695108.449    21695105.839
  20679969.542   -17608835.94944 -12464037.59542  20679971.399    20679968.721
  21669017.067   -10830911.15043  -8426495.73642  21669019.190    21669017.708
  22997783.497    -5490077.72843  -4230436.73242  22997785.675    22997784.226
 04  5 21  1 16 30.0000000  0  5G16G25G20G 1G11
  23187303.794    -2925658.65943  -2263719.54542  23187306.140    23187306.334
  21707697.427   -14592229.61043 -11220147.85242  21707699.594    21707697.064
  20671296.669   -17654412.20644 -12499551.55042  20671298.519    20671295.804
  21659730.619   -10879711.61243  -8464522.03842  21659732.726    21659731.328
  23012965.366    -5410295.60243  -4168268.88342  23012967.584    23012966.340
 04  5 21  1 17  0.0000000  0  5G16G25G20G 1G11
  23170667.156    -3013083.37743  -2331842.56842  23170669.447    23170669.882
  21720342.378   -14525780.44843 -11168369.29942  21720344.516    21720341.936
  20662703.489   -17699569.64644 -12534739.16042  20662705.350    20662702.670
  21650475.677   -10928346.83243  -8502419.57742  21650477.827    21650476.251
  23028188.761    -5330296.44043  -4105931.97642  23028190.970    23028189.683
 04  5 21  1 17 30.0000000  0  5G16G25G20G 1G11
  23154071.151    -3100295.10243  -2399799.62942  23154073.418    23154073.819
  21733041.685   -14459045.13443 -11116367.77942  21733043.858    21733041.260
  20654191.458   -17744300.70444 -12569594.51842  20654193.323    20654190.629
  21641253.216   -10976811.02043  -8540183.83642  21641255.381    21641253.757
  23043453.940    -5250077.37543  -4043423.69042  23043456.096    23043454.927
 04  5 21  1 18  0.0000000  0  5G16G25G20G 1G11
  23137515.684    -3187295.33943  -2467591.87942  23137517.693    23137517.973
  21745794.282   -14392029.84943 -11064148.09442  21745796.412    21745793.792
  20645760.144   -17788607.57444 -12604119.34242  20645761.996    20645759.230
  21632062.519   -11025108.57443  -8577818.26842  21632064.674    21632062.894
  23058759.505    -5169645.95543  -3980749.91142  23058761.665    23058760.730
 04  5 21  1 18 30.0000000  0  5G16G25G20G 1G11
  23121001.263    -3274077.41943  -2535214.14042  23121003.439    23121003.607
  21758600.484   -14324733.04643 -11011709.04442  21758602.618    21758599.958
  20637410.509   -17832484.78244 -12638309.36242  20637412.375    20637409.638
  21622904.123   -11073235.73443  -8615319.92042  21622906.286    21622904.489
  23074105.740    -5089001.18443  -3917909.86742  23074107.874    23074107.004
 04  5 21  1 19  0.0000000  0  5G16G25G20G 1G11
  23104528.128    -3360644.62943  -2602669.02542  23104530.286    23104530.080
  21771458.559   -14257163.74543 -10959057.67242  21771460.640    21771458.007
  20629141.828   -17875936.84544 -12672168.09542  20629143.668    20629140.993
  21613777.038   -11121199.02643  -8652693.87742  21613779.161    21613777.374
  23089490.956    -5008152.32943  -3854910.82942  23089493.052    23089492.164
 04  5 21  1 19 30.0000000  0  5G16G25G20G 1G11
  23088097.894    -3446985.48543  -2669947.45642  23088100.001    23088099.960
  21784369.646   -14189315.70243 -10906189.08242  21784371.733    21784368.981
  20620956.040   -17918953.52744 -12705687.57642  20620957.836    20620955.170
  21604682.670   -11168990.20743  -8689933.73142  21604684.784    21604682.964
  23104915.935    -4927093.95043  -3791748.53242  23104918.036    23104917.026
 04  5 21  1 20  0.0000000  0  5G16G25G20G 1G11
  23071710.382    -3533102.00743  -2737051.13842  23071712.548    23071712.398
  21797332.435   -14121195.94243 -10853108.77042  21797334.520    21797331.714
  20612852.535   -17961537.64044 -12738869.99042  20612854.326    20612851.705
  21595620.157   -11216614.15243  -8727043.26542  21595622.227    21595620.407
  23120379.131    -4845833.85843  -3728429.03442  23120381.341    23120380.283
 04  5 21  1 20 30.0000000  0  5G16G25G20G 1G11
  23055367.146    -3618985.76143  -2803973.41042  23055369.262    23055369.231
  21810347.394   -14052801.33843 -10799814.28742  21810349.525    21810346.808
  20604832.730   -18003682.07644 -12771709.79842  20604834.515    20604831.878
  21586590.407   -11264065.52943  -8764018.34142  21586592.512    21586590.680
  23135881.278    -4764369.71143  -3664950.53142  23135883.503    23135882.364
 04  5 21  1 21  0.0000000  0  5G16G25G20G 1G11
  23039067.730    -3704639.89543  -2870716.78042  23039069.720    23039069.637
  21823413.199   -13984140.16843 -10746312.09242  21823415.322    21823412.672
  20596895.773   -18045390.98944 -12804210.24042  20596897.618    20596894.916
  21577592.287   -11311350.48843  -8800863.73442  21577594.376    21577592.633
  23151420.490    -4682710.48143  -3601320.01142  23151422.769    23151421.729
 04  5 21  1 21 30.0000000  0  5G16G25G20G 1G11
  23022812.864    -3790059.73043  -2937277.59142  23022814.892    23022814.685
  21836529.629   -13915212.65243 -10692602.36542  21836531.758    21836529.171
  20589042.394   -18086660.87644 -12836368.59142  20589044.218    20589041.514
  21568626.265   -11358467.32843  -8837578.12242  21568628.303    21568626.549
  23166996.718    -4600857.48643  -3537538.52542  23166998.958    23166997.940
 04  5 21  1 22  0.0000000  0  5G16G25G20G 1G11
  23006603.216    -3875241.37343  -3003652.76342  23006605.386    23006605.059
  21849696.386   -13846020.30843 -10638686.26842  21849698.520    21849696.014
  20581272.994   -18127489.12944 -12868182.79842  20581274.833    20581272.196
  21559692.359   -11405415.24943  -8874160.88742  21559694.384    21559692.651
  23182609.411    -4518812.71943  -3473607.60142  23182611.663    23182610.611
 04  5 21  1 22 30.0000000  0  5G16G25G20G 1G11
  22990439.129    -3960183.08243  -3069841.00442  22990441.450    22990441.276
  21862912.938   -13776566.64243 -10584566.55242  21862915.028    21862912.664
  20573587.806   -18167875.03544 -12899652.32742  20573589.657    20573587.032
  21550790.333   -11452195.62243  -8910613.09342  21550792.350    21550790.647
  23198257.829    -4436580.38243  -3409530.53842  23198260.045    23198258.907
 04  5 21  1 23  0.0000000  0  5G16G25G20G 1G11
  22974321.330    -4044881.71143  -3135839.80542  22974323.644    22974323.588
  21876178.877   -13706853.88143 -10530244.94142  21876180.912    21876178.633
  20565987.082   -18207816.68344 -12930775.67142  20565988.945    20565986.426
  21541920.164   -11498808.39143  -8946934.70942  21541922.181    21541920.579
  23213941.486    -4354163.28543  -3345309.47942  23213943.702    23213942.527
 04  5 21  1 23 30.0000000  0  5G16G25G20G 1G11
  22958250.996    -4129332.08843  -3201645.18742  22958253.136    22958252.953
  21889494.259   -13636881.69943 -10475721.18342  21889496.265    21889493.903
  20558471.716   -18247310.00344 -12961549.67642  20558473.609    20558471.057
  21533082.287   -11545251.48444  -8983124.10242  21533084.324    21533082.722
  23229659.912    -4271562.48043  -3280945.27342  23229662.214    23229661.076
 04  5 21  1 24  0.0000000  0  5G16G25G20G 1G11
  22942228.357    -4213531.07643  -3267254.68642  22942230.572    22942230.225
  21902858.484   -13566652.40743 -10420997.08742  21902860.509    21902858.110
  20551042.022   -18286353.34644 -12991973.05342  20551043.920    20551041.262
  21524276.770   -11591524.76843  -9019181.18142  21524278.840    21524277.208
  23245412.778    -4188780.55643  -3216439.93942  23245415.088    23245413.933
 04  5 21  1 24 30.0000000  0  5G16G25G20G 1G11
  22926254.113    -4297475.92843  -3332666.15742  22926256.410    22926255.926
  21916271.157   -13496168.22943 -10366074.37542  21916273.185    21916270.821
  20543698.415   -18324944.62744 -13022044.17742  20543700.284    20543697.615
  21515503.544   -11637628.25643  -9055105.94442  21515505.585    21515503.989
  23261199.435    -4105820.76243  -3151796.01142  23261201.663    23261200.705
 04  5 21  1 25  0.0000000  0  5G16G25G20G 1G11
  22910328.419    -4381165.93843  -3397879.03742  22910330.710    22910330.188
  21929731.607   -13425433.48643 -10310956.41942  21929733.665    21929731.235
  20536440.598   -18363084.55544 -13051763.59542  20536442.511    20536439.784
  21506762.122   -11683564.39743  -9090900.32242  21506764.151    21506762.643
  23277019.178    -4022688.04843  -3087017.34842  23277021.349    23277020.322
 04  5 21  1 25 30.0000000  0  5G16G25G20G 1G11
  22894452.352    -4464594.75043  -3462888.39042  22894454.678    22894454.022
  21943239.819   -13354447.41343 -10255642.61742  21943241.912    21943239.421
  20529269.665   -18400768.20644 -13081127.48342  20529271.528    20529268.786
  21498053.209   -11729330.05643  -9126561.84942  21498055.240    21498053.687
  23292871.896    -3939382.35743  -3022103.90642  23292874.129    23292872.835
 04  5 21  1 26  0.0000000  0  5G16G25G20G 1G11
  22878626.129    -4547762.02043  -3527693.96242  22878628.444    22878627.546
  21956795.092   -13283214.29143 -10200136.31942  21956797.147    21956794.679
  20522185.430   -18437996.02244 -13110136.15942  20522187.271    20522184.642
  21489376.294   -11774927.45143  -9162092.26742  21489378.327    21489376.688
  23308756.272    -3855909.01443  -2957059.82442  23308758.498    23308757.431
 04  5 21  1 26 30.0000000  0  5G16G25G20G 1G11
  22862849.664    -4630666.96743  -3592295.11042  22862852.034    22862851.076
  21970396.248   -13211738.85043 -10144441.20342  21970398.401    21970396.076
  20515187.782   -18474768.66744 -13138790.15942  20515189.642    20515187.051
  21480731.023   -11820358.94843  -9197493.41942  21480733.044    21480731.356
  23324671.754    -3772273.05743  -2891889.02742  23324673.894    23324672.983
 04  5 21  1 27  0.0000000  0  5G16G25G20G 1G11
  22847125.736    -4713296.50143  -3656681.64242  22847127.943    22847126.990
  21984045.234   -13140013.05043 -10088550.99342  21984047.295    21984045.092
  20508279.046   -18511074.21344 -13167080.18342  20508280.868    20508278.302
  21472119.051   -11865614.53143  -9232757.47342  21472121.109    21472119.555
  23340619.546    -3688467.52943  -2826586.09442  23340621.642    23340620.689
 04  5 21  1 27 30.0000000  0  5G16G25G20G 1G11
  22831452.912    -4795657.65443  -3720859.08542  22831455.062    22831453.891
  21997739.599   -13068049.22043 -10032475.30442  21997741.593    21997739.437
  20501457.685   -18546920.91944 -13195012.68242  20501459.502    20501456.885
  21463538.792   -11910704.13043  -9267892.20842  21463540.876    21463539.210
  23356596.968    -3604505.26143  -2761161.02342  23356599.166    23356598.302
 04  5 21  1 28  0.0000000  0  5G16G25G20G 1G11
  22815831.993    -4877745.36343  -3784823.42242  22815834.154    22815833.045
  22011479.187   -12995847.12943  -9976213.96042  22011481.232    22011479.097
  20494724.297   -18582304.93444 -13222584.63042  20494726.120    20494723.605
  21454990.526   -11955625.60043  -9302895.94042  21454992.604    21454990.900
  23372604.075    -3520387.37343  -2695614.67942  23372606.260    23372605.499
 04  5 21  1 28 30.0000000  0  5G16G25G20G 1G11
  22800264.519    -4959553.08043  -3848569.59742  22800266.616    22800265.450
  22025264.441   -12923405.27843  -9919765.79342  22025266.482    22025264.334
  20488080.008   -18617220.94044 -13249791.90742  20488081.837    20488079.276
  21446474.824   -12000375.48243  -9337765.95942  21446476.886    21446475.288
  23388641.030    -3436112.79343  -2629946.23442  23388643.152    23388642.356
 04  5 21  1 29  0.0000000  0  5G16G25G20G 1G11
  22784749.732    -5041082.98843  -3912099.31042  22784751.911    22784750.721
  22039093.984   -12850730.95243  -9863136.48042  22039096.005    22039093.807
  20481524.153   -18651672.22244 -13276637.06142  20481525.976    20481523.416
  21437990.949   -12044958.80244  -9372506.19542  21437992.916    21437991.272
  23404706.317    -3351689.57243  -2564162.02642  23404708.499    23404707.634
 04  5 21  1 29 30.0000000  0  5G16G25G20G 1G11
  22769289.520    -5122326.03743  -3975405.47442  22769291.725    22769290.716
  22052968.428   -12777820.54443  -9806323.20042  22052970.478    22052968.265
  20475058.178   -18685651.05844 -13303114.07342  20475059.988    20475057.377
  21429539.841   -12089369.47443  -9407111.89542  21429541.867    21429540.202
  23420800.319    -3267114.70943  -2498259.61142  23420802.505    23420801.870
 04  5 21  1 30  0.0000000  0  5G16G25G20G 1G11
  22753883.895    -5203284.02743  -4038489.52842  22753885.958    22753884.985
  22066886.475   -12704680.69243  -9749331.14542  22066888.557    22066886.442
  20468681.539   -18719160.53844 -13329225.35342  20468683.316    20468680.707
  21421120.718   -12133612.33043  -9441586.82542  21421122.732    21421121.077
  23436922.055    -3182395.80143  -2432244.96742  23436924.121    23436923.464
 04  5 21  1 30 30.0000000  0  5G16G25G20G 1G11
  22738533.189    -5283952.24743  -4101347.78842  22738535.322    22738534.292
  22080848.099   -12631311.93543  -9692160.72142  22080850.197    22080848.126
  20462394.849   -18752197.39144 -13354968.35142  20462396.594    20462393.953
  21412733.827   -12177685.61144  -9475929.61442  21412735.862    21412734.215
  23453070.808    -3097534.52143  -2366119.38142  23453072.903    23453072.078
 04  5 21  1 31  0.0000000  0  5G16G25G20G 1G11
  22723238.413    -5364326.19743  -4163976.75642  22723240.633    22723239.509
  22094853.300   -12557714.40943  -9634812.03342  22094855.329    22094853.222
  20456198.780   -18784758.03544 -13380340.27842  20456200.545    20456197.893
  21404379.595   -12221587.38644  -9510138.77942  21404381.605    21404379.921
  23469246.241    -3012531.64943  -2299883.45142  23469248.452    23469247.775
 04  5 21  1 31 30.0000000  0  5G16G25G20G 1G11
  22707999.472    -5444406.90943  -4226377.22142  22708001.741    22708000.678
  22108900.757   -12483894.52943  -9577290.08942  22108902.803    22108900.677
  20450092.807   -18816844.97844 -13405343.09142  20450094.576    20450091.977
  21396057.226   -12265321.96244  -9544217.65642  21396059.198    21396057.530
  23485447.586    -2927394.25943  -2233542.71842  23485449.709    23485448.979
 04  5 21  1 32  0.0000000  0  5G16G25G20G 1G11
  22692817.964    -5524186.25343  -4288542.87542  22692820.210    22692819.141
  22122991.177   -12409849.47743  -9519592.67242  22122993.218    22122991.048
  20444078.345   -18848451.39644 -13429971.47142  20444080.099    20444077.449
  21387767.503   -12308884.18144  -9578162.20142  21387769.511    21387767.938
  23501674.683    -2842120.20243  -2167095.48342  23501676.822    23501676.184
 04  5 21  1 32 30.0000000  0  5G16G25G20G 1G11
  22677694.082    -5603662.29643  -4350472.17942  22677696.269    22677695.208
  22137123.838   -12335582.18443  -9461722.09642  22137125.911    22137123.702
  20438155.378   -18879576.54544 -13454224.83942  20438157.190    20438154.526
  21379510.586   -12352274.77844  -9611973.03942  21379512.564    21379510.993
  23517927.057    -2756713.25743  -2100544.69842  23517929.246    23517928.586
 04  5 21  1 33  0.0000000  0  5G16G25G20G 1G11
  22662627.829    -5682835.39543  -4412165.42142  22662630.001    22662629.104
  22151297.553   -12261098.44943  -9403682.85542  22151299.708    22151297.376
  20432323.692   -18910222.08344 -13478104.48142  20432325.498    20432322.924
  21371285.506   -12395497.24344  -9645652.85942  21371287.516    21371286.041
  23534203.789    -2671179.76643  -2033895.32942  23534205.846    23534205.091
 04  5 21  1 33 30.0000000  0  5G16G25G20G 1G11
  22647620.417    -5761699.06943  -4473617.55342  22647622.573    22647621.746
  22165512.911   -12186396.31843  -9345473.42742  22165515.022    22165512.699
  20426584.327   -18940382.79744 -13501606.33842  20426586.111    20426583.544
  21363093.371   -12438547.61744  -9679198.60342  21363095.289    21363093.802
  23550504.504    -2585519.00443  -1967146.80042  23550506.657    23550505.683
 04  5 21  1 34  0.0000000  0  5G16G25G20G 1G11
  22632672.209    -5840252.40643  -4534827.87742  22632674.261    22632673.354
  22179769.097   -12111479.67943  -9287096.86342  22179771.163    22179768.915
  20420937.081   -18970059.19044 -13524730.80442  20420938.871    20420936.292
  21354933.448   -12481427.98244  -9712611.84542  21354935.408    21354933.932
  23566828.679    -2499735.91243  -1900302.94742  23566830.837    23566829.957
 04  5 21  1 34 30.0000000  0  5G16G25G20G 1G11
  22617784.059    -5918490.34543  -4595792.43542  22617786.065    22617785.039
  22194066.028   -12036348.79643  -9228553.34742  22194068.118    22194065.877
  20415382.782   -18999247.54144 -13547474.97442  20415384.569    20415381.889
  21346806.351   -12524136.14544  -9745890.91942  21346808.330    21346806.747
  23583175.763    -2413831.25443  -1833364.31542  23583177.895    23583177.250
 04  5 21  1 35  0.0000000  0  5G16G25G20G 1G11
  22602955.387    -5996415.70043  -4656513.43442  22602957.355    22602956.127
  22208402.360   -11961011.13343  -9169848.70842  22208404.454    22208402.152
  20409920.490   -19027951.57944 -13569841.75742  20409922.327    20409919.680
  21338711.018   -12566677.59144  -9779040.08442  21338712.982    21338711.351
  23599544.620    -2327813.40943  -1766337.52242  23599546.800    23599545.839
 04  5 21  1 35 30.0000000  0  5G16G25G20G 1G11
  22588187.966    -6074017.80043  -4716982.51942  22588190.064    22588188.939
  22222778.969   -11885461.31543  -9110978.76042  22222781.055    22222778.843
  20404552.163   -19056162.26644 -13591824.11142  20404553.974    20404551.348
  21330648.820   -12609044.76544  -9812053.44542  21330650.754    21330649.123
  23615935.562    -2241677.84043  -1699218.98642  23615937.790    23615936.678
 04  5 21  1 36  0.0000000  0  5G16G25G20G 1G11
  22573482.152    -6151297.39343  -4777200.31542  22573484.233    22573483.025
  22237195.042   -11809705.19243  -9051948.04942  22237197.080    22237194.798
  20399277.312   -19083881.74944 -13613423.71442  20399279.126    20399276.463
  21322619.081   -12651241.25444  -9844933.80242  21322621.069    21322619.436
  23632347.811    -2155430.86543  -1632013.66942  23632349.854    23632349.025
 04  5 21  1 36 30.0000000  0  5G16G25G20G 1G11
  22558838.170    -6228251.04543  -4837164.12842  22558840.261    22558839.145
  22251649.949   -11733744.52243  -8992757.95342  22251652.044    22251649.761
  20394096.386   -19111107.84944 -13634638.85542  20394098.193    20394095.545
  21314622.007   -12693266.39244  -9877680.64842  21314623.973    21314622.250
  23648780.801    -2069075.00443  -1564723.48542  23648782.880    23648782.123
 04  5 21  1 37  0.0000000  0  5G16G25G20G 1G11
  22544256.879    -6304876.33543  -4896872.07542  22544258.925    22544257.779
  22266143.418   -11657581.44243  -8933410.12542  22266145.531    22266143.186
  20389009.561   -19137839.38844 -13655468.62242  20389011.356    20389008.738
  21306657.401   -12735120.41644  -9910294.15742  21306659.446    21306657.682
  23665234.010    -1982613.43943  -1497350.92642  23665236.116    23665235.371
 04  5 21  1 37 30.0000000  0  5G16G25G20G 1G11
  22529739.095    -6381167.25643  -4956319.47542  22529741.204    22529739.966
  22280675.472   -11581215.08743  -8873903.91442  22280677.631    22280675.217
  20384017.728   -19164071.96744 -13675909.59242  20384019.527    20384016.856
  21298725.957   -12776800.41044  -9942772.05342  21298727.976    21298726.266
  23681707.248    -1896046.37143  -1429896.18242  23681709.380    23681708.692
 04  5 21  1 38  0.0000000  0  5G16G25G20G 1G11
  22515284.797    -6457125.03343  -5015507.29242  22515286.906    22515285.419
  22295245.006   -11504651.36743  -8814243.90142  22295247.265    22295244.665
  20379120.316   -19189807.96044 -13695963.61642  20379122.149    20379119.454
  21290826.751   -12818310.06643  -9975117.22342  21290828.829    21290827.188
  23698199.207    -1809380.57743  -1362364.48542  23698201.362    23698200.914
 04  5 21  1 38 30.0000000  0  5G16G25G20G 1G11
  22500894.524    -6532746.08743  -5074432.72442  22500896.623    22500895.126
  22309851.921   -11427891.71443  -8754431.21942  22309854.139    22309851.556
  20374317.806   -19215045.20944 -13715629.00142  20374319.603    20374316.982
  21282960.291   -12859648.52544 -10007328.99442  21282962.312    21282960.753
  23714709.853    -1722617.91343  -1294757.32342  23714711.918    23714711.467
 04  5 21  1 39  0.0000000  0  5G16G25G20G 1G11
  22486569.223    -6608026.40643  -5133092.64942  22486571.228    22486569.687
  22324495.868   -11350937.00443  -8694466.54342  22324498.137    22324495.566
  20369610.718   -19239781.09444 -13734903.71642  20369612.542    20369609.845
  21275126.668   -12900814.59244 -10039406.43542  21275128.648    21275127.145
  23731238.364    -1635760.55943  -1227076.39242  23731240.436    23731239.818
 04  5 21  1 39 30.0000000  0  5G16G25G20G 1G11
  22472309.058    -6682963.93043  -5191485.46042  22472311.119    22472309.582
  22339176.467   -11273790.10343  -8634352.10142  22339178.713    22339176.068
  20364999.190   -19264014.83644 -13753787.15342  20365000.984    20364998.310
  21267325.760   -12941808.88244 -10071350.03342  21267327.744    21267326.091
  23747784.185    -1548812.03943  -1159324.37542  23747786.276    23747785.672
 04  5 21  1 40  0.0000000  0  5G16G25G20G 1G11
  22458115.131    -6757553.46243  -5249607.12042  22458117.185    22458115.554
  22353893.679   -11196450.69443  -8574087.66342  22353895.884    22353893.304
  20360483.942   -19287742.65644 -13772276.36642  20360485.744    20360483.081
  21259557.909   -12982629.07344 -10103157.95442  21259559.900    21259558.192
  23764347.166    -1461772.76443  -1091501.65742  23764349.359    23764348.733
 04  5 21  1 40 30.0000000  0  5G16G25G20G 1G11
  22443987.696    -6831793.81643  -5307456.69342  22443989.757    22443988.023
  22368646.800   -11118922.31143  -8513675.97642  22368648.991    22368646.499
  20356064.998   -19310964.87044 -13790371.60142  20356066.758    20356064.073
  21251822.988   -13023276.71744 -10134831.43942  21251824.963    21251823.178
  23780926.776    -1374647.16043  -1023611.67242  23780928.869    23780928.299
 04  5 21  1 41  0.0000000  0  5G16G25G20G 1G11
  22429926.477    -6905685.30743  -5365034.41242  22429928.585    22429926.998
  22383434.896   -11041210.44943  -8453121.31742  22383437.085    22383434.581
  20351741.826   -19333682.96744 -13808074.01742  20351743.638    20351740.929
  21244120.280   -13063754.71044 -10166372.71942  21244122.288    21244120.428
  23797521.657    -1287441.37643   -955659.23542  23797523.678    23797523.160
 04  5 21  1 41 30.0000000  0  5G16G25G20G 1G11
  22415933.570    -6979218.29343  -5422332.78242  22415935.650    22415934.129
  22398258.834   -10963310.07543  -8392419.77042  22398261.032    22398258.650
  20347516.207   -19355888.67044 -13825377.16142  20347518.019    20347515.384
  21236451.150   -13104056.03644 -10197776.33442  21236453.181    21236451.360
  23814132.439    -1200151.30243   -887641.05742  23814134.530    23814134.325
 04  5 21  1 42  0.0000000  0  5G16G25G20G 1G11
  22402008.533    -7052393.57743  -5479352.42442  22402010.801    22402009.367
  22413117.637   -10885226.71043  -8331575.63042  22413119.799    22413117.540
  20343387.697   -19377584.33744 -13842282.87542  20343389.484    20343386.811
  21228814.974   -13144184.29644 -10229045.10142  21228816.982    21228815.181
  23830757.951    -1112783.71143   -819562.51242  23830760.067    23830759.917
 04  5 21  1 42 30.0000000  0  5G16G25G20G 1G11
  22388151.986    -7125210.09943  -5536092.50142  22388154.166    22388152.848
  22428010.659   -10806964.29443  -8270591.96442  22428012.765    22428010.454
  20339356.098   -19398770.43444 -13858791.51642  20339357.908    20339355.182
  21221211.423   -13184141.16644 -10260180.31442  21221213.421    21221211.586
  23847397.252    -1025343.07643   -751427.07742  23847399.479    23847399.106
 04  5 21  1 43  0.0000000  0  5G16G25G20G 1G11
  22374364.703    -7197662.40543  -5592548.80442  22374366.820    22374365.569
  22442937.809   -10728522.22643  -8209468.32442  22442939.916    22442937.587
  20335422.253   -19419442.78644 -13874899.84842  20335424.076    20335421.323
  21213640.948   -13223923.71144 -10291179.68542  21213642.972    21213641.267
  23864050.564     -937829.44343   -683234.71442  23864052.746    23864052.613
 04  5 21  1 43 30.0000000  0  5G16G25G20G 1G11
  22360647.226    -7269748.52043  -5648719.73442  22360649.250    22360648.032
  22457898.462   -10649903.45643  -8148206.98242  22457900.663    22457898.256
  20331586.303   -19439600.85344 -13890607.43642  20331588.118    20331585.395
  21206103.623   -13263532.63044 -10322043.76242  21206105.574    21206103.935
  23880717.243     -850246.76543   -614988.57942  23880719.427    23880719.073
 04  5 21  1 44  0.0000000  0  5G16G25G20G 1G11
  22347000.117    -7341463.92043  -5704601.81042  22347002.190    22347000.914
  22472892.730   -10571107.89043  -8086807.87042  22472894.932    22472892.566
  20327848.771   -19459241.48144 -13905911.82242  20327850.577    20327847.921
  21198599.708   -13302966.03744 -10352771.08842  21198601.622    21198600.001
  23897396.694     -762595.76143   -546689.20742  23897398.901    23897398.589
 04  5 21  1 44 30.0000000  0  5G16G25G20G 1G11
  22333423.551    -7412809.62243  -5760195.80142  22333425.598    22333424.262
  22487919.665   -10492141.34743  -8025275.54142  22487921.822    22487919.436
  20324209.297   -19478367.15944 -13920814.95442  20324211.087    20324208.470
  21191128.444   -13342227.58844 -10383364.48942  21191130.381    21191128.776
  23914087.792     -674883.42643   -478342.00242  23914090.099    23914089.981
 04  5 21  1 45  0.0000000  0  5G16G25G20G 1G11
  22319918.349    -7483779.31643  -5815496.78742  22319920.497    22319919.279
  22502979.366   -10413002.30443  -7963608.79842  22502981.520    22502979.031
  20320668.653   -19496973.10644 -13935313.09642  20320670.459    20320667.868
  21183690.640   -13381313.52744 -10413821.06142  21183692.577    21183690.892
  23930791.013     -587108.94943   -409946.47942  23930793.166    23930792.668
 04  5 21  1 45 30.0000000  0  5G16G25G20G 1G11
  22306485.742    -7554367.72843  -5870500.68742  22306487.911    22306486.608
  22518071.834   -10333690.19243  -7901807.19442  22518074.026    22518071.624
  20317227.774   -19515055.57444 -13949403.34042  20317229.564    20317226.860
  21176286.784   -13420221.14444 -10444138.67242  21176288.737    21176287.023
  23947505.556     -499272.44543   -341502.54742  23947507.773    23947507.552
 04  5 21  1 46  0.0000000  0  5G16G25G20G 1G11
  22293124.344    -7624582.13343  -5925213.15142  22293126.501    22293125.130
  22533195.054   -10254216.95143  -7839880.01942  22533197.266    22533194.861
  20313884.761   -19532623.04644 -13963092.28742  20313886.560    20313883.858
  21168915.001   -13458960.41744 -10474325.11942  21168916.974    21168915.145
  23964229.968     -411386.81643   -273020.37142  23964232.050    23964231.711
 04  5 21  1 46 30.0000000  0  5G16G25G20G 1G11
  22279836.701    -7694409.06043  -5979623.69642  22279838.790    22279837.312
  22548350.660   -10174574.01543  -7777820.63442  22548352.793    22548350.463
  20310642.039   -19549663.62744 -13976370.66942  20310643.816    20310641.131
  21161577.259   -13497520.37544 -10504371.82942  21161579.281    21161577.437
  23980964.773     -323444.34643   -204493.93642  23980966.919    23980966.531
 04  5 21  1 47  0.0000000  0  5G16G25G20G 1G11
  22266622.269    -7763851.36043  -6033734.51642  22266624.311    22266622.905
  22563537.240   -10094768.85843  -7715634.83842  22563539.328    22563536.946
  20307498.753   -19566181.65344 -13989241.86442  20307500.533    20307497.817
  21154272.645   -13535906.25644 -10534282.89642  21154274.636    21154272.838
  23997709.098     -235453.32443   -135929.64242  23997711.131    23997710.961
 04  5 21  1 47 30.0000000  0  5G16G25G20G 1G11
  22253481.479    -7832905.67743  -6087542.99842  22253483.520    22253482.351
  22578754.211   -10014802.80543  -7653323.68042  22578756.346    22578754.076
  20304455.282   -19582175.15544 -14001704.33742  20304457.071    20304454.349
  21147001.332   -13574117.31444 -10564057.73842  21147003.302    21147001.439
  24014462.098     -147415.87343    -67329.11642  24014464.040    24014464.317
 04  5 21  1 48  0.0000000  0  5G16G25G20G 1G11
  22240415.704    -7901566.70543  -6141045.05342  22240417.674    22240416.494
  22594002.220    -9934674.71143  -7590886.24442  22594004.346    22594002.095
  20301512.367   -19597640.34944 -14013755.14442  20301514.138    20301511.463
  21139763.827   -13612150.72144 -10593694.15342  21139765.786    21139763.929
  24031224.152      -59332.11943      1307.45942  24031226.067    24031226.177
 04  5 21  1 48 30.0000000  0  5G16G25G20G 1G11
  22227424.816    -7969834.32243  -6194240.54442  22227426.749    22227425.668
  22609279.996    -9854389.63043  -7528326.47142  22609282.120    22609279.854
  20298669.771   -19612578.51844 -14025395.28642  20298671.544    20298668.879
  21132559.622   -13650008.90344 -10623194.02542  21132561.602    21132559.786
  24047993.629       28792.43643     69975.81242  24047995.566    24047995.828
 04  5 21  1 49  0.0000000  0  5G16G25G20G 1G11
  22214509.606    -8037703.93643  -6247125.90142  22214511.584    22214510.437
  22624587.589    -9773947.34943  -7465644.22042  22624589.749    22624587.473
  20295928.052   -19626986.69344 -14036622.44342  20295929.810    20295927.175
  21125389.225   -13687689.76944 -10652555.73242  21125391.167    21125389.380
  24064770.664      116957.02343    138675.37242  24064772.723    24064773.098
 04  5 21  1 49 30.0000000  0  5G16G25G20G 1G11
  22201670.379    -8105174.26343  -6299700.12442  22201672.404    22201671.227
  22639924.556    -9693351.45343  -7402842.27142  22639926.664    22639924.354
  20293287.068   -19640865.21644 -14047436.88842  20293288.890    20293286.200
  21118252.252   -13725194.51544 -10681780.19442  21118254.212    21118252.451
  24081554.925      205157.23643    207402.72042  24081556.906    24081557.145
 04  5 21  1 50  0.0000000  0  5G16G25G20G 1G11
  22188907.571    -8172243.78043  -6351962.03642  22188909.619    22188908.170
  22655290.052    -9612604.50543  -7339922.61342  22655292.277    22655290.005
  20290746.882   -19654213.88744 -14057838.45442  20290748.714    20290746.003
  21111148.722   -13762523.92744 -10710868.03042  21111150.685    21111148.955
  24098345.255      293389.50243    276154.98342  24098347.280    24098347.513
 04  5 21  1 50 30.0000000  0  5G16G25G20G 1G11
  22176221.923    -8238907.10643  -6403907.42742  22176224.033    22176222.323
  22670684.643    -9531706.09843  -7276884.93342  22670686.790    22670684.591
  20288308.247   -19667028.96544 -14067824.24542  20288310.097    20288307.353
  21104079.055   -13799675.10644 -10739816.98042  21104081.025    21104079.312
  24115141.283      381653.27443    344931.81442  24115143.424    24115143.676
 04  5 21  1 51  0.0000000  0  5G16G25G20G 1G11
  22163613.730    -8305162.81743  -6455535.19542  22163615.887    22163614.169
  22686107.227    -9450659.19143  -7213731.54442  22686109.506    22686107.437
  20285971.173   -19679310.38944 -14077394.19442  20285973.050    20285970.290
  21097043.120   -13836648.89444 -10768627.69742  21097045.132    21097043.467
  24131942.941      469944.96343    413730.40542  24131945.060    24131944.861
 04  5 21  1 51 30.0000000  0  5G16G25G20G 1G11
  22151083.859    -8371008.44643  -6506843.42042  22151085.953    22151084.082
  22701557.882    -9369466.22043  -7150464.33642  22701560.042    22701558.056
  20283735.848   -19691057.18744 -14086547.55442  20283737.732    20283734.918
  21090041.053   -13873445.37344 -10797300.25842  21090042.999    21090041.282
  24148749.141      558261.30443    482548.14642  24148751.318    24148751.090
 04  5 21  1 52  0.0000000  0  5G16G25G20G 1G11
  22138632.711    -8436438.87743  -6557828.12442  22138634.927    22138632.959
  22717036.396    -9288125.84543  -7087082.26642  22717038.584    22717036.682
  20281602.919   -19702265.82944 -14095281.56942  20281604.811    20281601.997
  21083073.129   -13910061.66144 -10825832.40342  21083075.092    21083073.426
  24165559.879      646602.29843    551385.17142  24165561.989    24165561.997
 04  5 21  1 52 30.0000000  0  5G16G25G20G 1G11
  22126260.977    -8501453.25843  -6608488.61042  22126263.140    22126261.042
  22732542.191    -9206641.90743  -7023588.31942  22732544.379    22732542.443
  20279572.261   -19712937.04644 -14103596.81742  20279574.139    20279571.324
  21076139.267   -13946499.35544 -10854225.38542  21076141.232    21076139.521
  24182374.406      734963.35743    620237.84942  24182376.529    24182376.796
 04  5 21  1 53  0.0000000  0  5G16G25G20G 1G11
  22113967.972    -8566052.49943  -6658825.62842  22113970.192    22113968.164
  22748074.582    -9125019.95443  -6959986.84042  22748076.651    22748074.540
  20277643.387   -19723073.37244 -14111495.26142  20277645.256    20277642.470
  21069238.745   -13982761.81244 -10882481.82142  21069240.705    21069239.034
  24199191.514      823338.27943    689101.28842  24199193.578    24199194.306
 04  5 21  1 53 30.0000000  0  5G16G25G20G 1G11
  22101755.564    -8630228.91143  -6708833.15442  22101757.702    22101755.714
  22763633.639    -9043256.43743  -6896275.04642  22763635.809    22763633.650
  20275817.552   -19732668.50544 -14118971.99942  20275819.409    20275816.576
  21062372.559   -14018843.44644 -10910597.35942  21062374.573    21062372.875
  24216012.121      911729.38243    757977.33142  24216013.984    24216014.394
 04  5 21  1 54  0.0000000  0  5G16G25G20G 1G11
  22089623.585    -8693982.53243  -6758511.23142  22089625.713    22089623.850
  22779218.908    -8961356.01743  -6832456.57642  22779220.992    22779218.922
  20274094.377   -19741723.85544 -14126028.12242  20274096.236    20274093.421
  21055540.424   -14054746.65044 -10938573.85342  21055542.418    21055540.720
  24232834.538     1000131.52943    826861.97242  24232836.511    24232836.719
 04  5 21  1 54 30.0000000  0  5G16G25G20G 1G11
  22077573.127    -8757308.12343  -6807855.79542  22077575.240    22077573.375
  22794830.212    -8879317.78143  -6768530.71742  22794832.360    22794830.429
  20272474.555   -19750235.92744 -14132660.91442  20272476.415    20272473.645
  21048742.814   -14090468.55644 -10966409.08742  21048744.831    21048742.999
  24249658.741     1088544.38543    895755.00942  24249660.984    24249661.358
 04  5 21  1 55  0.0000000  0  5G16G25G20G 1G11
  22065603.267    -8820210.00643  -6856870.20042  22065605.354    22065603.504
  22810466.083    -8797150.75543  -6704504.50542  22810468.171    22810466.315
  20270956.965   -19758210.85644 -14138875.15142  20270958.802    20270956.096
  21041978.430   -14126015.58244 -10994108.05242  21041980.444    21041978.579
  24266483.895     1176958.49243    964648.91142  24266485.956    24266486.205
 04  5 21  1 55 30.0000000  0  5G16G25G20G 1G11
  22053716.933    -8882672.87043  -6905542.49642  22053718.978    22053717.158
  22826128.499    -8714844.07343  -6640369.46642  22826130.536    22826128.755
  20269544.299   -19765634.60444 -14144659.89442  20269546.119    20269543.401
  21035249.689   -14161374.86944 -11021660.71242  21035251.707    21035249.909
  24283310.383     1265383.76943   1033551.61242  24283312.314    24283313.173
 04  5 21  1 56  0.0000000  0  5G16G25G20G 1G11
  22041912.103    -8944707.19443  -6953880.87242  22041914.173    22041912.355
  22841814.741    -8632412.14543  -6576136.82542  22841816.733    22841815.088
  20268234.202   -19772519.12844 -14150024.46542  20268236.042    20268233.310
  21028554.381   -14196558.99244 -11049076.88842  21028556.371    21028554.608
  24300136.715     1353804.56643   1102450.78242  24300138.386    24300139.145
 04  5 21  1 56 30.0000000  0  5G16G25G20G 1G11
  22030190.678    -9006303.20443  -7001877.71342  22030192.782    22030190.912
  22857525.835    -8549849.61543  -6511802.42242  22857527.809    22857526.351
  20267028.260   -19778856.47944 -14154962.67142  20267030.101    20267027.327
  21021893.758   -14231560.58644 -11076350.83542  21021895.755    21021894.011
  24316962.586     1442225.26843   1171349.95042  24316964.612    24316965.294
 04  5 21  1 57  0.0000000  0  5G16G25G20G 1G11
  22018552.493    -9067462.15543  -7049533.98342  22018554.568    22018552.681
  22873260.941    -8467161.91243  -6447370.48242  22873262.824    22873261.335
  20265925.907   -19784649.44844 -14159476.67942  20265927.754    20265924.969
  21015267.289   -14266383.12244 -11103485.26542  21015269.245    21015267.399
  24333787.596     1530639.73143   1240244.11542  24333789.617    24333789.879
 04  5 21  1 57 30.0000000  0  5G16G25G20G 1G11
  22006998.601    -9128177.90243  -7096844.89942  22007000.739    22006998.811
  22889020.042    -8384347.22343  -6382839.58642  22889022.056    22889020.386
  20264928.068   -19789893.50044 -14163562.96142  20264929.847    20264927.088
  21008675.622   -14301022.28344 -11130476.79942  21008677.615    21008675.779
  24350611.289     1619048.60143   1309133.97642  24350613.227    24350613.597
 04  5 21  1 58  0.0000000  0  5G16G25G20G 1G11
  21995529.518    -9188448.35043  -7143808.83242  21995531.635    21995529.648
  22904802.910    -8301407.88943  -6318211.57442  22904804.923    22904803.186
  20264034.788   -19794588.12044 -14167221.11042  20264036.544    20264033.740
  21002118.856   -14335478.29944 -11157325.62142  21002120.837    21002119.049
  24367433.091     1707449.01243   1378017.32542  24367435.052    24367436.140
 04  5 21  1 58 30.0000000  0  5G16G25G20G 1G11
  21984144.772    -9248275.58543  -7190427.41542  21984146.875    21984144.827
  22920608.396    -8218349.97943  -6253491.14242  22920610.403    22920608.620
  20263245.283   -19798736.65244 -14170453.73242  20263247.069    20263244.336
  20995596.162   -14369755.39644 -11184035.02842  20995598.183    20995596.281
  24384252.412     1795833.82543   1446888.51042  24384254.445    24384255.687
 04  5 21  1 59  0.0000000  0  5G16G25G20G 1G11
  21972845.721    -9307652.50343  -7236695.09442  21972847.836    21972845.760
  22936436.864    -8135170.59643  -6188676.07542  22936438.868    22936437.220
  20262560.722   -19802333.96844 -14173256.83642  20262562.520    20262559.817
  20989108.450   -14403848.68744 -11210601.21542  20989110.480    20989108.528
  24401069.088     1884204.95543   1515748.97542  24401071.223    24401072.244
 04  5 21  1 59 30.0000000  0  5G16G25G20G 1G11
  21961632.117    -9366579.52743  -7282612.19142  21961634.325    21961632.318
  22952287.582    -8051874.16343  -6123769.81742  22952289.589    22952288.103
  20261980.700   -19805381.79144 -14175631.76742  20261982.485    20261979.816
  20982655.204   -14437760.55744 -11237026.03542  20982657.243    20982655.277
  24417882.245     1972557.01543   1584594.51742  24417884.371    24417884.380
 04  5 21  2  0  0.0000000  0  5G16G25G20G 1G11
  21950505.771    -9425049.09043  -7328172.83242  21950507.888    21950505.883
  22968161.191    -7968457.98443  -6058770.22442  22968163.204    22968161.682
  20261506.355   -19807874.53744 -14177574.17242  20261508.147    20261505.488
  20976237.512   -14471485.61744 -11263305.28942  20976239.532    20976237.613
  24434691.824     2060891.80443   1653426.64642  24434693.997    24434693.858
 04  5 21  2  0 30.0000000  0  5G16G25G20G 1G11
  21939465.733    -9483064.70143  -7373379.73442  21939467.789    21939465.822
  22984056.214    -7884929.70243  -5993683.28642  22984058.229    22984056.587
  20261136.697   -19809817.06144 -14179087.83142  20261138.487    20261135.859
  20969854.400   -14505029.33044 -11289443.23442  20969856.386    20969854.400
  24451496.637     2149201.50743   1722239.27042  24451498.658    24451499.098
 04  5 21  2  1  0.0000000  0  5G16G25G20G 1G11
  21928512.891    -9540620.99243  -7418228.73042  21928515.070    21928513.202
  22999972.858    -7801287.79643  -5928507.80542  22999974.889    22999973.219
  20260872.451   -19811205.79344 -14180169.96442  20260874.216    20260871.646
  20963506.361   -14538388.24744 -11315437.18842  20963508.373    20963506.393
  24468296.897     2237486.46143   1791032.56942  24468299.056    24468299.693
 04  5 21  2  1 30.0000000  0  5G16G25G20G 1G11
  21917648.035    -9597716.18943  -7462718.44442  21917650.086    21917648.292
  23015910.589    -7717534.58443  -5863245.60442  23015912.658    23015910.991
  20260713.704   -19812040.50744 -14180820.40042  20260715.473    20260712.813
  20957193.489   -14571562.77644 -11341287.46742  20957195.471    20957193.474
  24485091.740     2325743.23143   1859803.96942  24485093.968    24485094.514
 04  5 21  2  2  0.0000000  0  5G16G25G20G 1G11
  21906870.647    -9654351.41443  -7506849.74142  21906872.671    21906870.902
  23031868.527    -7633674.96843  -5797900.48142  23031870.707    23031868.931
  20260659.727   -19812323.82944 -14181041.17342  20260661.554    20260658.898
  20950915.107   -14604555.82844 -11366996.32742  20950917.073    20950915.029
  24501879.855     2413965.75943   1928548.66442  24501882.093    24501882.608
 04  5 21  2  2 30.0000000  0  5G16G25G20G 1G11
  21896182.799    -9710516.08443  -7550614.36242  21896184.800    21896183.159
  23047848.105    -7549702.58043  -5732467.48842  23047850.176    23047848.354
  20260712.363   -19812046.94644 -14180825.42742  20260714.179    20260711.602
  20944672.759   -14637359.13644 -11392557.34042  20944674.769    20944672.718
  24518662.706     2502159.38643   1997270.81242  24518664.718    24518665.504
 04  5 21  2  3  0.0000000  0  5G16G25G20G 1G11
  21885583.369    -9766217.15743  -7594017.72842  21885585.326    21885583.572
  23063846.772    -7465628.46143  -5666955.23142  23063848.958    23063847.154
  20260870.003   -19811218.55944 -14180179.93842  20260871.817    20260869.225
  20938464.946   -14669981.57344 -11417977.40542  20938466.934    20938464.895
  24535438.078     2590312.63843   2065961.49242  24535439.984    24535440.486
 04  5 21  2  3 30.0000000  0  5G16G25G20G 1G11
  21875073.818    -9821444.51043  -7637051.96542  21875075.900    21875074.008
  23079866.054    -7381446.59243  -5601359.02442  23079868.160    23079866.473
  20261134.243   -19809829.95744 -14179097.92242  20261136.060    20261133.458
  20932293.103   -14702414.84044 -11443250.06842  20932295.080    20932293.067
  24552206.348     2678430.37643   2134624.51842  24552208.283    24552208.876
 04  5 21  2  4  0.0000000  0  5G16G25G20G 1G11
  21864654.278    -9876199.41043  -7679718.06842  21864656.342    21864654.398
  23095904.762    -7297161.96643  -5535682.72942  23095906.909    23095905.340
  20261504.473   -19807884.35744 -14177581.87442  20261506.306    20261503.665
  20926156.584   -14734662.17944 -11468377.84942  20926158.595    20926156.630
  24568966.715     2766506.42143   2203255.11042  24568968.535    24568968.887
 04  5 21  2  4 30.0000000  0  5G16G25G20G 1G11
  21854325.095    -9930478.95743  -7722013.77142  21854327.177    21854325.235
  23111963.031    -7212775.79043  -5469927.30142  23111965.194    23111963.564
  20261981.043   -19805380.14444 -14175630.54742  20261982.858    20261980.210
  20920055.754   -14766722.42544 -11493359.84742  20920057.750    20920055.738
  24585718.802     2854538.95943   2271851.74342  24585720.727    24585721.318
 04  5 21  2  5  0.0000000  0  6G16G13G25G20G 1G11
  21844086.991    -9984280.52443  -7763937.00942  21844089.023    21844087.078
  23503635.206
  23128040.213    -7128289.68143  -5404094.00242  23128042.408    23128040.805
  20262563.998   -19802316.64144 -14173243.40642  20262565.829    20262563.139
  20913990.586   -14798594.79644 -11518195.45042  20913992.571    20913990.589
  24602462.097     2942525.75443   2340412.70242  24602464.022    24602465.063
 04  5 21  2  5 30.0000000  0  6G16G13G25G20G 1G11
  21833940.328   -10037601.09743  -7805485.45342  21833942.369    21833940.526
  23488838.110
  23144136.400    -7043704.32443  -5338183.36442  23144138.525    23144136.875
  20263253.771   -19798692.22744 -14170419.19442  20263255.606    20263252.844
  20907961.416   -14830278.03444 -11542883.67342  20907963.418    20907961.475
  24619196.530     3030464.80243   2408936.45742  24619198.521    24619199.261
 04  5 21  2  6  0.0000000  0  6G16G13G25G20G 1G11
  21823884.847   -10090443.71143  -7846661.46242  21823886.799    21823884.878
  23474052.449
  23160250.116    -6959026.57543  -5272200.74142  23160252.300    23160250.457
  20264049.274   -19794511.71844 -14167161.66742  20264051.101    20264048.385
  20901967.326   -14861777.12744 -11567428.41642  20901969.307    20901967.384
  24635920.283     3118348.22743   2477416.88442  24635922.289    24635923.316
 04  5 21  2  6 30.0000000  0  6G16G13G25G20G 1G11
  21813921.525   -10142800.92043  -7887459.23642  21813923.506    21813921.495
  23459278.225    -1563670.72753  -1070238.93952  23459280.760    23459279.097
  23176382.146    -6874252.71243  -5206143.22842  23176384.313    23176382.344
  20264951.710   -19789769.54944 -14163466.48242  20264953.535    20264950.832
  20896009.331   -14893086.44344 -11591825.27542  20896011.300    20896009.429
  24652634.107     3206179.24243   2545856.54442  24652636.006    24652636.968
 04  5 21  2  7  0.0000000  0  6G16G13G25G20G 1G11
  21804050.752   -10194672.02043  -7927878.22742  21804052.780    21804050.697
  23444515.481    -1641247.70643  -1130688.38642  23444518.058    23444516.443
  23192531.744    -6789385.84443  -5140013.24042  23192533.921    23192532.010
  20265960.792   -19784466.47944 -14159334.22642  20265962.634    20265959.951
  20890087.278   -14924207.13744 -11616075.16242  20890089.212    20890087.301
  24669337.075     3293953.35943   2614251.73742  24669338.893    24669340.064
 04  5 21  2  7 30.0000000  0  7G16G13G25G20G 4G 1G11
  21794272.206   -10246058.04643  -7967919.23942  21794274.287    21794272.165
  23429763.539    -1718766.51943  -1191092.55642  23429766.697    23429764.863
  23208698.226    -6704431.05343  -5073814.72342  23208700.358    23208698.338
  20267076.173   -19778605.17344 -14154766.97842  20267077.977    20267075.382
  24361608.651
  20884200.522   -14955141.94844 -11640180.19942  20884202.480    20884200.632
  24686028.219     3381664.74543   2682598.15442  24686030.010    24686030.747
 04  5 21  2  8  0.0000000  0  7G16G13G25G20G 4G 1G11
  21784587.895   -10296949.46543  -8007574.84742  21784589.974    21784587.890
  23415025.219    -1796219.12243  -1251445.17742  23415028.348    23415025.537
  23224882.135    -6619382.59043  -5007543.22842  23224884.405    23224882.456
  20268299.214   -19772177.92244 -14149758.74042  20268301.016    20268298.472
  24355880.393
  20878350.664   -14985882.94644 -11664134.21442  20878352.634    20878350.832
  24702708.426     3469318.43543   2750899.59742  24702710.105    24702711.359
 04  5 21  2  8 30.0000000  0  7G16G13G25G20G 4G 1G11
  21774997.227   -10347348.84643  -8046847.04342  21774999.261    21774997.188
  23400298.263    -1873609.89143  -1311749.56642  23400301.232    23400298.461
  23241083.049    -6534246.68743  -4941203.61342  23241085.168    23241083.223
  20269629.199   -19765188.57944 -14144312.50342  20269630.996    20269628.517
  24350255.808
  20872536.942   -15016434.40244 -11687940.53042  20872538.900    20872537.053
  24719375.543     3556907.20043   2819150.34642  24719377.274    24719379.076
 04  5 21  2  9  0.0000000  0  7G16G13G25G20G 4G 1G11
  21765500.438   -10397254.46643  -8085734.51142  21765502.456    21765500.344
  23385582.974                    -1372006.03042  23385583.375
  23257300.288    -6449025.08243  -4874797.20842  23257302.327    23257300.390
  20271066.138   -19757637.52743 -14138428.57242  20271067.901    20271065.408
  24344729.989
  20866759.258   -15046796.30444 -11711599.14142  20866761.228    20866759.391
  24736030.331     3644427.76843   2887348.05242  24736032.027    24736034.049
 04  5 21  2  9 30.0000000  0  6G16G13G25G20G 4G 1
  21756102.203   -10446642.87443  -8124218.93542  21756104.168    21756101.994
  23370883.443    -2028184.95643  -1432197.52442  23370886.923    23370883.980
  23273537.194    -6363698.31443  -4808308.84842  23273539.443    23273537.568
  20272614.103   -19749502.92344 -14132089.92342  20272615.876    20272613.357
  24339307.161    -1308562.99453   -970476.06452  24339308.940    24339308.218
  20861021.763   -15076947.06144 -11735093.21842  20861023.748    20861021.933
 04  5 21  2 10  0.0000000  0  6G16G13G25G20G 4G 1
  21746795.076   -10495551.99543  -8162329.89742  21746797.058    21746794.803
  23356192.163    -2105387.08343  -1492354.96042  23356195.490    23356193.052
  23289786.466    -6278308.14543  -4741771.10242  23289788.642    23289786.850
  20274265.644   -19740824.52444 -14125327.55042  20274267.391    20274264.834
  24333979.442    -1336559.28843   -992291.36142  24333981.192    24333980.530
  20855316.936   -15106926.19644 -11758453.57342  20855318.948    20855317.076
 04  5 21  2 10 30.0000000  0  6G16G13G25G20G 4G 1
  21737584.272   -10543955.02843  -8200046.50542  21737586.283    21737583.913
  23341513.794    -2182520.19743  -1552458.65442  23341517.018    23341514.927
  23306052.291    -6192831.61543  -4675166.05042  23306054.426    23306052.650
  20276025.373   -19731577.03744 -14118121.72642  20276027.162    20276024.603
  24328751.184    -1364030.76843  -1013697.71542  24328753.549    24328752.882
  20849649.560   -15136708.50044 -11781660.55542  20849651.560    20849649.645
 04  5 21  2 11  0.0000000  0  6G16G13G25G20G 4G 1
  21728468.462   -10591859.12543  -8237374.32642  21728470.518    21728467.946
  23326847.056    -2259593.33753  -1612515.57152  23326850.065    23326848.479
  23322332.500    -6107279.02443  -4608501.73442  23322334.714    23322332.868
  20277891.704   -19721769.21944 -14110479.28242  20277893.493    20277891.000
  24323621.586    -1390985.58343  -1034701.47542  24323624.017    24323623.557
  20844018.014   -15166302.74844 -11804720.99742  20844020.014    20844018.014
 04  5 21  2 11 30.0000000  0  6G16G13G25G20G 4G 1
  21719448.335   -10639259.82743  -8274309.89842  21719450.448    21719447.828
  23312192.425    -2336603.69843  -1672523.65142  23312195.306    23312193.715
  23338627.448    -6021649.46943  -4541777.45842  23338629.634    23338627.757
  20279865.225   -19711398.66644 -14102398.33942  20279866.997    20279864.436
  24318591.128    -1417421.07143  -1055300.53642  24318593.673    24318593.052
  20838422.710   -15195705.98244 -11827632.59142  20838424.740    20838422.745
 04  5 21  2 12  0.0000000  0  6G16G13G25G20G 4G 1
  21710524.247   -10686155.73343  -8310852.11342  21710526.415    21710523.818
  23297549.840    -2413551.18343  -1732482.63442  23297552.458    23297551.240
  23354936.401    -5935945.25943  -4474995.00542  23354938.584    23354936.804
  20281945.820   -19700465.15944 -14093878.73542  20281947.597    20281944.975
  24313659.487    -1443336.98943  -1075494.74442  24313662.226    24313661.537
  20832863.714   -15224918.16144 -11850395.31442  20832865.762    20832863.852
 04  5 21  2 12 30.0000000  0  6G16G13G25G20G 4G 1
  21701698.145   -10732536.96143  -8346993.29242  21701700.324    21701697.743
  23282920.573    -2490427.54743  -1792386.26642  23282923.398    23282921.933
  23371260.717    -5850160.12943  -4408149.51242  23371262.918    23371261.222
  20284135.007   -19688960.62344 -14084914.16542  20284136.850    20284134.225
  24308828.171    -1468725.17043  -1095277.71642  24308830.938    24308830.313
  20827342.855   -15253930.81644 -11873002.56342  20827344.842    20827342.889
 04  5 21  2 13  0.0000000  0  6G16G13G25G20G 4G 1
  21692968.999   -10778408.80843  -8382737.54742  21692971.118    21692968.638
  23268303.628    -2567240.05943  -1852240.10542  23268306.333    23268304.910
  23387598.927    -5764302.94843  -4341247.84842  23387601.063    23387599.416
  20286431.481   -19676892.42144 -14075510.37642  20286433.308    20286430.755
  24304096.168    -1493592.65643  -1114655.00242  24304098.633    24304098.165
  20821858.521   -15282751.11344 -11895459.93042  20821860.535    20821858.568
 04  5 21  2 13 30.0000000  0  6G16G13G25G20G 4G 1
  21684337.616   -10823766.04443  -8418080.81042  21684339.767    21684337.465
  23253699.441    -2643984.48643  -1912040.92142  23253702.404    23253700.713
  23403950.982    -5678371.86043  -4274288.60542  23403953.152    23403951.641
  20288835.997   -19664256.82844 -14065664.46842  20288837.797    20288835.202
  24299463.831    -1517935.48843  -1133623.45442  24299466.500    24299466.076
  20816411.532   -15311375.08144 -11917764.30842  20816413.543    20816411.571
 04  5 21  2 14  0.0000000  0  6G16G13G25G20G 4G 1
  21675803.553   -10868612.86543  -8453026.34542  21675805.607    21675803.421
  23239107.456    -2720666.77943  -1971793.32342  23239110.352    23239108.374
  23420315.971    -5592374.72343  -4207277.90642  23420317.915    23420316.445
  20291347.381   -19651059.68944 -14055380.99742  20291349.132    20291346.571
  24294930.134    -1541759.33643  -1152187.48142  24294932.770    24294932.516
  20811000.852   -15339808.47344 -11939920.19342  20811002.836    20811000.919
 04  5 21  2 14 30.0000000  0  6G16G13G25G20G 4G 1
  21667368.871   -10912937.20343  -8487564.74442  21667370.820    21667368.800
  23224529.072    -2797276.57543  -2031489.19642  23224532.050    23224530.083
  23436694.873    -5506302.80443  -4140208.93342  23436696.830    23436695.486
  20293967.421   -19637290.94244 -14044652.11342  20293969.210    20293966.667
  24290497.397    -1565053.81843  -1170338.97942  24290500.036    24290499.475
  20805628.459   -15368040.69544 -11961919.30942  20805630.404    20805628.476
 04  5 21  2 15  0.0000000  0  6G16G13G25G20G 4G 1
  21659032.986   -10956742.67543  -8521698.84542  21659034.896    21659032.861
  23209963.545    -2873818.44043  -2091132.13942  23209966.402    23209964.439
  23453086.702    -5420163.05543  -4073087.12042  23453088.730    23453087.433
  20296695.405   -19622955.50444 -14033481.65042  20296697.193    20296694.602
  24286164.437    -1587823.55243  -1188081.60042  24286166.911    24286166.741
  20800293.467   -15396076.44644 -11983765.34842  20800295.428    20800293.408
 04  5 21  2 15 30.0000000  0  6G16G13G25G20G 4G 1
  21650795.706   -11000028.97543  -8555428.40042  21650797.697    21650795.678
  23195410.783    -2950293.68143  -2150723.16542  23195413.639    23195411.579
  23469490.857    -5333958.61743  -4005914.88442  23469492.958    23469491.615
  20299530.885   -19608055.09544 -14021870.95742  20299532.681    20299530.026
  24281931.141    -1610070.05243  -1205416.52542  24281933.295    24281933.011
  20794995.595   -15423916.90044 -12005459.20142  20794997.557    20794995.574
 04  5 21  2 16  0.0000000  0  6G16G13G25G20G 4G 1
  21642657.768   -11042794.57743  -8588752.20342  21642659.642    21642657.542
  23180870.719    -3026702.16143  -2210262.19742  23180873.591    23180871.462
  23485906.867    -5247691.37943  -3938693.70842  23485909.117    23485907.767
  20302473.842   -19592589.93444 -14009820.19342  20302475.651    20302472.972
  24277797.506    -1631793.37043  -1222343.83042  24277799.880    24277798.898
  20789734.794   -15451562.10344 -12027000.90942  20789736.757    20789734.832
 04  5 21  2 16 30.0000000  0  6G16G13G25G20G 4G 1
  21634620.011   -11085032.66843  -8621664.96942  21634621.970    21634619.726
  23166344.547    -3103038.49243  -2269744.98442  23166347.335    23166345.127
  23502335.675    -5161357.54043  -3871420.65242  23502337.759    23502336.669
  20305525.221   -19576554.63644 -13997325.16042  20305527.043    20305524.397
  24273764.007    -1652988.23143  -1238859.21942  24273766.616    24273765.911
  20784512.318   -15479006.41444 -12048386.06742  20784514.266    20784512.360
 04  5 21  2 17  0.0000000  0  6G16G13G25G20G 4G 1
  21626682.261   -11126746.24443  -8654169.02242  21626684.194    21626681.864
  23151831.142    -3179307.02443  -2329174.96142  23151833.874    23151831.790
  23518776.112    -5074963.70743  -3804100.83942  23518778.079    23518776.964
  20308684.268   -19559953.93644 -13984389.56442  20308686.084    20308683.439
  24269830.460    -1673658.72343  -1254966.02742  24269833.388    24269832.126
  20779327.280   -15506253.98244 -12069617.93142  20779329.244    20779327.323
 04  5 21  2 17 30.0000000  0  6G16G13G25G20G 4G 1
  21618845.272   -11167930.05143  -8686260.25742  21618847.202    21618844.802
  23137331.153    -3255503.71943  -2388548.92642  23137334.031    23137331.799
  23535228.049    -4988507.74743  -3736732.60942  23535230.137    23535229.045
  20311951.519   -19542784.46744 -13971010.76642  20311953.360    20311950.688
  24265997.544    -1693801.33443  -1270661.55642  24266000.490    24265999.534
  20774180.388   -15533300.89844 -12090693.44242  20774182.369    20774180.440
 04  5 21  2 18  0.0000000  0  6G16G13G25G20G 4G 1
  21611109.461   -11208582.33443  -8717937.32742  21611111.445    21611108.926
  23122845.039    -3331628.19343  -2447866.60342  23122847.991    23122845.744
  23551691.329    -4901991.14443  -3669317.12942  23551693.509    23551692.606
  20315327.017   -19525046.25744 -13957188.80042  20315328.849    20315326.214
  24262264.819    -1713415.88943  -1285945.55142  24262267.639    24262266.861
  20769071.837   -15560146.60944 -12111612.16942  20769073.793    20769071.893
 04  5 21  2 18 30.0000000  0  6G16G13G25G20G 4G 1
  21603473.966   -11248706.78343  -8749203.09742  21603476.053    21603473.481
  23108371.898    -3407685.53543  -2507132.02342  23108374.842    23108372.645
  23568165.290    -4815420.97043  -3601859.91542  23568167.175    23568166.390
  20318809.702   -19506744.68744 -13942927.84942  20318811.532    20318808.926
  24258631.939    -1732507.57743  -1300822.19542  24258634.466    24258634.334
  20764000.574   -15586796.29744 -12132378.15242  20764002.521    20764000.539
 04  5 21  2 19  0.0000000  0  5G16G13G25G20G 1
  21595939.415   -11288300.91343  -8780055.63342  21595941.465    21595938.953
  23093911.307    -3483674.45843  -2566344.07942  23093914.229    23093912.585
  23584649.339    -4728797.61243  -3534361.23742  23584651.192    23584650.158
  20322399.723   -19487878.77444 -13928227.15142  20322401.575    20322398.978
  20758966.946   -15613248.35944 -12152990.14442  20758968.904    20758966.880
 04  5 21  2 19 30.0000000  0  5G16G13G25G20G 1
  21588509.933   -11327343.08743  -8810478.06642  21588511.952    21588509.518
  23079468.087    -3559574.22643  -2625486.68142  23079470.891    23079469.301
  23601146.766    -4642102.72443  -3466806.83842  23601148.824    23601147.596
  20326101.025   -19468428.72144 -13913071.28142  20326102.837    20326100.184
  20753974.740   -15639482.36244 -12173432.21242  20753976.684    20753974.726
 04  5 21  2 20  0.0000000  0  5G16G13G25G20G 1
  21581180.097   -11365861.04143  -8840492.02142  21581182.158    21581179.781
  23065036.410    -3635414.13043  -2684582.64742  23065039.112    23065037.160
  23617652.058    -4555367.13143  -3399220.69542  23617654.234    23617652.884
  20329907.722   -19448424.11644 -13897483.29142  20329909.549    20329906.925
  20749018.544   -15665527.29244 -12193726.95342  20749020.442    20749018.533
 04  5 21  2 20 30.0000000  0  5G16G13G25G20G 1
  21573952.600   -11403841.46843  -8870087.12942  21573954.662    21573952.292
  23050618.164    -3711182.19043  -2743622.59842  23050620.964    23050618.918
  23634167.191    -4468580.69243  -3331594.97242  23634169.243    23634167.855
  20333822.186   -19427853.49044 -13881454.24342  20333824.004    20333821.388
  20744100.621   -15691371.16844 -12213865.03242  20744102.554    20744100.560
 04  5 21  2 21  0.0000000  0  5G16G13G25G20G 1
  21566828.479   -11441278.75143  -8899259.00342  21566830.481    21566828.176
  23036214.597    -3786873.46443  -2802602.74242  23036217.423    23036215.428
  23650692.242    -4381740.75843  -3263927.54242  23650694.324    23650692.990
  20337845.139   -19406712.74544 -13864980.94442  20337846.960    20337844.343
  20739221.895   -15717009.18144 -12233842.69942  20739223.815    20739221.786
 04  5 21  2 21 30.0000000  0  5G16G13G25G20G 1
  21559807.465   -11478174.20543  -8928008.67342  21559809.433    21559807.100
  23021824.970    -3862490.79343  -2861525.25442  23021827.828    23021825.811
  23667226.741    -4294851.73043  -3196221.83742  23667228.781    23667227.480
  20341975.969   -19385005.14044 -13848065.94442  20341977.798    20341975.137
  20734381.832   -15742443.85844 -12253661.92642  20734383.782    20734381.741
 04  5 21  2 22  0.0000000  0  6G16G13G25G20G 4G 1
  21552888.715   -11514532.41243  -8956339.71042  21552890.638    21552888.304
  23007448.704    -3938039.19243  -2920394.07142  23007451.473    23007449.387
  23683768.914    -4207921.34743  -3128483.92342  23683771.092    23683770.006
  20346213.454   -19362736.92644 -13830714.10442  20346215.289    20346212.664
  24236016.774    -1365755.03853  -1063455.72352  24236017.456    24236014.756
  20729579.422   -15767680.76044 -12273327.03742  20729581.374    20729579.333
 04  5 21  2 22 30.0000000  0  6G16G13G25G20G 4G 1
  21546073.970   -11550343.84143  -8984244.68242  21546075.913    21546073.625
  22993086.884    -4013510.76243  -2979202.98642  22993089.657    22993087.590
  23700320.396    -4120942.76743  -3060708.45342  23700322.503    23700321.667
  20350559.164   -19339900.23444 -13812919.29742  20350560.963    20350558.358
  24233184.863    -1380627.62543  -1075044.76342  24233185.657    24233186.071
  20724816.207   -15792711.30144 -12292831.34742  20724818.188    20724816.121
 04  5 21  2 23  0.0000000  0  6G16G13G25G20G 4G 1
  21539364.210   -11585603.85743  -9011719.97742  21539366.174    21539363.821
  22978740.281    -4088901.84243  -3037949.21942  22978743.034    22978740.804
  23716881.485    -4033914.51643  -2992894.27642  23716883.453    23716882.731
  20355013.545   -19316492.24244 -13794679.31642  20355015.324    20355012.806
  24230454.801    -1394967.21643  -1086218.39242  24230457.274    24230457.334
  20720093.043   -15817531.76244 -12312171.96842  20720094.996    20720092.989
 04  5 21  2 23 30.0000000  0  6G16G13G25G20G 4G 1
  21532758.067   -11620319.73643  -9038771.28042  21532760.010    21532757.668
  22964407.494    -4164220.57243  -3096639.05642  22964410.271    22964408.064
  23733449.990    -3946846.59343  -2925049.18042  23733451.923    23733451.100
  20359575.025   -19292521.80744 -13776001.06842  20359576.805    20359574.245
  24227825.864    -1408782.68243  -1096983.65842  24227828.413    24227828.127
  20715408.288   -15842150.29244 -12331355.23242  20715410.230    20715408.294
 04  5 21  2 24  0.0000000  0  6G16G13G25G20G 4G 1
  21526256.576   -11654485.21043  -9065393.68042  21526258.572    21526256.184
  22950089.728    -4239461.35043  -3155268.15042  22950092.500    22950090.248
  23750026.873    -3859735.56143  -2857170.48642  23750028.783    23750027.700
  20364244.382   -19267984.22744 -13756880.88742  20364246.162    20364243.610
  24225297.632    -1422069.37543  -1107336.96642  24225300.037    24225299.749
  20710762.913   -15866561.49044 -12350376.94042  20710764.882    20710762.979
 04  5 21  2 24 30.0000000  0  6G16G13G25G20G 4G 1
  21519860.575   -11688096.38043  -9091584.17042  21519862.607    21519860.061
  22935786.925    -4314621.63043  -3213834.54342  22935789.816    22935787.613
  23766611.989    -3772580.68243  -2789257.64342  23766613.875    23766612.771
  20369021.983   -19242877.73644 -13737317.40642  20369023.778    20369021.181
  24222870.214    -1434824.74143  -1117276.21442  24222872.698    24222872.306
  20706157.663   -15890762.59544 -12369234.94142  20706159.566    20706157.657
 04  5 21  2 25  0.0000000  0  6G16G13G25G20G 4G 1
  21513569.639   -11721155.05643  -9117344.13942  21513571.714    21513569.138
  22921499.439    -4389703.81143  -3272340.09142  22921502.160    22921499.803
  23783204.272    -3685386.38043  -2721314.05542  23783206.307    23783205.336
  20373907.299   -19217205.60444 -13717313.16442  20373909.094    20373906.452
  24220543.441    -1447052.29043  -1126804.14242  24220546.005    24220545.288
  20701591.900   -15914756.15044 -12387931.21642  20701593.805    20701591.795
 04  5 21  2 25 30.0000000  0  6G16G13G25G20G 4G 1
  21507383.596   -11753662.96143  -9142674.94242  21507385.613    21507383.011
  22907226.113    -4464710.76243  -3330787.02742  22907228.878    22907226.410
  23799803.485    -3598156.96343  -2653343.12342  23799805.442    23799804.580
  20378899.478   -19190971.40744 -13696870.94842  20378901.292    20378898.619
  24218316.746    -1458755.25843  -1135923.36642  24218318.847    24218318.382
  20697065.040   -15938544.73244 -12406467.76542  20697067.005    20697065.008
 04  5 21  2 26  0.0000000  0  5G16G13G25G20G 1
  21501305.001   -11785605.53143  -9167565.21942  21501307.112    21501304.442
  22892969.535    -4539628.92143  -3389164.74242  22892972.375    22892969.844
  23816411.803    -3510880.56843  -2585335.59442  23816413.696    23816412.753
  20384001.054   -19164162.21144 -13675980.68042  20384002.888    20384000.245
  20692579.855   -15962114.41244 -12424833.74342  20692581.849    20692579.837
 04  5 21  2 26 30.0000000  0  5G16G13G25G20G 1
  21495331.100   -11816998.80643  -9192027.48042  21495333.115    21495330.467
  22878726.775    -4614474.24943  -3447485.74642  22878729.692    22878727.139
  23833025.224    -3423576.16943  -2517306.22642  23833027.304    23833026.341
  20389208.751   -19136795.62344 -13654656.08242  20389210.552    20389207.985
  20688133.207   -15985481.96544 -12443042.22342  20688135.181    20688133.116
 04  5 21  2 27  0.0000000  0  5G16G13G25G20G 1
  21489463.076   -11847834.57143  -9216055.31042  21489465.129    21489462.580
  22864499.148    -4689239.59343  -3505744.36942  22864502.148    22864499.813
  23849645.190    -3336238.08743  -2449250.63942  23849647.220    23849646.350
  20394523.795   -19108865.04544 -13632892.01042  20394525.587    20394523.079
  20683726.362   -16008639.88844 -12461087.34942  20683728.349    20683726.248
 04  5 21  2 27 30.0000000  0  5G16G13G25G20G 1
  21483701.459   -11878112.11543  -9239648.16742  21483703.492    21483700.982
  22850287.108    -4763925.13843  -3563940.86242  22850289.897    22850287.580
  23866271.032    -3248868.08443  -2381170.15442  23866273.198    23866272.409
  20399945.895   -19080371.62844 -13610689.36742  20399947.698    20399945.178
  20679359.426   -16031588.15144 -12478969.10442  20679361.414    20679359.276
 04  5 21  2 28  0.0000000  0  5G16G13G25G20G 1
  21478046.540   -11907828.66643  -9262803.87942  21478048.591    21478046.094
  22836090.284    -4838528.69443  -3622073.43742  22836093.057    22836090.909
  23882903.250    -3161465.94643  -2313064.66142  23882905.218    23882904.494
  20405475.373   -19051314.22744 -13588047.25242  20405477.161    20405474.682
  20675032.836   -16054324.64444 -12496685.84742  20675034.795    20675032.666
 04  5 21  2 28 30.0000000  0  5G16G13G25G20G 1
  21472498.905   -11936981.70743  -9285520.50342  21472500.880    21472498.478
  22821909.500    -4913048.49643  -3680140.78642  22821912.365    22821910.199
  23899541.440    -3074031.93743  -2244934.29842  23899543.384    23899542.622
  20411112.333   -19021692.01144 -13564965.02442  20411114.097    20411111.634
  20670746.849   -16076847.53444 -12514236.13342  20670748.820    20670746.746
 04  5 21  2 29  0.0000000  0  5G16G13G25G20G 1
  21467058.182   -11965572.93843  -9307799.35642  21467060.116    21467057.719
  22807744.348    -4987486.93843  -3738144.70342  22807747.136    22807744.896
  23916184.876    -2986570.39143  -2176782.48542  23916186.985    23916186.005
  20416856.056   -18991508.52444 -13541445.44642  20416857.840    20416855.337
  20666501.137   -16099159.00944 -12531621.68642  20666503.106    20666501.015
 04  5 21  2 29 30.0000000  0  5G16G13G25G20G 1
  21461724.702   -11993600.83343  -9329639.24342  21461726.645    21461724.141
  22793594.962    -5061842.88543  -3796084.32242  22793597.754    22793595.535
  23932833.607    -2899081.76043  -2108609.57542  23932835.642    23932834.485
  20422706.614   -18960763.93844 -13517488.64642  20422708.359    20422705.866
  20662295.727   -16121258.30544 -12548841.90642  20662297.717    20662295.632
 04  5 21  2 30  0.0000000  0  5G16G13G25G20G 1
  21456498.889   -12021062.28943  -9351037.75142  21456500.923    21456498.323
  22779461.531    -5136114.26943  -3853958.06542  22779464.224    22779462.062
  23949487.495    -2811565.93943  -2040415.49042  23949489.463    23949488.252
  20428664.076   -18929456.98644 -13493093.64042  20428665.859    20428663.405
  20658131.203   -16143143.05744 -12565894.94342  20658133.176    20658131.153
 04  5 21  2 30 30.0000000  0  5G16G13G25G20G 1
  21451381.294   -12047955.11343  -9371993.16542  21451383.322    21451380.756
  22765344.534    -5210299.20543  -3911764.46042  22765347.278    22765345.170
  23966146.344    -2724023.17143  -1972200.40742  23966148.499    23966147.228
  20434728.718   -18897587.01744 -13468259.92542  20434730.496    20434728.099
  20654007.919   -16164811.37444 -12582779.32942  20654009.892    20654007.803
 04  5 21  2 31  0.0000000  0  5G16G13G25G20G 1
  21446371.242   -12074282.66443  -9392508.10342  21446373.267    21446370.771
  22751243.240    -5284401.36643  -3969506.35842  22751245.983    22751244.000
  23982809.294    -2636459.17043  -1903968.79642  23982811.312    23982810.157
  20440899.588   -18865159.07944 -13442991.42342  20440901.365    20440898.982
  20649924.867   -16186267.22744 -12599498.15342  20649926.875    20649924.842
 04  5 21  2 31 30.0000000  0  5G16G13G25G20G 1
  21441470.501   -12100036.46143  -9412575.96642  21441472.499    21441469.966
  22737159.097    -5358413.24543  -4027177.89742  22737161.836    22737159.718
  23999476.899    -2548868.08643  -1835716.02242  23999479.134    23999478.177
  20447177.890   -18832166.54044 -13417282.97442  20447179.659    20447177.312
  20645883.893   -16207502.75744 -12616045.30542  20645885.869    20645883.835
 04  5 21  2 32  0.0000000  0  5G16G13G25G20G 1
  21436677.581   -12125222.97243  -9432201.78542  21436679.585    21436677.120
  22723091.126    -5432341.58643  -4084784.36242  22723093.698    22723091.533
  24016148.695    -2461258.37143  -1767448.78842  24016150.665    24016149.750
  20453562.050   -18798617.68644 -13391141.03242  20453563.834    20453561.447
  20641883.582   -16228524.82144 -12632426.12842  20641885.558    20641883.433
 04  5 21  2 32 30.0000000  0  5G16G13G25G20G 1
  21431993.747   -12149836.84444  -9451381.40742  21431995.735    21431993.244
  22709039.653    -5506181.62743  -4142322.00042  22709042.470    22709040.355
  24032824.715    -2373627.12343  -1699164.77142  24032826.552    24032825.453
  20460052.744   -18764508.83344 -13364562.72642  20460054.548    20460052.131
  20637924.755   -16249328.62644 -12648636.87542  20637926.730    20637924.607
 04  5 21  2 33  0.0000000  0  5G16G13G25G20G 1
  21427418.488   -12173879.98243  -9470116.29942  21427420.507    21427418.008
  22695004.837    -5579935.63643  -4199792.60342  22695007.605    22695005.456
  24049503.582    -2285978.60743  -1630867.28942  24049505.712    24049504.375
  20466649.364   -18729843.49244 -13337550.79442  20466651.171    20466648.732
  20634006.995   -16269916.43444 -12664679.30842  20634008.965    20634006.866
 04  5 21  2 33 30.0000000  0  5G16G13G25G20G 1
  21422952.516   -12197348.65943  -9488403.55042  21422954.530    21422952.030
  22680986.918    -5653600.39143  -4257193.63042  22680989.655    22680987.570
  24066186.177    -2198311.44143  -1562555.25742  24066188.229    24066186.877
  20473352.264   -18694619.65244 -13310103.66542  20473354.063    20473351.603
  20630130.920   -16290284.89944 -12680550.82442  20630132.910    20630130.882
 04  5 21  2 34  0.0000000  0  5G16G13G25G20G 1
  21418596.483   -12220239.93844  -9506240.87142  21418598.479    21418595.959
  22666986.512    -5727172.94643  -4314522.84342  22666989.282    22666987.057
  24082871.999    -2110624.95243  -1494228.15542  24082874.299    24082873.143
  20480161.586   -18658836.22344 -13282220.49142  20480163.401    20480160.947
  20626297.229   -16310431.46544 -12696249.43642  20626299.190    20626297.174
 04  5 21  2 34 30.0000000  0  5G16G13G25G20G 1
  21414349.707   -12242556.89943  -9523630.69142  21414351.735    21414349.066
  22653002.797    -5800657.05743  -4371783.12842  22653005.676    22653003.399
  24099560.989    -2022924.18443  -1425889.96842  24099563.107    24099562.199
  20487076.538   -18622497.84544 -13253904.89842  20487078.308    20487075.976
  20622505.023   -16330359.48744 -12711777.76042  20622507.035    20622504.999
 04  5 21  2 35  0.0000000  0  5G16G13G25G20G 1
  21410212.110   -12264299.95043  -9540573.29742  21410214.097    21410211.430
  22639036.002    -5874053.34143  -4428974.98642  22639038.823    22639036.506
  24116252.239    -1935211.86043  -1357542.74942  24116254.264    24116253.428
  20494096.721   -18585606.68244 -13225158.55742  20494098.491    20494096.190
  20618754.229   -16350069.77844 -12727136.42042  20618756.242    20618754.258
 04  5 21  2 35 30.0000000  0  5G16G13G25G20G 1
  21406184.740   -12285463.47543  -9557064.32142  21406186.811    21406184.108
  22625086.927    -5947356.18243  -4486094.02242  22625089.706    22625087.359
  24132946.225    -1847484.36243  -1289183.72042  24132948.261    24132947.473
  20501222.877   -18548158.61044 -13195978.25842  20501224.653    20501222.323
  20615045.965   -16369556.83844 -12742321.13842  20615047.977    20615045.953
 04  5 21  2 36  0.0000000  0  5G16G13G25G20G 1
  21402267.497   -12306048.74643  -9573104.77142  21402269.478    21402266.775
  22611155.328    -6020567.18843  -4543141.50842  22611158.116    22611155.718
  24149642.362    -1759745.05243  -1220815.48342  24149644.441    24149643.899
  20508454.425   -18510156.94844 -13166366.60042  20508456.184    20508453.817
  20611379.905   -16388822.12644 -12757333.05542  20611381.894    20611379.804
 04  5 21  2 36 30.0000000  0  5G16G13G25G20G 1
  21398460.206   -12326055.39643  -9588694.34042  21398462.262    21398459.541
  22597241.271    -6093686.46143  -4600117.51142  22597244.087    22597241.697
  24166340.633    -1671995.87643  -1152439.53242  24166342.671    24166342.018
  20515791.071   -18471602.81144 -13136324.43942  20515792.867    20515790.431
  20607756.085   -16407865.62944 -12772172.14842  20607758.019    20607755.927
 04  5 21  2 37  0.0000000  0  5G16G13G25G20G 1
  21394763.687   -12345480.45143  -9603830.72242  21394765.700    21394763.050
  22583344.934    -6166711.12343  -4657019.77942  22583347.769    22583345.441
  24183041.065    -1584235.85443  -1084055.15242  24183043.070    24183042.162
  20523233.064   -18432495.16644 -13105850.97442  20523234.844    20523232.374
  20604175.001   -16426684.48044 -12786836.18842  20604176.955    20604174.867
 04  5 21  2 37 30.0000000  0  5G16G13G25G20G 1
  21391177.984   -12364323.66743  -9618513.72742  21391179.933    21391177.307
  22569466.886    -6239640.97843  -4713848.19742  22569469.647    22569467.167
  24199743.144    -1496466.68443  -1015663.64642  24199745.237    24199744.112
  20530780.047   -18392835.28544 -13074947.19142  20530781.877    20530779.424
  20600636.616   -16445278.68444 -12801325.17942  20600638.588    20600636.552
 04  5 21  2 38  0.0000000  0  5G16G13G25G20G 1
  21387703.231   -12382583.80244  -9632742.37842  21387705.149    21387702.542
  22555607.060    -6312474.84643  -4770601.80342  22555609.755    22555607.226
  24216446.658    -1408689.32843   -947265.77642  24216448.934    24216447.760
  20538432.101   -18352623.72244 -13043613.52842  20538433.876    20538431.441
  20597141.188   -16463647.13344 -12815638.25142  20597143.159    20597141.132
 04  5 21  2 38 30.0000000  0  5G16G13G25G20G 1
  21384339.274   -12400261.48443  -9646517.16042  21384341.187    21384338.625
  22541765.206    -6385213.63543  -4827281.33842  22541767.954    22541765.285
  24233151.117    -1320905.86743   -878863.08942  24233153.424    24233152.356
  20546188.630   -18311862.77244 -13011851.77942  20546190.422    20546188.019
  20593688.628   -16481790.59044 -12829776.01142  20593690.593    20593688.451
 04  5 21  2 39  0.0000000  0  5G16G13G25G20G 1
  21381086.045   -12417357.57443  -9659838.75642  21381087.945    21381085.390
  22527941.514    -6457858.15743  -4883887.43042  22527944.197    22527941.364
  24249856.321    -1233119.33543   -810458.04342  24249858.576    24249857.580
  20554049.304   -18270554.89744 -12979663.84942  20554051.062    20554048.674
  20590278.668   -16499709.88144 -12843739.09142  20590280.632    20590278.513
 04  5 21  2 39 30.0000000  0  5G16G13G25G20G 1
  21377944.232   -12433867.79643  -9672703.84142  21377946.187    21377943.622
  22514136.291    -6530404.26143  -4940416.81542  22514139.031    22514136.385
  24266562.838    -1145327.47843   -742048.84342  24266564.996    24266563.887
  20562014.425   -18228697.86944 -12947048.01042  20562016.183    20562013.781
  20586912.230   -16517400.76744 -12857524.19842  20586914.182    20586912.072
 04  5 21  2 40  0.0000000  0  5G16G13G25G20G 1
  21374914.607   -12449788.71343  -9685109.73242  21374916.561    21374913.897
  22500350.559    -6602848.52843  -4996866.86842  22500353.312    22500350.659
  24283270.503    -1057528.71743   -673634.24942  24283272.783    24283271.427
  20570084.534   -18186289.45344 -12914002.51342  20570086.266    20570083.890
  20583589.953   -16534859.81644 -12871128.65742  20583591.898    20583589.728
 04  5 21  2 40 30.0000000  0  5G16G13G25G20G 1
  21371995.612   -12465128.25744  -9697062.60242  21371997.581    21371994.851
  22486582.731    -6675198.27143  -5053243.25042  22486585.451    22486582.995
  24299977.627     -969732.63843   -605221.74842  24299979.873    24299978.341
  20578257.691   -18143339.39144 -12880534.96242  20578259.414    20578257.020
  20580310.232   -16552094.99444 -12884558.66942  20580312.185    20580309.967
 04  5 21  2 41  0.0000000  0  5G16G13G25G20G 1
  21369188.849   -12479877.82043  -9708555.74042  21369190.821    21369188.133
  22472834.629    -6747445.20443  -5109539.52542  22472837.375    22472834.957
  24316685.263     -881932.18743   -536805.85742  24316687.511    24316686.185
  20586535.178   -18099840.56144 -12846639.79542  20586536.951    20586534.605
  20577074.639   -16569097.68344 -12897807.50842  20577076.619    20577074.435
 04  5 21  2 41 30.0000000  0  5G16G13G25G20G 1
  21366493.074   -12494043.69643  -9719594.06242  21366495.084    21366492.415
  22459105.011    -6819595.58443  -5165760.58642  22459107.726    22459105.140
  24333392.069     -794135.53843   -468392.92142  24333394.432    24333393.449
  20594915.623   -18055801.06744 -12812323.33642  20594917.373    20594915.015
  20573882.191   -16585874.10744 -12910880.04642  20573884.170    20573881.955
 04  5 21  2 42  0.0000000  0  5G16G13G25G20G 1
  21363909.975   -12507617.66143  -9730171.15542  21363911.999    21363909.347
  22445395.165    -6891641.13143  -5221899.93642  22445397.940    22445395.281
  24350099.783     -706336.59943   -399978.18942  24350101.883    24350101.229
  20603400.184   -18011214.77444 -12777580.80242  20603401.918    20603399.598
  20570734.296   -16602416.25144 -12923770.01942  20570736.284    20570734.120
 04  5 21  2 42 30.0000000  0  5G16G13G25G20G 1
  21361438.307   -12520606.19343  -9740292.06842  21361440.275    21361437.627
  22431704.109    -6963588.30443  -5277962.66742  22431706.925    22431704.071
  24366806.407     -618543.27043   -331567.86042  24366808.371    24366807.764
  20611987.222   -17966089.48544 -12742418.25942  20611988.984    20611986.757
  20567629.936   -16618730.13644 -12936482.13942  20567631.898    20567629.713
 04  5 21  2 43  0.0000000  0  5G16G13G25G20G 1
  21359078.827   -12533005.00843  -9749953.46042  21359080.773    21359078.176
  22418032.548    -7035431.89243  -5333944.66142  22418035.442    22418032.719
  24383512.738     -530752.57943   -263159.58642  24383514.601    24383513.722
  20620677.471   -17920422.50144 -12706833.62942  20620679.212    20620676.863
  20564569.733   -16634811.27444 -12949012.89042  20564571.724    20564569.596
 04  5 21  2 43 30.0000000  0  5G16G13G25G20G 1
  21356832.150   -12544811.34943  -9759153.17742  21356834.081    21356831.500
  22404381.412    -7107169.39143  -5389843.96742  22404384.283    22404381.573
  24400218.326     -442963.66743   -194752.68042  24400220.337    24400219.335
  20629470.948   -17874212.68644 -12670826.00942  20629472.711    20629470.281
  20561554.427   -16650656.79844 -12961360.04542  20561556.394    20561554.287
 04  5 21  2 44  0.0000000  0  5G16G13G25G20G 1
  21354697.138   -12556031.06043  -9767895.78042  21354699.043    21354696.414
  22390749.346    -7178806.15543  -5445664.79342  22390752.209    22390749.521
  24416922.194     -355183.67243   -126352.70742  24416924.239    24416923.318
  20638366.259   -17827467.37544 -12634401.12542  20638368.070    20638365.647
  20558582.927   -16666272.03644 -12973527.75442  20558584.880    20558582.788
 04  5 21  2 44 30.0000000  0  5G16G13G25G20G 1
  21352675.275   -12566655.86343  -9776174.81442  21352677.248    21352674.537
  22377138.155    -7250333.86643  -5501400.63142  22377140.955    22377138.272
  24433625.593     -267406.55043    -57955.00642  24433627.610    24433626.783
  20647364.645   -17780180.61244 -12597554.32742  20647366.449    20647364.086
  20555656.847   -16681649.04944 -12985509.83742  20555658.802    20555656.627
 04  5 21  2 45  0.0000000  0  5G16G13G25G20G 1
  21350766.115   -12576688.78043  -9783992.64842  21350768.075    21350765.270
  22363546.942    -7321754.76943  -5557053.23942  22363549.817    22363547.202
  24450327.624     -179636.21743     10437.44242  24450329.774    24450329.098
  20656465.283   -17732356.40244 -12560288.73942  20656467.058    20656464.758
  20552775.557   -16696790.12944 -12997308.06942  20552777.563    20552775.365
 04  5 21  2 45 30.0000000  0  5G16G13G25G20G 1
  21348968.705   -12586134.34043  -9791352.79242  21348970.630    21348967.789
  22349975.399    -7393073.41443  -5612626.17142  22349978.263    22349975.619
  24467027.424      -91878.83543     78819.76542  24467029.526    24467028.992
  20665667.034   -17684001.07044 -12522609.29042  20665668.794    20665666.530
  20549938.305   -16711699.67144 -13008925.88642  20549940.334    20549938.196
 04  5 21  2 46  0.0000000  0  5G16G13G25G20G 1
  21347284.683   -12594983.99444  -9798248.59842  21347286.641    21347283.715
  22336425.215    -7464280.64743  -5668112.29742  22336427.995    22336425.351
  24483726.062       -4127.35343    147197.49642  24483728.119    24483727.417
  20674971.100   -17635107.87244 -12484510.71942  20674972.865    20674970.679
  20547146.926   -16726368.70544 -13020356.29542  20547148.966    20547146.752
 04  5 21  2 46 30.0000000  0  5G16G13G25G20G 1
  21345712.432   -12603245.69943  -9804686.26042  21345714.459    21345711.514
  22322894.676    -7535384.27343  -5723517.70542  22322897.450    22322894.739
  24500421.870       83608.99943    215563.47742  24500423.936    24500422.903
  20684375.743   -17585686.11144 -12446000.28442  20684377.509    20684375.320
  20544399.750   -16740804.86444 -13031605.24142  20544401.818    20544399.590
 04  5 21  2 47  0.0000000  0  5G16G13G25G20G 1
  21344253.751   -12610910.85743  -9810659.08142  21344255.764    21344252.860
  22309385.506    -7606374.95643  -5778835.07842  22309388.286    22309385.575
  24517116.198      171337.54043    283923.34242  24517118.196    24517117.246
  20693882.305   -17535728.97244 -12407072.66742  20693884.065    20693881.858
  20541698.674   -16754999.30044 -13042665.83242  20541700.703    20541698.493
 04  5 21  2 47 30.0000000  0  5G16G13G25G20G 1
  21342908.016   -12617982.41243  -9816169.35842  21342910.005    21342907.215
  22295897.451    -7677255.20543  -5834066.41042  22295900.169    22295897.430
  24533807.861      259053.69043    352273.53842  24533810.043    24533809.191
  20703489.877   -17485241.12544 -12367731.51242  20703491.621    20703489.319
  20539043.075   -16768954.56144 -13053540.05242  20539045.105    20539042.931
 04  5 21  2 48  0.0000000  0  5G16G13G25G20G 1
  21341675.121   -12624461.08243  -9821217.64342  21341677.119    21341674.362
  22282430.262    -7748025.04243  -5889211.69142  22282433.033    22282430.437
  24550496.944      346755.69143    420612.70242  24550499.124    24550498.403
  20713197.926   -17434224.75744 -12327978.53442  20713199.700    20713197.416
  20536432.923   -16782670.77444 -13064228.00142  20536434.958    20536432.789
 04  5 21  2 48 30.0000000  0  5G16G13G25G20G 1
  21340555.448   -12630344.79643  -9825802.32542  21340557.428    21340554.731
  22268984.740    -7818681.78843  -5944268.85842  22268987.458    22268984.814
  24567183.608      434444.10243    488941.30242  24567185.884    24567185.305
  20723006.824   -17382679.21144 -12287813.20442  20723008.539    20723006.230
  20533868.823   -16796145.12444 -13074727.48342  20533870.841    20533868.706
 04  5 21  2 49  0.0000000  0  5G16G13G25G20G 1
  21339548.811   -12635634.63243  -9829924.25142  21339550.779    21339548.097
  22255560.622    -7889226.08143  -5999238.40242  22255563.377    22255560.580
  24583867.255      522117.07343    557257.86342  24583869.579    24583869.095
  20732915.840   -17330607.20644 -12247237.64942  20732917.563    20732915.213
  20531350.712   -16809378.20144 -13085038.97042  20531352.689    20531350.506
 04  5 21  2 49 30.0000000  0  5G16G13G25G20G 1
  21338655.721   -12640328.03943  -9833581.43042  21338657.635    21338654.975
  22242158.380    -7959655.06843  -6054118.09742  22242161.197    22242158.374
  24600548.219      609775.66543    625563.20942  24600550.513    24600549.996
  20742925.165   -17278008.08444 -12206251.35042  20742926.931    20742924.563
  20528878.942   -16822367.09544 -13095160.18042  20528880.932    20528878.808
 04  5 21  2 50  0.0000000  0  5G16G13G25G20G 1
  21337875.763   -12644426.41343  -9836774.95142  21337877.773    21337875.044
  22228777.951    -8029969.09943  -6108908.21142  22228780.789    22228778.007
  24617225.924      697417.10543    693855.21242  24617228.230    24617227.648
  20753034.201   -17224884.86344 -12164856.66142  20753036.006    20753033.617
  20526453.522   -16835112.75944 -13105091.86542  20526455.479    20526453.393
 04  5 21  2 50 30.0000000  0  5G16G13G25G20G 1
  21337208.988   -12647930.54443  -9839505.42342  21337210.945    21337208.170
  22215419.453    -8100168.29043  -6163608.82942  22215422.254    22215419.483
  24633899.901      785039.62643    762132.49342  24633902.240    24633901.540
  20763242.581   -17171239.58144 -12123055.17242  20763244.399    20763241.978
  20524074.365   -16847615.41044 -13114834.18342  20524076.329    20524074.206
 04  5 21  2 51  0.0000000  0  5G16G13G25G20G 1
  21336655.153   -12650841.13743  -9841773.39442  21336657.095    21336654.263
  22202082.929    -8170252.42243  -6218219.82142  22202085.678    22202082.840
  24650570.099      872641.68343    830393.76942  24650572.105    24650571.490
  20773549.894   -17117074.52844 -12080848.66442  20773551.699    20773549.228
  20521741.489   -16859875.04544 -13124387.14742  20521743.464    20521741.257
 04  5 21  2 51 30.0000000  0  5G16G13G25G20G 1
  21336215.106   -12653153.89743  -9843575.52942  21336217.051    21336214.097
  22188769.142    -8240216.99743  -6272737.63942  22188771.865    22188768.995
  24667236.811      960226.28243    898641.48842  24667238.884    24667238.330
  20783956.561   -17062387.05244 -12038235.08142  20783958.368    20783955.854
  20519455.758   -16871886.63244 -13133746.82042  20519457.753    20519455.504
 04  5 21  2 52  0.0000000  0  5G16G13G25G20G 1
  21335887.882   -12654873.16943  -9844915.19142  21335889.893    21335886.842
  22175477.495    -8310064.86043  -6327164.51642  22175480.228    22175477.278
  24683899.444     1047788.14643    966871.48042  24683901.558    24683900.959
  20794461.512   -17007182.99444 -11995218.96242  20794463.317    20794460.839
  20517216.506   -16883653.91944 -13142916.13142  20517218.506    20517216.235
 04  5 21  2 52 30.0000000  0  5G16G13G25G20G 1
  21335674.304   -12655995.36843  -9845789.61742  21335676.333    21335673.201
  22162208.798    -8379791.97443  -6381497.30542  22162211.483    22162208.629
  24700558.114     1135329.74743   1035085.68142  24700560.188    24700559.585
  20805065.215   -16951460.31644 -11951798.72442  20805066.955    20805064.565
  20515024.463   -16895172.73644 -13151891.83142  20515026.467    20515024.247
 04  5 21  2 53  0.0000000  0  5G16G13G25G20G 1
  21335573.764   -12656523.37343  -9846201.02542  21335575.834    21335572.715
  22148962.664    -8449400.34643  -6435737.57342  22148965.359    22148962.524
  24717212.075     1222847.34443   1103281.13442  24717214.010    24717213.850
  20815766.765   -16895223.52844 -11907977.89242  20815768.505    20815766.131
  20512879.424   -16906445.17444 -13160675.55042  20512881.358    20512879.212
 04  5 21  2 53 30.0000000  0  5G16G13G25G20G 1
  21335586.965   -12656453.79243  -9846146.79242  21335589.039    21335585.989
  22135740.103    -8518885.41843  -6489881.75142  22135742.764    22135739.966
  24733861.919     1310343.19643   1171459.71542  24733863.784    24733863.582
  20826566.423   -16838470.81744 -11863755.02642  20826568.195    20826565.919
  20510782.053   -16917466.93144 -13169263.93842  20510784.015    20510781.821
 04  5 21  2 54  0.0000000  0  5G16G13G25G20G 1
  21335713.650   -12655788.41143  -9845628.29842  21335715.632    21335712.656
  22122540.661    -8588248.51043  -6543930.87742  22122543.400    22122540.633
  24750507.263     1397814.54343   1239619.17942  24750509.275    24750508.757
  20837463.654   -16781205.59844 -11819132.80742  20837465.426    20837463.239
  20508732.174   -16928239.22644 -13177657.93842  20508734.135    20508731.955
 04  5 21  2 54 30.0000000  0  5G16G13G25G20G 1
  21335953.203   -12654529.09743  -9844646.99642  21335955.239    21335952.289
  22109364.361    -8657490.24743  -6597885.43042  22109367.086    22109364.315
  24767147.583     1485258.90743   1307757.59342  24767149.767    24767148.774
  20848457.848   -16723430.95444 -11774113.63342  20848459.615    20848457.444
  20506729.530   -16938763.10844 -13185858.36242  20506731.505    20506729.382
 04  5 21  2 55  0.0000000  0  5G16G13G25G20G 1
  21336306.979   -12652669.93243  -9843198.27642  21336309.005    21336306.096
  22096212.488    -8726603.85543  -6651740.14142  22096215.220    22096212.391
  24783783.082     1572681.49343   1375879.06742  24783785.820    24783784.530
  20859549.845   -16665142.48344 -11728694.08242  20859551.600    20859549.403
  20504775.527   -16949031.55744 -13193859.75542  20504777.512    20504775.378
 04  5 21  2 55 30.0000000  0  5G16G13G25G20G 1
  21336773.244   -12650219.99143  -9841289.21242  21336775.220    21336772.295
  22083083.598    -8795597.04343  -6705501.02742  22083086.362    22083083.503
  24800413.247     1660072.21443   1443975.69642  24800415.680    24800414.421
  20870737.516   -16606351.11544 -11682882.65942  20870739.274    20870737.064
  20502868.543   -16959053.02144 -13201668.68642  20502870.490    20502868.331
 04  5 21  2 56  0.0000000  0  5G16G13G25G20G 1
  21337353.243   -12647171.74043  -9838913.93642  21337355.248    21337352.368
  22069979.056    -8864461.28443  -6759161.43242  22069981.820    22069979.063
  24817038.375     1747437.98043   1512052.88542  24817040.723    24817039.576
  20882022.020   -16547050.70344 -11636674.58442  20882023.782    20882021.587
  20501010.105   -16968818.98144 -13209278.52142  20501012.060    20501009.922
 04  5 21  2 56 30.0000000  0  5G16G13G25G20G 1
  21338046.013   -12643531.30543  -9836077.21242  21338047.965    21338045.089
  22056898.215    -8933201.71443  -6812725.35642  22056900.947    22056898.237
  24833657.797     1834771.98043   1580105.32242  24833659.921    24833659.000
  20893401.957   -16487248.89044 -11590075.80342  20893403.694    20893401.491
  20499199.302   -16978334.68444 -13216693.35142  20499201.256    20499199.189
 04  5 21  2 57  0.0000000  0  5G16G13G25G20G 1
  21338852.684   -12639291.97243  -9832773.81742  21338854.653    21338851.740
  22043842.480    -9001810.63643  -6866186.83642  22043845.241    22043842.325
  24850271.930     1922080.13043   1648137.63642  24850274.045    24850273.459
  20904878.262   -16426940.25844 -11543082.09042  20904880.022    20904877.838
  20497437.674   -16987592.28844 -13223907.06742  20497439.628    20497437.517
 04  5 21  2 57 30.0000000  0  5G16G13G25G20G 1
  21339772.648   -12634457.47243  -9829006.65642  21339774.587    21339771.688
  22030811.160    -9070290.44743  -6919547.69442  22030813.954    22030810.961
  24866879.985     2009357.78843   1716146.20342  24866882.308    24866881.960
  20916450.144   -16366130.13144 -11495697.61742  20916451.851    20916449.674
  20495724.521   -16996594.61244 -13230921.85442  20495726.505    20495724.414
 04  5 21  2 58  0.0000000  0  5G16G13G25G20G 1
  21340805.510   -12629029.20343  -9824776.82142  21340807.486    21340804.660
  22017804.259    -9138641.49543  -6972808.20442  22017807.070    22017804.123
  24883482.559     2096603.30343   1784129.64842  24883484.729    24883484.265
  20928116.777   -16304821.27044 -11447924.50342  20928118.542    20928116.422
  20494059.902   -17005342.01644 -13237738.01042  20494061.882    20494059.774
 04  5 21  2 58 30.0000000  0  5G16G13G25G20G 1
  21341951.797   -12623005.58243  -9820083.07042  21341953.759    21341950.819
  22004822.628    -9206860.88143  -7025966.12742  22004825.438    22004822.448
  24900078.759     2183817.30943   1852088.67442  24900081.020    24900080.520
  20939878.389   -16243013.83444 -11399762.89542  20939880.133    20939878.014
  20492444.271   -17013832.03744 -13244353.60142  20492446.272    20492444.186
 04  5 21  2 59  0.0000000  0  4G16G13G20G 1
  21343210.859   -12616389.21143  -9814927.44042  21343212.846    21343209.875
  21991865.662    -9274949.86843  -7079022.43642  21991868.540    21991865.564
  20951734.170   -16180711.60844 -11351215.73142  20951735.918    20951733.752
  20490877.417   -17022065.99244 -13250769.66742  20490879.418    20490877.257
 04  5 21  2 59 30.0000000  0  4G16G13G20G 1
  21344583.505   -12609175.80843  -9809306.59342  21344585.475    21344582.517
  21978934.478    -9342903.02443  -7131972.90042  21978937.358    21978934.534
  20963684.502   -16117912.12944 -11302281.09842  20963686.288    20963684.086
  20489360.233   -17030038.71144 -13256982.17042  20489362.272    20489360.170
 04  5 21  3  0  0.0000000  0  4G16G13G20G 1
  21346073.889   -12601344.37643  -9803204.16242  21346075.840    21346072.733
  21966033.378    -9410697.95543  -7184800.06942  21966036.239    21966033.497
  20975733.262   -16054595.67644 -11252943.62642  20975735.015    20975732.861
  20487897.063   -17037727.83744 -13262973.68442  20487899.085    20487897.017
 04  5 21  3  0 30.0000000  0  4G16G13G20G 1
  21347685.099   -12592876.97843  -9796606.17142  21347687.076    21347684.014
  21953166.286    -9478315.16543  -7237488.76142  21953169.100    21953166.255
  20987883.637   -15990745.41044 -11203190.21542  20987885.366    20987883.199
  20486491.485   -17045114.13144 -13268729.23042  20486493.508    20486491.412
 04  5 21  3  1  0.0000000  0  4G16G13G20G 1
  21349414.649   -12583788.41143  -9789524.14742  21349416.584    21349413.493
  21940330.478    -9545768.13043  -7290049.47242  21940333.242    21940330.246
  21000132.438   -15926377.86944 -11153033.72142  21000134.167    21000131.907
  20485140.904   -17052211.38544 -13274259.55542  20485142.926    20485140.823
 04  5 21  3  1 30.0000000  0  5G27G16G13G20G 1
  23617393.712     -569090.28153   -440568.76552  23617395.570    23617395.568
  21351183.695   -12574491.67543  -9782279.92742  21351185.650    21351182.587
  21927447.476    -9613468.72343  -7342803.14742  21927450.251    21927447.097
  21012400.706   -15861907.48944 -11102797.08642  21012402.487    21012400.206
  20483766.982   -17059431.56844 -13279885.66742  20483768.981    20483766.886
 04  5 21  3  2  0.0000000  0  5G27G16G13G20G 1
  23603738.769     -640849.03443   -496484.63242  23603740.564    23603740.567
  21353115.788   -12564338.36943  -9774368.22842  21353117.765    21353114.662
  21914641.014    -9680766.82743  -7395243.18542  21914643.802    21914640.743
  21024811.758   -15796687.19944 -11051976.10942  21024813.523    21024811.269
  20482493.283   -17066125.12044 -13285101.41742  20482495.298    20482493.138
 04  5 21  3  2 30.0000000  0  5G27G16G13G20G 1
  23590120.661     -712412.62343   -552248.40042  23590122.527    23590122.704
  21355164.891   -12553570.18043  -9765977.42042  21355166.826    21355163.735
  21901865.376    -9747902.80343  -7447556.89442  21901868.145    21901865.224
  21037319.243   -15730960.11144 -11000760.23542  21037320.965    21037318.740
  20481273.956   -17072532.41344 -13290094.11342  20481275.989    20481273.812
 04  5 21  3  3  0.0000000  0  5G27G16G13G20G 1
  23576537.448     -783792.18843   -607868.77342  23576539.446    23576539.610
  21357328.757   -12542199.05743  -9757116.77842  21357330.686    21357327.565
  21889118.739    -9814886.92243  -7499752.30142  21889121.534    21889118.539
  21049920.602   -15664739.53044 -10949159.80942  21049922.329    21049920.114
  20480107.146   -17078664.01144 -13294871.97542  20480109.174    20480106.982
 04  5 21  3  3 30.0000000  0  5G27G16G13G20G 1
  23562986.584     -855002.38143   -663357.21942  23562988.512    23562988.647
  21359604.373   -12530240.14143  -9747798.12442  21359606.364    21359603.272
  21876398.415    -9881733.12943  -7551840.22942  21876401.154    21876398.021
  21062612.751   -15598041.95344 -10897187.70042  21062614.470    21062612.279
  20478990.127   -17084533.88644 -13299445.89442  20478992.134    20478990.022
 04  5 21  3  4  0.0000000  0  5G27G16G13G20G 1
  23549463.853     -926065.41343   -718730.96042  23549465.750    23549465.890
  21361987.602   -12517716.26343  -9738039.23242  21361989.616    21361986.537
  21863700.168    -9948462.62043  -7603837.21342  21863702.945    21863699.766
  21075390.925   -15530892.14444 -10844863.20642  21075392.682    21075390.513
  20477918.914   -17090163.59744 -13303832.68442  20477920.886    20477918.768
 04  5 21  3  4 30.0000000  0  5G27G16G13G20G 1
  23535979.066     -996927.47343   -773948.07542  23535981.177    23535981.045
  21364488.488   -12504574.22944  -9727798.66542  21364490.435    21364487.448
  21851034.645   -10015020.12143  -7655700.18642  21851037.398    21851034.248
  21088265.106   -15463237.85144 -10792145.60842  21088266.883    21088264.749
  20476903.702   -17095498.45244 -13307989.70542  20476905.708    20476903.616
 04  5 21  3  5  0.0000000  0  5G27G16G13G20G 1
  23522525.029    -1067628.55143   -829039.75442  23522527.145    23522526.858
  21367099.093   -12490855.18543  -9717108.48042  21367101.041    21367098.053
  21838394.282   -10081445.05843  -7707459.84442  21838397.013    21838394.030
  21101227.312   -15395121.48444 -10739067.95742  21101229.068    21101226.905
  20475937.122   -17100577.99644 -13311947.79142  20475939.130    20475936.998
 04  5 21  3  5 30.0000000  0  5G27G16G13G20G 1
  23509104.192    -1138155.75543   -883995.96742  23509106.313    23509105.973
  21369821.869   -12476546.79243  -9705959.06142  21369823.860    21369820.855
  21825781.864   -10147723.97243  -7759105.73142  21825784.566    21825781.517
  21114279.430   -15326532.09344 -10685621.70242  21114281.218    21114279.101
  20475021.675   -17105388.61844 -13315696.31942  20475023.665    20475021.531
 04  5 21  3  6  0.0000000  0  5G27G16G13G20G 1
  23495721.723    -1208480.01743   -938794.03142  23495723.889    23495723.780
  21372662.171   -12461620.80243  -9694328.40242  21372664.166    21372661.243
  21813203.079   -10213826.53344  -7810614.20742  21813205.817    21813202.587
  21127426.757   -15257442.75244 -10631785.88142  21127428.519    21127426.392
  20474162.968   -17109900.66944 -13319212.19542  20474165.005    20474162.939
 04  5 21  3  6 30.0000000  0  5G27G16G13G20G 1
  23482365.409    -1278667.78743   -993485.70042  23482367.565    23482367.371
  21375607.205   -12446144.31243  -9682268.77842  21375609.231    21375606.263
  21800645.190   -10279818.18443  -7862036.25042  21800648.020    21800644.729
  21140656.145   -15187921.78644 -10577613.73942  21140657.938    21140655.798
  20473348.700   -17114179.84044 -13322546.61042  20473350.685    20473348.672
 04  5 21  3  7  0.0000000  0  5G27G16G13G20G 1
  23469043.280    -1348675.55743  -1048037.15542  23469045.376    23469045.321
  21378665.169   -12430074.45243  -9669746.79742  21378667.203    21378664.242
  21788116.800   -10345654.58443  -7913337.31142  21788119.650    21788116.469
  21153975.498   -15117928.00744 -10523073.16042  21153977.311    21153975.226
  20472587.070   -17118182.02844 -13325665.19042  20472589.076    20472587.063
 04  5 21  3  7 30.0000000  0  5G27G16G13G20G 1
  23455754.225    -1418510.37543  -1102453.82242  23455756.247    23455756.222
  21381834.543   -12413419.22243  -9656768.67542  21381836.561    21381833.583
  21775617.005   -10411341.52843  -7964521.91542  21775619.802    21775616.603
  21167383.068   -15047470.64244 -10468171.35242  21167384.883    21167382.873
  20471877.017   -17121913.50944 -13328572.83642  20471879.011    20471876.942
 04  5 21  3  8  0.0000000  0  5G27G16G13G20G 1
  23442502.387    -1488147.92543  -1156716.75742  23442504.538    23442504.647
  21385119.802   -12396155.20143  -9643316.17542  21385121.769    21385118.829
  21763150.422   -10476853.83843  -8015570.45242  21763153.193    21763150.009
  21180883.154   -14976527.46844 -10412891.00242  21180884.926    21180882.923
  20471223.185   -17125349.45944 -13331250.19042  20471225.161    20471223.074
 04  5 21  3  8 30.0000000  0  5G27G16G13G20G 1
  23429286.313    -1557597.50943  -1210833.29042  23429288.478    23429288.694
  21388518.917   -12378292.51243  -9629397.18442  21388520.887    21388517.913
  21750715.484   -10542199.92343  -8066489.45142  21750718.246    21750715.100
  21194473.541   -14905109.95244 -10357241.03042  21194475.272    21194473.284
  20470623.890   -17128498.28744 -13333703.81142  20470625.906    20470623.862
 04  5 21  3  9  0.0000000  0  5G27G16G13G20G 1
  23416097.045    -1626908.16043  -1264841.49742  23416099.065    23416099.213
  21392022.505   -12359881.05743  -9615050.58642  21392024.444    21392021.496
  21738303.114   -10607427.43743  -8117316.06142  21738305.834    21738302.641
  21208144.432   -14833269.08844 -10301261.17142  21208146.195    21208144.248
  20470070.192   -17131408.13344 -13335971.21542  20470072.189    20470070.172
 04  5 21  3  9 30.0000000  0  5G27G16G13G20G 1
  23402944.412    -1696025.35543  -1318698.99242  23402946.525    23402946.633
  21395640.679   -12340867.14543  -9600234.54342  21395642.594    21395639.689
  21725923.871   -10672480.83843  -8168007.01242  21725926.591    21725923.286
  21221905.811   -14760952.79344 -10244910.84642  21221907.544    21221905.642
  20469572.441   -17134023.94144 -13338009.49742  20469574.434    20469572.395
 04  5 21  3 10  0.0000000  0  5G27G16G13G20G 1
  23389819.735    -1764996.34243  -1372442.54742  23389821.788    23389821.741
  21399364.378   -12321298.76943  -9584986.45042  21399366.263    21399363.376
  21713568.788   -10737406.67943  -8218598.55142  21713571.537    21713568.252
  21235748.118   -14688210.60244 -10188228.64942  21235749.909    21235748.074
  20469121.776   -17136392.19344 -13339854.88042  20469123.773    20469121.692
 04  5 21  3 10 30.0000000  0  5G27G16G13G20G 1
  23376731.476    -1833775.22643  -1426036.39142  23376733.570    23376733.365
  21403202.133   -12301131.07543  -9569271.35042  21403204.017    21403201.101
  21701247.033   -10802157.91443  -8269054.03942  21701249.767    21701246.544
  21249679.979   -14614998.50744 -10131180.30442  21249681.692    21249679.898
  20468727.144   -17138466.15044 -13341470.94242  20468729.115    20468727.028
 04  5 21  3 11  0.0000000  0  5G27G16G13G20G 1
  23363678.048    -1902370.93243  -1479487.49242  23363680.173    23363679.909
  21407152.061   -12280374.05243  -9553097.03242  21407153.945    21407150.961
  21688957.036   -10866742.25143  -8319379.47742  21688959.778    21688956.603
  21263699.005   -14541327.69444 -10073774.50742  21263700.773    21263698.954
  20468386.836   -17140254.11444 -13342864.14242  20468388.821    20468386.761
 04  5 21  3 11 30.0000000  0  5G27G16G13G20G 1
  23350657.429    -1970794.70443  -1532804.63242  23350659.540    23350659.109
  21411211.907   -12259039.75343  -9536472.89442  21411213.772    21411210.781
  21676696.924   -10931169.75843  -8369582.70142  21676699.689    21676696.495
  21277802.824   -14467211.70744 -10016021.82542  21277804.573    21277802.749
  20468099.015   -17141766.65344 -13344042.73642  20468100.975    20468098.879
 04  5 21  3 12  0.0000000  0  5G27G16G13G20G 1
  23337668.521    -2039051.69743  -1585991.80342  23337670.653    23337670.136
  21415380.326   -12237134.57243  -9519403.91042  21415382.239    21415379.175
  21664465.780   -10995444.44843  -8419666.84342  21664468.618    21664465.422
  21291989.954   -14392657.99444  -9957928.07042  21291991.673    21291989.857
  20467862.793   -17143008.13044 -13345010.10942  20467864.771    20467862.621
 04  5 21  3 12 30.0000000  0  5G27G16G13G20G 1
  23324715.710    -2107118.49843  -1639030.79542  23324717.848    23324717.545
  21419661.727   -12214635.69043  -9501872.30142  21419663.679    21419660.531
  21652268.436   -11059541.80743  -8469612.81842  21652271.250    21652268.116
  21306264.443   -14317645.17844  -9899476.56542  21306266.168    21306264.366
  20467682.775   -17143954.14544 -13345747.26142  20467684.767    20467682.629
 04  5 21  3 13  0.0000000  0  5G27G16G13G20G 1
  23311798.842    -2174996.38443  -1691922.57742  23311801.043    23311800.775
  21424055.639   -12191545.59043  -9483880.01142  21424057.579    21424054.375
  21640104.813   -11123462.20543  -8519420.89742  21640107.552    21640104.511
  21320625.797   -14242176.69544  -9840669.99342  21320627.486    21320625.567
  20467558.853   -17144605.29244 -13346254.63742  20467560.883    20467558.737
 04  5 21  3 13 30.0000000  0  5G27G16G13G20G 1
  23298911.632    -2242718.77643  -1744693.22342  23298913.777    23298913.499
  21428555.449   -12167898.73843  -9465453.88142  21428557.399    21428554.159
  21627968.611   -11187237.97443  -8569116.26442  21627971.322    21627968.400
  21335066.911   -14166288.41344  -9781536.29742  21335068.650    21335066.739
  20467484.764   -17144994.41444 -13346557.83642  20467486.805    20467484.648
 04  5 21  3 14  0.0000000  0  5G27G16G13G20G 1
  23286060.703    -2310250.65143  -1797315.39142  23286062.905    23286062.644
  21433167.595   -12143661.21843  -9446567.49742  21433169.531    21433166.368
  21615866.868   -11250832.82443  -8618670.67142  21615869.593    21615866.587
  21349594.091   -14089947.53844  -9722049.94142  21349595.831    21349594.013
  20467467.370   -17145085.72544 -13346628.98042  20467469.425    20467467.260
 04  5 21  3 14 30.0000000  0  5G27G16G13G20G 1
  23273242.889    -2377608.73943  -1849802.13142  23273245.012    23273244.812
  21437889.002   -12118850.53943  -9427234.48742  21437890.842    21437887.668
  21603796.754   -11314262.02743  -8668096.01642  21603799.510    21603796.374
  21364203.820   -14013172.86644  -9662225.55942  21364205.597    21364203.788
  20467503.650   -17144894.98644 -13346480.34342  20467505.726    20467503.561
 04  5 21  3 15  0.0000000  0  5G27G16G13G20G 1
  23260460.530    -2444779.96843  -1902143.27842  23260462.722    23260462.464
  21442721.632   -12093455.00843  -9407445.75342  21442723.449    21442720.294
  21591760.617   -11377511.63943  -8717381.39742  21591763.415    21591760.307
  21378898.164   -13935953.82344  -9602054.90942  21378899.930    21378898.063
  20467596.221   -17144408.55144 -13346101.29942  20467598.266    20467596.127
 04  5 21  3 15 30.0000000  0  5G27G16G13G20G 1
  23247716.547    -2511750.09643  -1954327.72142  23247718.642    23247718.442
  21447668.039   -12067461.42243  -9387190.99142  21447669.885    21447666.748
  21579761.692   -11440566.39743  -8766514.94842  21579764.473    21579761.330
  21393679.353   -13858278.45944  -9541528.68842  21393681.106    21393679.199
  20467747.926   -17143611.20344 -13345479.97842  20467749.974    20467747.810
 04  5 21  3 16  0.0000000  0  5G27G16G13G20G 1
  23235011.196    -2578516.95643  -2006353.78842  23235013.309    23235013.022
  21452728.473   -12040868.59543  -9366469.30142  21452730.372    21452727.135
  21567800.567   -11503422.74743  -8815493.91642  21567803.312    21567800.114
  21408547.394   -13780146.86544  -9480646.97142  21408549.147    21408547.208
  20467959.324   -17142500.16944 -13344614.23142  20467961.365    20467959.272
 04  5 21  3 16 30.0000000  0  5G27G16G13G20G 1
  23222343.577    -2645085.11143  -2058225.00742  23222345.798    23222345.428
  21457901.829   -12013682.39943  -9345285.24042  21457903.738    21457900.516
  21555876.599   -11566083.70444  -8864320.61442  21555879.279    21555876.090
  21423500.850   -13701565.81643  -9419415.01442  21423502.670    21423500.665
  20468229.785   -17141078.98944 -13343506.81142  20468231.783    20468229.685
 04  5 21  3 17  0.0000000  0  5G27G16G13G20G 1
  23209712.130    -2711463.85743  -2109948.63642  23209714.287    23209713.814
  21463186.046   -11985913.21443  -9323646.90342  21463187.983    21463184.873
  21543988.160   -11628557.56144  -8913001.53242  21543990.855    21543987.633
  21438537.645   -13622546.99043  -9357841.93742  21438539.435    21438537.462
  20468557.628   -17139356.26244 -13342164.42542  20468559.613    20468557.473
 04  5 21  3 17 30.0000000  0  5G27G16G13G20G 1
  23197117.981    -2777645.55543  -2161518.71442  23197120.183    23197119.810
  21468582.514   -11957554.43743  -9301549.14042  21468584.456    21468581.331
  21532137.176   -11690835.50743  -8961529.78542  21532139.794    21532136.569
  21453658.788   -13543085.02843  -9295923.56542  21453660.544    21453658.638
  20468944.482   -17137323.49544 -13340580.44742  20468946.481    20468944.295
 04  5 21  3 18  0.0000000  0  5G27G16G13G20G 1
  23184561.536    -2843629.82143  -2212934.94742  23184563.669    23184563.458
  21474090.996   -11928607.10843  -9278992.77842  21474092.937    21474089.799
  21520323.410   -11752916.11443  -9009904.25542  21520326.137    21520323.040
  21468863.855   -13463181.96143  -9233661.47342  21468865.566    21468863.726
  20469390.484   -17134979.71344 -13338754.12342  20469392.522    20469390.349
 04  5 21  3 18 30.0000000  0  5G27G16G13G20G 1
  23172043.256    -2909414.26843  -2264195.47142  23172045.312    23172045.103
  21479711.766   -11899069.76643  -9255976.66042  21479713.720    21479710.614
  21508548.124   -11814795.41743  -9058121.85142  21508550.802    21508547.836
  21484152.827   -13382837.65544  -9171055.56442  21484154.571    21484152.776
  20469896.256   -17132321.57144 -13336682.83242  20469898.332    20469896.193
 04  5 21  3 19  0.0000000  0  5G27G16G13G20G 1
  23159561.131    -2975007.60343  -2315307.09642  23159563.244    23159563.068
  21485442.889   -11868952.57843  -9232508.70742  21485444.867    21485441.806
  21496809.700   -11876481.17243  -9106188.64142  21496812.353    21496809.378
  21499523.751   -13302063.20644  -9108114.46842  21499525.504    21499523.677
  20470460.366   -17129357.13244 -13334372.87842  20470462.410    20470460.312
 04  5 21  3 19 30.0000000  0  5G27G16G13G20G 1
  23147117.171    -3040401.40643  -2366263.23142  23147119.250    23147118.989
  21491285.618   -11838248.33543  -9208583.31942  21491287.643    21491284.656
  21485110.090   -11937963.39744  -9154096.84342  21485112.793    21485109.739
  21514977.681   -13220852.49743  -9044833.43242  21514979.426    21514977.599
  20471084.561   -17126077.02344 -13331816.94442  20471086.585    20471084.490
 04  5 21  3 20  0.0000000  0  5G27G16G13G20G 1
  23134711.092    -3105595.37443  -2417063.63742  23134713.174    23134712.954
  21497240.079   -11806958.03543  -9184201.26142  21497241.979    21497239.000
  21473449.343   -11999240.69043  -9201845.35442  21473452.090    21473449.049
  21530514.201   -13139207.58943  -8981214.04942  21530515.972    21530514.133
  20471769.020   -17122480.15644 -13329014.18042  20471771.042    20471768.929
 04  5 21  3 20 30.0000000  0  5G27G16G13G20G 1
  23122344.299    -3170582.44343  -2467702.84442  23122346.386    23122346.235
  21503307.077   -11775075.64743  -9159357.83242  21503309.000    21503306.020
  21461829.235   -12060304.37343  -9249427.42542  21461832.009    21461828.912
  21546134.332   -13057123.66643  -8917252.59442  21546136.049    21546134.203
  20472515.294   -17118558.52944 -13325958.35942  20472517.296    20472515.138
 04  5 21  3 21  0.0000000  0  5G27G16G13G20G 1
  23110012.049    -3235388.55143  -2518201.04442  23110014.164    23110013.926
  21509481.481   -11742628.58943  -9134074.40742  21509483.396    21509480.493
  21450245.135   -12121179.41244  -9296862.49342  21450247.845    21450244.710
  21561832.465   -12974629.14543  -8852971.19842  21561834.224    21561832.439
  20473318.539   -17114337.37044 -13322669.13542  20473320.548    20473318.382
 04  5 21  3 21 30.0000000  0  5G27G16G13G20G 1
  23097715.081    -3300009.07543  -2568554.64342  23097717.202    23097716.992
  21515764.062   -11709613.42243  -9108348.29442  21515765.969    21515762.992
  21438698.109   -12181859.71244  -9344145.82942  21438700.814    21438697.551
  21577609.243   -12891721.74343  -8788368.06942  21577610.999    21577609.241
  20474179.800   -17109811.22744 -13319142.26142  20474181.874    20474179.630
 04  5 21  3 22  0.0000000  0  5G27G16G13G20G 1
  23085454.867    -3364436.86743  -2618758.06842  23085456.977    23085456.710
  21522155.900   -11676024.42443  -9082175.05142  21522157.783    21522154.678
  21427189.637   -12242336.74443  -9391270.75642  21427192.369    21427189.216
  21593465.471   -12808396.76843  -8723439.55842  21593467.215    21593465.443
  20475100.644   -17104972.29344 -13315371.65542  20475102.712    20475100.488
 04  5 21  3 22 30.0000000  0  5G27G16G13G20G 1
  23073234.480    -3428654.89043  -2668798.03042  23073236.609    23073236.292
  21528659.878   -11641845.82443  -9055542.37142  21528661.769    21528658.609
  21415723.337   -12302592.36143  -9438223.15242  21415726.040    21415722.967
  21609403.982   -12724639.54343  -8658174.23542  21609405.724    21609403.909
  20476084.409   -17099802.51744 -13311343.25042  20476086.456    20476084.221
 04  5 21  3 23  0.0000000  0  5G27G16G13G20G 1
  23061050.465    -3492681.19743  -2718688.59642  23061052.585    23061052.306
  21535272.194   -11607097.17043  -9028465.49242  21535274.171    21535271.117
  21404296.052   -12362643.03844  -9485015.86242  21404298.774    21404295.699
  21625420.881   -12640470.54443  -8592588.05742  21625422.614    21625420.855
  20477127.926   -17094318.94244 -13307070.32142  20477129.993    20477127.764
 04  5 21  3 23 30.0000000  0  5G27G16G13G20G 1
  23048905.440    -3556503.69243  -2768420.33742  23048907.569    23048907.281
  21541995.268   -11571767.64943  -9000935.99042  21541997.145    21541994.149
  21392910.294   -12422475.54244  -9531638.55842  21392913.007    21392910.008
  21641517.923   -12555879.92343  -8526673.31842  21641519.689    21641517.954
  20478233.568   -17088508.66744 -13302542.82442  20478235.661    20478233.476
 04  5 21  3 24  0.0000000  0  5G27G16G13G20G 1
  23036803.838    -3620097.90643  -2817974.21542  23036805.994    23036805.670
  21548833.231   -11535834.10643  -8972935.82342  21548835.097    21548832.088
  21381571.047   -12482063.57344  -9578070.76642  21381573.756    21381570.786
  21657699.405   -12470845.77343  -8460412.97142  21657701.184    21657699.439
  20479406.121   -17082346.61144 -13297741.21142  20479408.236    20479406.076
 04  5 21  3 24 30.0000000  0  5G27G16G13G20G 1
  23024741.349    -3683486.79943  -2867368.10842  23024743.517    23024743.076
  21555781.464   -11499320.81143  -8944483.89542  21555783.402    21555780.399
  21370274.217   -12541428.78144  -9624329.34042  21370276.916    21370273.929
  21673960.472   -12385393.40543  -8393826.75342  21673962.257    21673960.515
  20480641.428   -17075854.79444 -13292682.63942  20480643.510    20480641.409
 04  5 21  3 25  0.0000000  0  5G27G16G13G20G 1
  23012716.088    -3746679.48043  -2916609.09742  23012718.268    23012717.933
  21562837.980   -11462238.43943  -8915588.53642  21562839.896    21562836.921
  21359018.225   -12600579.36944  -9670420.68442  21359020.952    21359017.852
  21690298.961   -12299534.37443  -8326923.65242  21690300.750    21690298.934
  20481937.948   -17069041.51244 -13287373.58142  20481940.011    20481937.890
 04  5 21  3 25 30.0000000  0  6G27G16G13G20G 1G 3
  22999747.785    -3814828.49043  -2969712.16442  22999749.867    22999749.512
  21569022.097   -11429740.93543  -8890265.80242  21569023.983    21569021.015
  21346822.835   -12664666.54544  -9720358.71642  21346825.580    21346822.485
  21705733.899   -12218423.44243  -8263720.36342  21705735.695    21705733.801
  20482315.309   -17067058.36444 -13285828.26642  20482317.364    20482315.201
  24568218.745    -2166855.26353  -1655668.86552  24568221.227    24568221.841
 04  5 21  3 26  0.0000000  0  6G27G16G13G20G 1G 3
  22987714.545    -3878063.67543  -3018986.27542  22987716.659    22987716.136
  21576211.589   -11391959.64443  -8860825.82542  21576213.517    21576210.468
  21335566.679   -12723818.04143  -9766450.76942  21335569.411    21335566.200
  21722143.077   -12132193.09543  -8196527.93642  21722144.835    21722142.900
  20483651.950   -17060034.38344 -13280355.03142  20483653.955    20483651.724
  24553725.831    -2243014.24543  -1715013.36442  24553728.403    24553729.191
 04  5 21  3 26 30.0000000  0  6G27G16G13G20G 1G 3
  22975702.588    -3941186.98143  -3068173.20742  22975704.718    22975704.179
  21583492.408   -11353698.12043  -8831011.64742  21583494.398    21583491.380
  21324336.111   -12782834.48044  -9812437.57242  21324338.848    21324335.716
  21738612.114   -12045647.76943  -8129090.06242  21738613.896    21738611.953
  20485034.226   -17052770.75244 -13274695.05942  20485036.241    20485033.957
  24539241.006    -2319131.21543  -1774325.12242  24539243.526    24539244.588
 04  5 21  3 27  0.0000000  0  6G27G16G13G20G 1G 3
  22963723.965    -4004135.11043  -3117223.65442  22963726.098    22963725.534
  21590876.603   -11314894.45743  -8800775.01742  21590878.528    21590875.534
  21313143.598   -12841651.46944  -9858268.96442  21313146.296    21313143.234
  21755152.769   -11958726.54343  -8061359.29142  21755154.562    21755152.593
  20486474.298   -17045203.26144 -13268798.30242  20486476.328    20486474.041
  24524777.077    -2395139.49543  -1833552.25342  24524779.459    24524780.520
 04  5 21  3 27 30.0000000  0  6G27G16G13G20G 1G 3
  22951779.602    -4066902.37043  -3166133.14542  22951781.787    22951781.350
  21598364.700   -11275544.26343  -8770112.52042  21598366.660    21598363.609
  21301990.514   -12900261.62544  -9903939.18742  21301993.194    21301990.123
  21771765.517   -11871426.27943  -7993333.15042  21771767.339    21771765.402
  20487973.319   -17037325.37744 -13262659.68442  20487975.410    20487973.214
  24510335.014    -2471030.22443  -1892687.71842  24510337.418    24510338.885
 04  5 21  3 28  0.0000000  0  6G27G16G13G20G 1G 3
  22939867.841    -4129499.64343  -3214910.17442  22939869.886    22939869.557
  21605954.402   -11235659.93043  -8739033.81042  21605956.390    21605953.336
  21290874.843   -12958674.67344  -9949455.80942  21290877.541    21290874.475
  21788447.702   -11783760.22843  -7925021.98642  21788449.568    21788447.894
  20489529.628   -17029147.17444 -13256287.05642  20489531.704    20489529.543
  24495914.191    -2546811.34543  -1951737.78042  24495916.328    24495917.992
 04  5 21  3 28 30.0000000  0  6G27G16G13G20G 1G 3
  22927990.689    -4191913.74343  -3263544.48642  22927992.796    22927992.476
  21613647.926   -11195229.70543  -8707529.73042  21613649.897    21613646.920
  21279799.526   -13016875.97144  -9994807.43142  21279802.200    21279799.077
  21805201.781   -11695717.64843  -7856417.42242  21805203.588    21805201.926
  20491145.720   -17020654.62544 -13249669.48442  20491147.784    20491145.600
  24481516.941    -2622466.13653  -2010689.35252  24481519.281    24481521.380
 04  5 21  3 29  0.0000000  0  6G27G16G13G20G 1G 3
  22916146.259    -4254156.70843  -3312045.46242  22916148.291    22916147.889
  21621442.805   -11154267.50943  -8675611.12342  21621444.720    21621441.711
  21268762.505   -13074875.91044 -10040002.15842  21268765.213    21268761.970
  21822024.679   -11607312.99743  -7787530.72142  21822026.519    21822024.830
  20492819.432   -17011858.90744 -13242815.67742  20492821.506    20492819.289
  24467142.692    -2698003.98243  -2069549.86842  24467144.803    24467146.994
 04  5 21  3 29 30.0000000  0  6G27G16G13G20G 1G 3
  22904335.221    -4316223.42543  -3360409.09042  22904337.270    22904336.844
  21629339.441   -11112769.80443  -8643275.24342  21629341.357    21629338.473
  21257764.936   -13132667.91744 -10085034.85142  21257767.649    21257764.436
  21838916.888   -11518543.81343  -7718359.96942  21838918.718    21838917.189
  20494552.035   -17002754.01944 -13235720.95342  20494554.076    20494551.868
  24452792.350    -2773416.76643  -2128312.97642  24452794.385    24452796.255
 04  5 21  3 30  0.0000000  0  6G27G16G13G20G 1G 3
  22892557.569    -4378115.06043  -3408636.29942  22892559.625    22892559.090
  21637337.593   -11070739.20743  -8610524.11742  21637339.465    21637336.593
  21246807.089   -13190251.85944 -10129905.41842  21246809.761    21246806.520
  21855877.846   -11429413.67043  -7648907.94842  21855879.642    21855878.145
  20496343.321   -16993340.37744 -13228385.64042  20496345.370    20496343.196
  24438466.125    -2848702.57243  -2186977.11742  24438468.262    24438469.717
 04  5 21  3 30 30.0000000  0  6G27G16G13G20G 1G 3
  22880813.903    -4439828.37343  -3456724.52942  22880815.997    22880815.393
  21645437.560   -11028173.85743  -8577356.30842  21645439.416    21645436.458
  21235889.786   -13247622.69944 -10174609.93542  21235892.470    21235889.130
  21872907.539   -11339921.78643  -7579174.07542  21872909.360    21872907.878
  20498194.316   -16983613.61944 -13220806.35142  20498196.329    20498194.158
  24424164.976    -2923854.79843  -2245537.12842  24424167.475    24424168.528
 04  5 21  3 31  0.0000000  0  6G27G16G13G20G 1G 3
  22869104.041    -4501364.03743  -3504674.35542  22869106.149    22869105.559
  21653638.744   -10985076.13543  -8543773.66042  21653640.637    21653637.677
  21225013.129   -13304779.63444 -10219147.77742  21225015.843    21225012.525
  21890005.546   -11250071.36143  -7509160.78942  21890007.364    21890005.825
  20500104.802   -16973573.83244 -13212983.13442  20500106.817    20500104.679
  24409889.740    -2998871.22543  -2303991.39542  24409892.314    24409893.187
 04  5 21  3 31 30.0000000  0  6G27G16G13G20G 1G 3
  22857427.387    -4562725.55443  -3552488.48342  22857429.428    22857428.834
  21661940.370   -10941451.32943  -8509780.30242  21661942.211    21661939.140
  21214176.748   -13361724.71044 -10263520.53242  21214179.491    21214176.236
  21907170.664   -11159868.46243  -7438872.86642  21907172.427    21907170.892
  20502074.395   -16963223.47444 -13204917.92142  20502076.420    20502074.332
  24395640.273    -3073752.20343  -2362340.05942  24395642.868    24395643.757
 04  5 21  3 32  0.0000000  0  6G27G16G13G20G 1G 3
  22845784.550    -4623908.84343  -3600163.71342  22845786.647    22845785.992
  21670342.665   -10897296.78543  -8475374.15542  21670344.555    21670341.460
  21203381.835   -13418452.30144 -10307723.82742  21203384.533    21203381.300
  21924403.131   -11069311.20843  -7368308.83542  21924404.910    21924403.406
  20504104.122   -16952557.39844 -13196606.69642  20504106.136    20504103.973
  24381418.023    -3148490.09243  -2420577.25742  24381420.622    24381421.181
 04  5 21  3 32 30.0000000  0  6G27G16G13G20G 1G 3
  22834174.377    -4684920.32543  -3647705.07442  22834176.487    22834175.767
  21678844.187   -10852620.70843  -8440561.62542  21678846.104    21678843.068
  21192627.307   -13474967.44944 -10351761.58242  21192630.000    21192626.773
  21941701.329   -10978408.76343  -7297475.78942  21941703.154    21941701.509
  20506192.679   -16941581.63344 -13188054.14442  20506194.699    20506192.551
  24367222.573    -3223088.68743  -2478705.92042  24367225.072    24367225.314
 04  5 21  3 33  0.0000000  0  6G27G16G13G20G 1G 3
  22822598.577    -4745751.44243  -3695105.88942  22822600.673    22822599.906
  21687446.369   -10807416.22543  -8405337.34142  21687448.270    21687445.186
  21181915.230   -13531259.89144 -10395625.79142  21181917.888    21181914.700
  21959066.319   -10887155.16643  -7226369.12342  21959068.153    21959066.507
  20508342.068   -16930286.62144 -13179252.83242  20508344.073    20508341.896
  24353055.390    -3297536.31143  -2536716.94042  24353058.070    24353058.320
 04  5 21  3 33 30.0000000  0  6G27G16G13G20G 1G 3
  22811056.346    -4806405.93843  -3742369.07442  22811058.478    22811057.816
  21696148.002   -10761688.62843  -8369705.43742  21696149.946    21696146.770
  21171245.112   -13587331.70444 -10439318.09142  21171247.834    21171244.512
  21976497.072   -10795556.37443  -7154993.48642  21976498.874    21976497.171
  20510551.677   -16918675.13944 -13170204.92742  20510553.692    20510551.467
  24338916.460    -3371833.25943  -2594610.50842  24338919.278    24338919.912
 04  5 21  3 34  0.0000000  0  6G27G16G13G20G 1G 3
  22799547.485    -4866885.10843  -3789495.64242  22799549.567    22799548.925
  21704948.693   -10715440.69743  -8333668.08242  21704950.636    21704947.397
  21160617.012   -13643182.70644 -10482838.33342  21160619.754    21160616.325
  21993992.697   -10703616.47843  -7083352.05642  21993994.476    21993992.825
  20512821.395   -16906747.66644 -13160910.79342  20512823.410    20512821.212
  24324807.163    -3445977.88743  -2652385.40642  24324809.573    24324810.487
 04  5 21  3 34 30.0000000  0  6G27G16G13G20G 1G 3
  22788071.366    -4927192.40843  -3836488.26742  22788073.451    22788072.772
  21713847.499   -10668677.76043  -8297229.42942  21713849.394    21713846.125
  21150030.593   -13698814.86244 -10526188.05042  21150033.345    21150029.798
  22011552.117   -10611341.20543  -7011449.28742  22011553.912    22011552.251
  20515150.776   -16894506.76244 -13151372.42542  20515152.771    20515150.562
  24310726.867    -3519970.67943  -2710041.92342  24310729.143    24310730.075
 04  5 21  3 35  0.0000000  0  6G27G16G13G20G 1G 3
  22776628.994    -4987322.24543  -3883342.63542  22776631.114    22776630.351
  21722844.850   -10621395.93443  -8260386.43642  21722846.805    21722843.521
  21139487.103   -13754221.12144 -10569361.73842  21139489.881    21139486.323
  22029175.898   -10518727.81943  -6939283.06742  22029177.701    22029176.071
  20517540.998   -16881945.97044 -13141584.79442  20517543.013    20517540.817
  24296677.010    -3593802.84143  -2767573.34642  24296679.396    24296680.065
 04  5 21  3 35 30.0000000  0  6G27G16G13G20G 1G 3
  22765220.239    -5047275.63643  -3930059.51942  22765222.335    22765221.408
  21731940.536   -10573597.98143  -8223141.26842  21731942.484    21731939.109
  21128986.784   -13809400.73444 -10612358.81542  21128989.556    21128986.036
  22046863.248   -10425779.80443  -6866856.08942  22046865.043    22046863.588
  20519992.066   -16869065.41744 -13131547.98842  20519994.087    20519991.940
  24282658.170    -3667472.06843  -2824977.80742  24282660.570    24282661.117
 04  5 21  3 36  0.0000000  0  6G27G16G13G20G 1G 3
  22753844.637    -5107054.87443  -3976640.67742  22753846.698    22753845.706
  21741133.661   -10525287.89343  -8185497.03942  21741135.631    21741132.095
  21118529.385   -13864354.49044 -10655179.90642  21118532.135    21118528.650
  22064613.501   -10332501.73643  -6794171.92642  22064615.297    22064613.851
  20522503.674   -16855866.60644 -13121263.18942  20522505.713    20522503.602
  24268670.526    -3740977.44243  -2882254.54342  24268673.011    24268673.506
 04  5 21  3 36 30.0000000  0  6G27G16G13G20G 1G 3
  22742502.252    -5166659.56043  -4023085.82242  22742504.319    22742503.298
  21750423.925   -10476467.14343  -8147454.89242  21750425.936    21750422.377
  21108115.390   -13919080.26544 -10697823.35542  21108118.147    21108114.636
  22082426.158   -10238896.06543  -6721232.49342  22082427.930    22082426.379
  20525076.191   -16842348.20244 -13110729.36642  20525078.211    20525076.049
  24254714.858    -3814315.58243  -2939401.00342  24254717.279    24254717.509
 04  5 21  3 37  0.0000000  0  6G27G16G13G20G 1G 3
  22731193.835    -5226085.11443  -4069391.38642  22731195.942    22731194.863
  21759811.868   -10427132.74243  -8109012.49642  21759813.898    21759810.501
  21097746.051   -13973571.92844 -10740284.37642  21097748.755    21097745.256
  22100301.481   -10144960.50443  -6648035.98642  22100303.317    22100301.562
  20527710.565   -16828504.71244 -13099942.22542  20527712.569    20527710.365
  24240792.053    -3887478.79743  -2996411.15742  24240794.552    24240794.994
 04  5 21  3 37 30.0000000  0  6G27G16G13G20G 1G 3
  22719918.398    -5285337.00243  -4115561.60542  22719920.518    22719919.574
  21769296.146   -10377291.98243  -8070175.53042  21769298.217    21769294.852
  21087420.366   -14027833.27444 -10782565.91742  21087423.108    21087419.710
  22118238.248   -10050702.98343  -6574588.61542  22118240.057    22118238.174
  20530405.843   -16814340.66044 -13088905.29642  20530407.888    20530405.703
  24226902.326    -3960469.08643  -3053286.61542  24226904.853    24226905.264
 04  5 21  3 38  0.0000000  0  6G27G16G13G20G 1G 3
  22708676.149    -5344415.17743  -4161596.46342  22708678.232    22708677.391
  21778876.649   -10326946.70543  -8030945.44642  21778878.619    21778875.242
  21077138.860   -14081862.70744 -10824666.75342  21077141.581    21077138.198
  22136235.568    -9956126.26543  -6500892.51342  22136237.472    22136235.706
  20533162.278   -16799855.39644 -13077618.07542  20533164.303    20533162.114
  24213046.378    -4033283.33043  -3110024.91642  24213048.675    24213048.996
 04  5 21  3 38 30.0000000  0  6G27G16G13G20G 1G 3
  22697467.277    -5403318.04443  -4207494.74042  22697469.360    22697468.430
  21788552.961   -10276097.14643  -7991322.39242  21788554.976    21788551.601
  21066902.124   -14135656.95344 -10866584.32442  21066904.850    21066901.506
  22154293.619    -9861231.30643  -6426948.43442  22154295.455    22154293.711
  20535980.337   -16785046.45644 -13066078.63442  20535982.350    20535980.192
  24199224.551    -4105916.84143  -3166622.31942  24199226.878    24199227.375
 04  5 21  3 39  0.0000000  0  6G27G16G13G20G 1G 3
  22686291.805    -5462045.13643  -4253256.04542  22686293.901    22686292.960
  21798325.158   -10224744.47243  -7951307.32342  21798327.134    21798323.915
  21056710.573   -14189213.87844 -10908316.97142  21056713.252    21056709.888
  22172411.692    -9766020.03443  -6352757.86542  22172413.538    22172411.825
  20538860.245   -16769912.44644 -13054285.89742  20538862.231    20538860.093
  24185437.661    -4178365.90343  -3223076.02042  24185440.047    24185440.787
 04  5 21  3 39 30.0000000  0  6G27G16G13G20G 1G 3
  22675149.381    -5520598.54343  -4298882.01042  22675151.494    22675150.526
  21808192.206   -10172892.65543  -7910903.29742  21808194.254    21808191.099
  21046564.036   -14242534.04944 -10949865.13042  21046566.743    21046563.299
  22190589.017    -9670497.42543  -6278324.68442  22190590.920    22190589.254
  20541801.737   -16754454.70944 -13042240.89242  20541803.717    20541801.629
  24171686.252    -4250629.46843  -3279385.18742  24171688.686    24171689.268
 04  5 21  3 40  0.0000000  0  6G27G16G13G20G 1G 3
  22664040.007    -5578978.70443  -4344372.98542  22664042.093    22664041.055
  21818153.845   -10120543.90143  -7870112.05842  21818155.868    21818152.769
  21036462.927   -14295615.93144 -10991227.61742  21036465.630    21036462.060
  22208825.202    -9574666.22043  -6203651.07042  22208827.080    22208825.386
  20544804.929   -16738672.67744 -13029943.19842  20544806.917    20544804.858
  24157970.826    -4322704.90543  -3335547.79242  24157973.139    24157973.551
 04  5 21  3 40 30.0000000  0  6G27G16G13G20G 1G 3
  22652964.393    -5637181.30243  -4389725.59542  22652966.501    22652965.510
  21828210.439   -10067695.72343  -7828931.64942  21828212.515    21828209.401
  21026408.210   -14348453.69744 -11032399.87142  21026410.909    21026407.355
  22227120.458    -9478524.43843  -6128735.45342  22227122.336    22227120.698
  20547870.844   -16722561.13344 -13017388.74742  20547872.853    20547870.771
  24144292.338    -4394584.50043  -3391557.73042  24144294.815    24144295.250
 04  5 21  3 41  0.0000000  0  6G27G16G13G20G 1G 3
  22641921.157    -5695213.40043  -4434945.32942  22641923.247    22641922.332
  21838360.355   -10014357.34343  -7787369.26242  21838362.427    21838359.334
  21016398.882   -14401053.05844 -11073386.35742  21016401.593    21016398.061
  22245472.729    -9382082.15443  -6053585.66942  22245474.583    22245473.098
  20550998.286   -16706126.62744 -13004582.63942  20551000.271    20550998.127
  24130650.648    -4466272.28143  -3447418.28642  24130653.073    24130653.247
 04  5 21  3 41 30.0000000  0  6G27G16G13G20G 1G 3
  22630910.939    -5753072.25843  -4480030.10842  22630913.075    22630911.966
  21848603.858    -9960527.47543  -7745423.90942  21848605.904    21848602.881
  21006435.845   -14453409.19444 -11114183.31342  21006438.533    21006435.087
  22263882.283    -9285339.04343  -5978201.46342  22263884.125    22263882.773
  20554187.781   -16689365.21744 -12991521.79642  20554189.805    20554187.666
  24117046.712    -4537762.02143  -3503124.47942  24117049.026    24117049.014
 04  5 21  3 42  0.0000000  0  6G27G16G13G20G 1G 3
  22619935.182    -5810750.15043  -4524973.87942  22619937.279    22619936.031
  21858941.916    -9906200.43243  -7703091.14142  21858943.954    21858940.991
  20996520.770   -14505512.99644 -11154783.64842  20996523.492    20996520.065
  22282350.195    -9188289.84043  -5902578.73342  22282351.968    22282350.672
  20557441.232   -16672268.49044 -12978199.66942  20557443.243    20557441.070
  24103481.976    -4609043.25243  -3558668.17542  24103484.522    24103484.286
 04  5 21  3 42 30.0000000  0  6G27G16G13G20G 1G 3
  22608991.630    -5868258.46743  -4569785.48742  22608993.740    22608992.532
  21869372.086    -9851389.57143  -7660381.36742  21869374.148    21869371.103
  20986651.885   -14557373.98644 -11195194.78342  20986654.682    20986651.231
  22300873.598    -9090948.67543  -5826728.51842  22300875.427    22300874.181
  20560756.408   -16654847.06544 -12964624.53142  20560758.389    20560756.210
  24089955.678    -4680124.11043  -3614055.76542  24089958.065    24089957.797
 04  5 21  3 43  0.0000000  0  6G27G16G13G20G 1G 3
  22598081.128    -5925592.74843  -4614461.49342  22598083.310    22598082.333
  21879894.845    -9796092.19343  -7617292.49642  21879896.836    21879893.762
  20976830.445   -14608985.82844 -11235411.77142  20976833.256    20976829.833
  22319453.096    -8993313.64343  -5750649.31542  22319454.832    22319453.508
  20564134.393   -16637095.70444 -12950792.29842  20564136.382    20564134.193
  24076468.960    -4750996.96543  -3669281.30642  24076471.089    24076470.741
 04  5 21  3 43 30.0000000  0  6G27G16G13G20G 1G 3
  22587203.838    -5982753.47843  -4659002.25842  22587205.981    22587205.071
  21890509.743    -9740310.70743  -7573826.38942  21890511.764    21890508.595
  20967056.648   -14660347.57444 -11275433.88042  20967059.414    20967055.953
  22338087.825    -8895387.75543  -5674343.46242  22338089.603    22338088.090
  20567575.262   -16619014.02444 -12936702.67542  20567577.270    20567575.027
  24063022.388    -4821658.95643  -3724342.53542  24063024.486    24063024.182
 04  5 21  3 44  0.0000000  0  6G27G16G13G20G 1G 3
  22576359.455    -6039741.44343  -4703408.41842  22576361.482    22576360.502
  21901216.025    -9684048.11843  -7529985.40342  21901218.128    21901214.953
  20957330.590   -14711458.25744 -11315260.35842  20957333.380    20957329.838
  22356777.295    -8797174.45043  -5597813.66742  22356779.076    22356777.515
  20571078.994   -16600601.86844 -12922355.53942  20571080.960    20571078.698
  24049616.318    -4892107.77743  -3779237.59942  24049618.578    24049618.338
 04  5 21  3 44 30.0000000  0  6G27G16G13G20G 1G 3
  22565547.966    -6096555.92143  -4747679.40042  22565550.023    22565549.034
  21912013.911    -9627305.32443  -7485770.22942  21912015.930    21912012.667
  20947652.751   -14762315.43344 -11354889.29942  20947655.553    20947652.004
  22375521.062    -8698675.52143  -5521061.30142  22375522.872    22375521.251
  20574645.856   -16581857.59044 -12907749.60642  20574647.873    20574645.641
  24036251.538    -4962339.17943  -3833963.33242  24036253.786    24036253.477
 04  5 21  3 45  0.0000000  0  6G27G16G13G20G 1G 3
  22554769.417    -6153197.37843  -4791815.58742  22554771.451    22554770.451
  21922902.647    -9570084.75743  -7441182.77342  21922904.621    21922901.370
  20938023.372   -14812917.89244 -11394319.75542  20938026.146    20938022.627
  22394318.463    -8599894.01543  -5444088.72442  22394320.348    22394318.792
  20578276.001   -16562780.89544 -12892884.64742  20578277.999    20578275.790
  24022928.803    -5032350.89443  -3888517.80642  24022931.010    24022930.817
 04  5 21  3 45 30.0000000  0  6G27G16G13G20G 1G 3
  22544023.646    -6209666.62543  -4835817.56842  22544025.676    22544024.673
  21933881.729    -9512389.23843  -7396225.22242  21933883.734    21933880.429
  20928442.697   -14863264.59544 -11433550.92942  20928445.438    20928441.939
  22413169.067    -8500833.57643  -5366898.80642  22413170.919    22413169.388
  20581969.547   -16543371.67944 -12877760.58942  20581971.506    20581969.274
  24009648.432    -5102140.46943  -3942899.24842  24009650.719    24009650.529
 04  5 21  3 46  0.0000000  0  6G27G16G13G20G 1G 3
  22533310.911    -6265962.14143  -4879684.16142  22533312.965    22533311.934
  21944951.104    -9454219.19543  -7350897.90542  21944953.132    21944949.721
  20918911.314   -14913352.36544 -11472580.33342  20918914.040    20918910.544
  22432072.710    -8401494.79643  -5289491.99442  22432074.512    22432072.979
  20585726.665   -16523627.60644 -12862375.58642  20585728.690    20585726.448
  23996411.261    -5171703.04343  -3997103.79642  23996413.449    23996413.318
 04  5 21  3 46 30.0000000  0  6G27G16G13G20G 1G 3
  22522631.209    -6322084.15843  -4923415.56442  22522633.297    22522632.240
  21956110.256    -9395577.04443  -7305202.71742  21956112.321    21956108.870
  20909429.489   -14963179.76244 -11511406.85342  20909432.205    20909428.735
  22451028.542    -8301881.08143  -5211870.95742  22451030.328    22451028.855
  20589547.645   -16503548.41444 -12846729.47342  20589549.649    20589547.398
  23983217.472    -5241035.78743  -4051129.20042  23983219.876    23983219.830
 04  5 21  3 47  0.0000000  0  6G27G16G13G20G 1G 3
  22511984.300    -6378033.83643  -4967012.68142  22511986.405    22511985.324
  21967358.807    -9336465.60143  -7259141.85542  21967360.804    21967357.426
  20899997.330   -15012746.07844 -11550029.92942  20900000.051    20899996.604
  22470035.956    -8201995.96443  -5134038.42342  22470037.806    22470036.420
  20593432.301   -16483134.21444 -12830822.30042  20593434.311    20593432.125
  23970067.969    -5310136.28443  -4104973.66742  23970070.393    23970070.483
 04  5 21  3 47 30.0000000  0  6G27G16G13G20G 1G 3
  22501369.983    -6433812.11243  -5010476.23842  22501372.038    22501371.063
  21978696.161    -9276887.82643  -7212717.60942  21978698.095    21978694.745
  20890615.055   -15062050.52544 -11588448.95442  20890617.761    20890614.313
  22489094.409    -8101842.92643  -5055997.11442  22489096.272    22489094.962
  20597380.737   -16462385.04344 -12814654.11342  20597382.760    20597380.583
  23956963.104    -5379002.83543  -4158635.83742  23956965.493    23956965.517
 04  5 21  3 48  0.0000000  0  6G27G16G13G20G 1G 3
  22490788.475    -6489418.15443  -5053805.59142  22490790.519    22490789.595
  21990121.777    -9216845.15943  -7165931.11442  21990123.808    21990120.539
  20881282.996   -15111090.64144 -11626662.00242  20881285.718    20881282.271
  22508203.679    -8001423.80843  -4977748.47342  22508205.441    22508204.216
  20601393.215   -16441299.36944 -12798223.72442  20601395.224    20601393.097
  23943903.523    -5447631.32343  -4212112.52242  23943905.845    23943905.745
 04  5 21  3 48 30.0000000  0  6G27G16G13G20G 1G 3
  22480240.185    -6544849.33643  -5096998.67242  22480242.237    22480241.299
  22001636.109    -9156337.04343  -7118781.93142  22001638.071    22001634.874
  20872002.081   -15159861.92044 -11664665.56142  20872004.794    20872001.361
  22527363.373    -7900738.65343  -4899292.56642  22527365.142    22527364.047
  20605470.329   -16419873.91344 -12781528.56742  20605472.360    20605470.247
  23930890.064    -5516015.86743  -4265399.09742  23930892.462    23930892.542
 04  5 21  3 49  0.0000000  0  6G27G16G13G20G 1G 3
  22469724.529    -6600108.99643  -5140058.09342  22469726.602    22469725.605
  22013237.936    -9095368.66543  -7071274.10242  22013239.890    22013236.744
  20862771.972   -15208365.96744 -11702460.88642  20862774.701    20862771.321
  22546572.586    -7799793.28843  -4820633.87342  22546574.425    22546573.312
  20609611.670   -16398111.13144 -12764570.55842  20609613.692    20609611.566
  23917923.335    -5584156.59243  -4318495.70142  23917925.773    23917925.723
 04  5 21  3 49 30.0000000  0  6G27G16G13G20G 1G 3
  22459241.258    -6655198.83443  -5182985.21442  22459243.300    22459242.307
  22024926.712    -9033943.70143  -7023410.49342  22024928.618    22024925.464
  20853592.826   -15256602.54644 -11740047.79842  20853595.534    20853592.096
  22565830.761    -7698591.95143  -4741775.73842  22565832.516    22565831.290
  20613817.015   -16376011.84544 -12747350.33842  20613819.042    20613816.904
  23905003.200    -5652051.86743  -4371400.99442  23905005.712    23905005.477
 04  5 21  3 50  0.0000000  0  6G27G16G13G20G 1G 3
  22448790.723    -6710116.71843  -5225778.34142  22448792.758    22448791.809
  22036702.401    -8972062.14343  -6975191.09542  22036704.267    22036701.142
  20844465.285   -15304568.13344 -11777423.55342  20844467.956    20844464.462
  22585137.360    -7597135.37943  -4662718.70242  22585139.192    22585137.832
  20618086.984   -16353573.20144 -12729865.68542  20618089.002    20618086.842
  23892130.794    -5719696.54643  -4424111.09242  23892133.122    23892132.830
 04  5 21  3 50 30.0000000  0  6G27G16G13G20G 1G 3
  22438372.610    -6764864.65143  -5268439.01042  22438374.632    22438373.726
  22048564.185    -8909728.07543  -6926619.09542  22048566.063    22048562.792
  20835389.362   -15352262.64244 -11814588.08142  20835392.008    20835388.441
  22604491.593    -7495427.98643  -4583466.22042  22604493.467    22604492.162
  20622421.217   -16330796.29844 -12712117.44242  20622423.283    20622421.157
  23879306.306    -5787089.11343  -4476624.69442  23879308.668    23879308.302
 04  5 21  3 51  0.0000000  0  6G27G16G13G20G 1G 3
  22427986.965    -6819441.46143  -5310966.35742  22427989.049    22427987.984
  22060511.941    -8846942.17843  -6877695.02342  22060513.875    22060510.514
  20826365.506   -15399683.12044 -11851539.08042  20826368.169    20826364.589
  22623893.415    -7393471.37943  -4504019.56042  22623895.248    22623893.981
  20626820.312   -16307679.23444 -12694104.14742  20626822.353    20626820.199
  23866530.771    -5854225.37443  -4528938.61742  23866532.912    23866532.395
 04  5 21  3 51 30.0000000  0  6G27G16G13G20G 1G 3
  22417634.142    -6873845.51143  -5353359.06542  22417636.222    22417635.137
  22072545.557    -8783704.88343  -6828419.20942  22072547.515    22072544.127
  20817394.420   -15446826.29144 -11888273.98342  20817397.087    20817393.495
  22643342.385    -7291266.53943  -4424379.46642  22643344.286    22643342.916
  20631284.558   -16284219.50344 -12675823.83242  20631286.621    20631284.423
  23853804.756    -5921100.66343  -4581049.16342  23853806.868    23853806.347
 04  5 21  3 52  0.0000000  0  6G27G16G13G20G 1G 3
  22407314.396    -6928076.10243  -5395616.61342  22407316.468    22407315.334
  22084664.888    -8720017.88543  -6778792.97042  22084666.777    22084663.412
  20808476.636   -15493689.57144 -11924790.79742  20808479.327    20808475.726
  22662838.218    -7188815.25843  -4344547.33642  22662840.150    22662838.798
  20635814.232   -16260415.71544 -12657275.41842  20635816.329    20635814.070
  23841128.808    -5987711.23443  -4632953.41442  23841131.096    23841130.754
 04  5 21  3 52 30.0000000  0  6G27G16G13G20G 1G 3
  22397026.140    -6982140.63343  -5437744.76742  22397028.249    22397027.126
  22096867.821    -8655890.41943  -6728823.52642  22096869.803    22096866.534
  20799611.020   -15540278.40644 -11961093.74842  20799613.728    20799610.134
  22682379.132    -7086127.51943  -4264530.95342  22682381.043    22682379.616
  20640408.160   -16236274.44544 -12638464.03742  20640410.205    20640407.962
  23828502.876    -6054061.18443  -4684654.59342  23828505.023    23828504.892
 04  5 21  3 53  0.0000000  0  6G27G16G13G20G 1G 3
  22386771.182    -7036031.06843  -5479737.28342  22386773.243    22386772.074
  22109155.871    -8591316.77143  -6678506.39242  22109157.830    22109154.492
  20790799.533   -15586583.16544 -11997175.35542  20790802.244    20790798.605
  22701966.109    -6983198.04243  -4184326.21842  22701967.959    22701966.436
  20645067.975   -16211786.97444 -12619382.88842  20645070.032    20645067.717
  23815928.596    -6120139.27343  -4736143.98342  23815930.777    23815930.762
 04  5 21  3 53 30.0000000  0  6G27G16G13G20G 1G 3
  22376548.007    -7089753.62543  -5521598.95542  22376550.061    22376548.954
  22121527.173    -8526305.18043  -6627848.03142  22121529.142    22121525.853
  20782041.169   -15632608.28944 -12033039.05742  20782043.911    20782040.293
  22721597.152    -6880035.79243  -4103940.09642  22721599.152    22721597.547
  20649792.585   -16186958.88144 -12600036.31542  20649794.642    20649792.336
  23803405.430    -6185948.83443  -4787424.05342  23803407.560    23803408.003
 04  5 21  3 54  0.0000000  0  6G27G16G13G20G 1G 3
  22366357.360    -7143306.21043  -5563328.19342  22366359.390    22366358.116
  22133981.843    -8460855.43943  -6576848.22542  22133983.827    22133980.489
  20773336.830   -15678349.96744 -12068681.89842  20773339.503    20773335.909
  22741272.644    -6776641.02543  -4023372.78742  22741274.509    22741272.872
  20654582.624   -16161787.19944 -12580422.01442  20654584.642    20654582.407
  23790934.354    -6251484.17343  -4838490.49542  23790936.564    23790937.004
 04  5 21  3 54 30.0000000  0  6G27G16G13G20G 1G 3
  22356198.816    -7196689.51743  -5604925.51542  22356200.925    22356199.690
  22146519.257    -8394970.81243  -6525509.56242  22146521.206    22146517.982
  20764686.588   -15723807.01944 -12104102.95342  20764689.276    20764685.700
  22760991.608    -6673017.36043  -3942627.11042  22760993.437    22760991.770
  20659437.914   -16136272.02244 -12560540.05142  20659439.991    20659437.816
  23778516.133    -6316743.23243  -4889341.64542  23778518.217    23778518.718
 04  5 21  3 55  0.0000000  0  6G27G16G13G20G 1G 3
  22346072.852    -7249901.18843  -5646389.08742  22346074.940    22346073.846
  22159139.485    -8328650.66943  -6473831.53942  22159141.437    22159138.251
  20756091.393   -15768975.26744 -12139298.97342  20756094.046    20756090.449
  22780754.051    -6569164.90443  -3861703.16142  22780755.863    22780754.335
  20664359.305   -16110410.02644 -12540387.83342  20664361.372    20664359.157
  23766151.381    -6381720.28043  -4939973.06442  23766153.474    23766153.885
 04  5 21  3 55 30.0000000  0  6G27G16G13G20G 1G 3
  22335979.069    -7302944.94343  -5687721.83042  22335981.100    22335979.918
  22171841.484    -8261901.18543  -6421818.96142  22171843.457    22171840.208
  20747550.784   -15813856.46444 -12174271.30942  20747553.439    20747549.849
  22800558.796    -6465090.05743  -3780605.92242  22800560.608    22800559.210
  20669346.122   -16084204.35544 -12519967.82642  20669348.187    20669345.872
  23753840.119    -6446416.01443  -4990385.21542  23753842.219    23753842.621
 04  5 21  3 56  0.0000000  0  6G27G16G13G20G 1G 3
  22325917.949    -7355816.52243  -5728920.42142  22325919.975    22325918.703
  22184625.849    -8194720.06543  -6369470.04042  22184627.781    22184624.385
  20739065.925   -15858444.52744 -12209015.23742  20739068.608    20739064.932
  22820406.354    -6360791.01043  -3699333.96842  22820408.170    22820406.726
  20674399.229   -16057650.00344 -12499276.12342  20674401.291    20674399.026
  23741583.808    -6510822.98443  -5040572.39942  23741585.961    23741586.192
 04  5 21  3 56 30.0000000  0  6G27G16G13G20G 1G 3
  22315888.278    -7408522.56243  -5769990.00342  22315890.281    22315889.002
  22197490.346    -8127116.02843  -6316791.58042  22197492.367    22197489.083
  20730635.939   -15902744.46544 -12243534.65342  20730638.601    20730634.927
  22840294.712    -6256277.15443  -3617894.66442  22840296.547    22840295.197
  20679517.557   -16030752.80044 -12478317.25342  20679519.602    20679517.378
  23729381.888    -6574944.54843  -5090537.17342  23729384.060    23729383.985
 04  5 21  3 57  0.0000000  0  6G27G16G13G20G 1G 3
  22305891.237    -7461057.04143  -5810925.91442  22305893.252    22305891.919
  22210436.143    -8059085.13443  -6263780.50042  22210438.097    22210434.897
  20722262.262   -15946748.31144 -12277823.34142  20722264.960    20722261.232
  22860224.550    -6151545.08243  -3536285.29642  22860226.446    22860225.092
  20684702.416   -16003506.09444 -12457086.05542  20684704.480    20684702.235
  23717235.923    -6638771.49343  -5140272.38242  23717238.214    23717237.826
 04  5 21  3 57 30.0000000  0  6G27G16G13G20G 1G 3
  22295926.410    -7513422.35743  -5851730.01842  22295928.375    22295926.980
  22223462.342    -7990632.22043  -6210440.57742  22223464.260    22223461.054
  20713944.826   -15990456.70944 -12311881.80542  20713947.515    20713943.806
  22880194.965    -6046599.80143  -3454509.80842  22880196.826    22880195.600
  20689953.516   -15975911.40744 -12435583.69742  20689955.582    20689953.285
  23705146.227    -6702303.29543  -5189777.60142  23705148.548    23705147.977
 04  5 21  3 58  0.0000000  0  6G27G16G13G20G 1G 3
  22285993.391    -7565620.34643  -5892403.73242  22285995.426    22285993.977
  22236568.152    -7921761.19443  -6156774.84442  22236570.050    22236566.687
  20705683.544   -16033869.62244 -12345710.02342  20705686.248    20705682.616
  22900205.019    -5941445.96743  -3372571.80242  22900206.832    22900205.803
  20695270.540   -15947970.06644 -12413811.21942  20695272.613    20695270.335
  23693112.900    -6765538.62643  -5239051.78542  23693115.283    23693114.613
 04  5 21  3 58 30.0000000  0  6G27G16G13G20G 1G 3
  22276092.195    -7617651.13243  -5932947.14342  22276094.248    22276092.891
  22249752.955    -7852474.17543  -6102784.96042  22249754.955    22249751.558
  20697478.929   -16076985.21044 -12379306.57142  20697481.610    20697477.941
  22920254.119    -5836086.02943  -3290473.17542  22920255.980    22920255.112
  20700653.734   -15919681.24944 -12391767.98842  20700655.793    20700653.546
  23681136.670    -6828474.45443  -5288092.61542  23681138.974    23681138.172
 04  5 21  3 59  0.0000000  0  6G27G16G13G20G 1G 3
  22266223.703    -7669510.01343  -5973356.61342  22266225.769    22266224.457
  22263017.397    -7782768.88343  -6048469.15442  22263019.335    22263016.067
  20689332.055   -16119797.14944 -12412666.50242  20689334.766    20689331.083
  22940343.140    -5730518.02343  -3208212.46242  22940344.875    22940344.099
  20706104.043   -15891039.71744 -12369449.90942  20706106.102    20706103.858
  23669218.630    -6891103.07643  -5336894.06342  23669220.983    23669220.244
 04  5 21  3 59 30.0000000  0  6G27G16G13G20G 1G 3
  22256387.026    -7721201.63743  -6013635.75742  22256389.045    22256387.753
  22276360.235    -7712652.07943  -5993832.69442  22276362.088    22276358.866
  20681242.498   -16162308.18444 -12445791.96142  20681245.197    20681241.463
  22960470.376    -5624749.45243  -3125795.42542  22960472.063    22960471.234
  20711620.758   -15862049.42644 -12346860.07242  20711622.821    20711620.540
  23657358.895    -6953425.86843  -5385457.19642  23657361.120    23657360.563
 04  5 21  4  0  0.0000000  0  6G27G16G13G20G 1G 3
  22246582.417    -7772725.39443  -6053784.09542  22246584.427    22246583.088
  22289780.967    -7642125.37443  -5938876.82642  22289782.823    22289779.669
  20673210.667   -16204515.83344 -12478681.01842  20673213.396    20673209.577
  22980635.201    -5518782.26743  -3043223.63442  22980636.962    22980636.196
  20717204.060   -15832709.04744 -12323997.43842  20717206.117    20717203.841
  23645558.020    -7015439.18443  -5433779.18842  23645560.266    23645559.825
 04  5 21  4  0 30.0000000  0  6G27G16G13G20G 1G 3
  22236809.077    -7824084.14343  -6093803.84742  22236811.164    22236809.847
  22303278.790    -7571193.87843  -5883605.53542  22303280.579    22303277.477
  20665236.369   -16246421.11744 -12511334.46442  20665239.092    20665235.259
  23000836.931    -5412622.01243  -2960501.40942  23000838.659    23000837.848
  20722853.502   -15803020.79244 -12300863.72442  20722855.587    20722853.378
  23633816.160    -7077142.65643  -5481859.74542  23633818.421    23633818.120
 04  5 21  4  1  0.0000000  0  6G27G16G13G20G 1G 3
  22227067.963    -7875273.98243  -6133691.98342  22227070.027    22227068.776
  22316854.072    -7499855.86843  -5828017.47942  22316855.865    22316852.749
  20657320.659   -16288018.32644 -12543747.84442  20657323.397    20657319.581
  23021075.670    -5306267.06843  -2877627.47342  23021077.405    23021076.528
  20728570.065   -15772980.19844 -12277455.47142  20728572.087    20728569.965
  23622134.354    -7138529.46143  -5529693.56342  23622136.644    23622136.522
 04  5 21  4  1 30.0000000  0  6G27G16G13G20G 1G 3
  22217358.337    -7926298.41943  -6173451.24242  22217360.404    22217359.068
  22330505.439    -7428117.06243  -5772117.12442  22330507.325    22330504.281
  20649463.214   -16329309.21644 -12575922.54042  20649465.962    20649462.114
  23041350.278    -5199723.91643  -2794606.89242  23041352.049    23041351.152
  20734353.132   -15742590.03544 -12253774.82442  20734355.175    20734353.079
  23610513.107    -7199600.17243  -5577281.03042  23610515.177    23610515.117
 04  5 21  4  2  0.0000000  0  6G27G16G13G20G 1G 3
  22207680.850    -7977153.97643  -6213078.89642  22207682.874    22207681.556
  22344233.494    -7355976.05243  -5715903.35742  22344235.360    22344232.280
  20641665.164   -16370288.26744 -12607854.24642  20641667.904    20641664.062
  23061660.931    -5092991.62843  -2711438.91742  23061662.718    23061661.683
  20740203.513   -15711846.04944 -12229818.47342  20740205.560    20740203.485
  23598953.310    -7260347.94043  -5624616.88642  23598955.354    23598955.038
 04  5 21  4  2 30.0000000  0  6G27G16G13G20G 1G 3
  22198035.148    -8027841.95043  -6252575.96142  22198037.243    22198035.829
  22358037.161    -7283436.73243  -5659379.20642  22358039.146    22358036.104
  20633926.513   -16410955.01944 -12639542.59942  20633929.268    20633925.441
  23082006.593    -4986074.20843  -2628126.71342  23082008.484    23082007.360
  20746121.133   -15680748.98544 -12205586.99842  20746123.145    20746120.969
  23587455.135    -7320771.24443  -5671699.91042  23587457.290    23587456.753
 04  5 21  4  3  0.0000000  0  6G27G16G13G20G 1G 3
  22188421.019    -8078364.54743  -6291944.16242  22188423.060    22188421.536
  22371915.947    -7210503.08443  -5602547.81442  22371917.827    22371914.995
  20626247.268   -16451309.84544 -12670987.89942  20626250.014    20626246.125
  23102386.795    -4878976.36143  -2544673.87642  23102388.580    23102387.320
  20752105.494   -15649300.29644 -12181081.52642  20752107.575    20752105.392
  23576018.807    -7380869.13843  -5718529.33942  23576021.053    23576020.519
 04  5 21  4  3 30.0000000  0  6G27G16G13G20G 1G 3
  22178838.846    -8128718.42843  -6331180.90542  22178840.939    22178839.454
  22385869.966    -7137174.31543  -5545408.52342  22385871.765    22385868.939
  20618628.222   -16491347.65244 -12702186.16242  20618630.962    20618627.142
  23122801.218    -4771697.40843  -2461079.93542  23122803.082    23122801.895
  20758157.660   -15617496.20344 -12156299.11542  20758159.675    20758157.489
  23564645.620    -7440635.32743  -5765100.31642  23564647.915    23564647.271
 04  5 21  4  4  0.0000000  0  6G27G16G13G20G 1G 3
  22169288.537    -8178905.66643  -6370287.80742  22169290.597    22169289.218
  22399898.385    -7063454.85543  -5487964.80642  22399900.202    22399897.262
  20611069.559   -16531068.60544 -12733137.54142  20611072.246    20611068.443
  23143249.264    -4664242.10843  -2377348.55942  23143251.195    23143249.954
  20764277.198   -15585338.04944 -12131240.81742  20764279.174    20764276.973
  23553335.632    -7500068.68243  -5811411.92642  23553337.997    23553337.420
 04  5 21  4  4 30.0000000  0  6G27G16G13G20G 1G 3
  22159769.650    -8228927.40443  -6409265.73542  22159771.718    22159770.381
  22414000.536    -6989347.75743  -5430219.01942  22414002.331    22413999.349
  20603571.339   -16570471.71744 -12763841.24342  20603574.058    20603570.258
  23163730.336    -4556614.04143  -2293482.56942  23163732.247    23163730.802
  20770463.940   -15552826.37944 -12105907.04842  20770465.923    20770463.727
  23542089.470    -7559167.22343  -5857462.66442  23542091.777    23542091.338
 04  5 21  4  5  0.0000000  0  6G27G16G13G20G 1G 3
  22150281.966    -8278785.24243  -6448115.94742  22150284.029    22150282.746
  22428175.581    -6914857.12343  -5372174.37742  22428177.427    22428174.346
  20596133.689   -16609557.04144 -12794297.32542  20596136.376    20596132.546
  23184243.312    -4448817.68243  -2209485.47142  23184245.214    23184243.694
  20776717.750   -15519962.36144 -12080298.71742  20776719.705    20776717.528
  23530907.272    -7617929.63843  -5903251.44942  23530909.525    23530909.208
 04  5 21  4  5 30.0000000  0  6G27G16G13G20G 1G 3
  22140826.122    -8328476.13043  -6486836.07742  22140828.173    22140826.837
  22442423.739    -6839982.15943  -5313830.25842  22442425.642    22442422.602
  20588757.303   -16648319.92744 -12824502.14042  20588760.014    20588756.243
  23204788.371    -4340852.50843  -2125356.83542  23204790.341    23204788.824
  20783039.349   -15486742.16644 -12054412.84542  20783041.298    20783039.162
  23519790.194    -7676349.90243  -5948773.66442  23519792.337    23519792.131
 04  5 21  4  6  0.0000000  0  6G27G16G13G20G 1G 3
  22131401.273    -8378004.22643  -6525429.36042  22131403.312    22131401.988
  22456743.982    -6764729.13443  -5255191.55242  22456745.872    22456742.889
  20581441.990   -16686762.24544 -12854457.17342  20581444.693    20581440.824
  23225364.363    -4232725.33043  -2041101.93642  23225366.278    23225364.708
  20789428.074   -15453169.31844 -12028252.18342  20789430.040    20789427.816
  23508738.098    -7734429.11043  -5994030.10542  23508740.304    23508739.878
 04  5 21  4  6 30.0000000  0  6G27G16G13G20G 1G 3
  22122008.555    -8427362.91743  -6563890.63242  22122010.613    22122009.284
  22471136.841    -6689094.04243  -5196255.11742  22471138.837    22471135.845
  20574189.224   -16724875.65244 -12884155.90642  20574191.922    20574188.029
  23245971.979    -4124432.51243  -1956717.97442  23245973.754    23245972.214
  20795885.261   -15419236.75344 -12001811.22742  20795887.228    20795884.889
  23497752.491    -7792157.88043  -6039013.48042  23497754.791    23497754.315
 04  5 21  4  7  0.0000000  0  6G27G16G13G20G 1G 3
  22112646.984    -8476558.46043  -6602224.78242  22112648.968    22112647.596
  22485600.925    -6613084.99943  -5137027.29142  22485602.881    22485599.932
  20566998.236   -16762664.58344 -12913601.80942  20567000.935    20566997.027
  23266609.223    -4015982.65243  -1872211.61242  23266611.122    23266609.767
  20802409.797   -15384950.24144 -11975094.46942  20802411.742    20802409.340
  23486833.130    -7849539.34143  -6083726.21942  23486835.362    23486834.940
 04  5 21  4  7 30.0000000  0  6G27G16G13G20G 1G 3
  22103316.406    -8525591.12543  -6640432.01142  22103318.402    22103316.960
  22500135.449    -6536704.87543  -5077510.31242  22500137.496    22500134.540
  20559869.301   -16800127.52044 -12942793.69142  20559871.982    20559868.076
  23287275.917    -3907378.53343  -1787585.06342  23287277.728    23287276.836
  20809001.681   -15350309.43644 -11948101.63342  20809003.670    20809001.316
  23475980.494    -7906570.63743  -6128166.13042  23475982.645    23475982.130
 04  5 21  4  8  0.0000000  0  6G27G16G13G20G 1G 3
  22094017.275    -8574457.74843  -6678509.85342  22094019.305    22094017.884
  22514741.000    -6459952.53343  -5017703.30042  22514742.911    22514740.037
  20552803.310   -16837259.31744 -12971727.53542  20552806.013    20552802.152
  23307971.926    -3798619.50043  -1702837.81842  23307973.710    23307973.211
  20815661.788   -15315310.27344 -11920829.56342  20815663.804    20815661.563
  23465195.756    -7963245.58643  -6172328.33642  23465197.869    23465197.127
 04  5 21  4  8 30.0000000  0  6G27G16G13G20G 1G 3
  22084749.630    -8623159.42743  -6716459.17242  22084751.633    22084750.126
  22529416.682    -6382831.65343  -4957609.11342  22529418.561    22529415.626
  20545800.402   -16874059.65444 -13000403.09842  20545803.135    20545799.284
  23328696.743    -3689709.50343  -1617972.95742  23328698.496    23328698.287
  20822389.958   -15279953.55644 -11893278.88142  20822391.985    20822389.771
  23454478.789    -8019562.46243  -6216211.52742  23454481.144    23454480.318
 04  5 21  4  9  0.0000000  0  6G27G16G13G20G 1G 3
  22075513.719    -8671694.52543  -6754278.67842  22075515.719    22075514.139
  22544162.262    -6305342.81443  -4897228.19942  22544164.192    22544161.101
  20538861.345   -16910524.85844 -13028817.52942  20538864.057    20538860.144
  23349450.403    -3580649.87543  -1532991.46742  23349452.084    23349451.798
  20829186.606   -15244237.10344 -11865447.87942  20829188.637    20829186.395
  23443830.862    -8075516.67843  -6259812.13442  23443833.269    23443832.508
 04  5 21  4  9 30.0000000  0  6G27G16G13G20G 1G 3
  22066308.567    -8720067.47743  -6791971.83942  22066310.617    22066308.994
  22558976.671    -6227492.73643  -4836565.78842  22558978.653    22558975.329
  20531985.560   -16946657.32344 -13056972.67942  20531988.274    20531984.383
  23370231.127    -3471447.35443  -1447898.63442  23370232.863    23370232.252
  20836050.914   -15208164.79944 -11837339.59042  20836052.980    20836050.696
  23433251.812    -8131109.54043  -6303131.14942  23433254.273    23433253.467
 04  5 21  4 10  0.0000000  0  6G27G16G13G20G 1G 3
  22057133.861    -8768280.85143  -6829540.66142  22057135.893    22057134.187
  22573858.904    -6149286.26343  -4775625.68742  22573860.872    22573857.529
  20525172.972   -16982457.70044 -13084869.05942  20525175.701    20525171.742
  23391037.885    -3362106.99743  -1362698.41542  23391039.728    23391038.954
  20842982.566   -15171738.58144 -11808955.53542  20842984.632    20842982.282
  23422741.830    -8186341.02343  -6346168.60342  23422744.155    23422743.064
 04  5 21  4 10 30.0000000  0  6G27G16G13G20G 1G 3
  22047991.525    -8816323.82643  -6866976.70742  22047993.582    22047991.813
  22588810.586    -6070714.78443  -4714401.15542  22588812.510    22588809.240
  20518425.950   -17017913.33844 -13112496.80842  20518428.669    20518424.759
  23411872.568    -3252620.68243  -1277384.44642  23411874.288    23411873.316
  20849983.807   -15134946.99144 -11780286.77942  20849985.859    20849983.480
  23412302.801    -8241197.16043  -6388913.58142  23412305.241    23412304.153
 04  5 21  4 11  0.0000000  0  6G27G16G13G20G 1G 3
  22038880.035    -8864204.77243  -6904286.48342  22038882.096    22038880.376
  22603829.573    -5991788.97843  -4652900.52542  22603831.492    22603828.377
  20511743.282   -17053030.97844 -13139861.18342  20511746.002    20511742.085
  23432732.702    -3142999.60643  -1191965.49842  23432734.409    23432733.478
  20857053.038   -15097798.16044 -11751339.64042  20857055.083    20857052.720
  23401934.302    -8295683.37543  -6431370.28842  23401936.667    23401935.768
 04  5 21  4 11 30.0000000  0  6G27G16G13G20G 1G 3
  22029799.670    -8911921.86943  -6941468.59642  22029801.744    22029800.050
  22618915.952    -5912509.55343  -4591124.36442  22618917.842    22618914.890
  20505125.504   -17087807.05944 -13166959.40342  20505128.258    20505124.389
  23453618.390    -3033244.48543  -1106442.07442  23453620.114    23453619.169
  20864190.629   -15060289.82044 -11722112.35842  20864192.667    20864190.327
  23391636.962    -8349795.14843  -6473535.21442  23391639.370    23391638.499
 04  5 21  4 12  0.0000000  0  6G27G16G13G20G 1G 3
  22020749.838    -8959479.20243  -6978526.22542  22020751.880    22020750.095
  22634068.316    -5832882.86843  -4529077.58942  22634070.286    22634067.281
  20498572.434   -17122243.63644 -13193793.07642  20498575.179    20498571.332
  23474528.384    -2923361.87143  -1020819.31142  23474530.130    23474529.300
  20871395.950   -15022425.38744 -11692607.61142  20871398.004    20871395.667
  23381410.945    -8403533.54343  -6515409.22342  23381413.099    23381412.268
 04  5 21  4 12 30.0000000  0  6G27G16G13G20G 1G 3
  22011731.266    -9006871.67243  -7015455.36342  22011733.324    22011731.650
  22649287.458    -5752906.33943  -4466758.20442  22649289.375    22649286.221
  20492085.244   -17156333.84844 -13220356.84942  20492087.962    20492084.171
  23495463.109    -2813349.40843   -935095.35842  23495464.916    23495463.971
  20878670.088   -14984199.52344 -11662821.22442  20878672.121    20878669.766
  23371257.320    -8456890.69343  -6556986.13542  23371259.522    23371258.543
 04  5 21  4 13  0.0000000  0  6G27G16G13G20G 1G 3
  22002743.554    -9054102.62843  -7052258.66142  22002745.599    22002743.792
  22664572.135    -5672585.32543  -4404170.40142  22664574.032    22664570.864
  20485663.730   -17190079.37744 -13246652.04942  20485666.431    20485662.541
  23516421.275    -2703213.23743   -849274.98642  23516423.165    23516422.291
  20886012.531   -14945615.03544 -11632755.39842  20886014.546    20886012.160
  23361176.308    -8509867.11743  -6598266.39342  23361178.446    23361177.466
 04  5 21  4 13 30.0000000  0  6G27G16G13G20G 1G 3
  21993787.109    -9101168.36143  -7088933.19642  21993789.168    21993787.512
  22679922.591    -5591918.41943  -4341313.08342  22679924.506    22679921.375
  20479308.820   -17223474.67144 -13272674.33742  20479311.519    20479307.541
  23537403.420    -2592952.04643   -763357.26442  23537405.117    23537404.454
  20893423.969   -14906667.73244 -11602406.85942  20893426.037    20893423.595
  23351168.926    -8562455.91143  -6639244.60242  23351171.078    23351170.140
 04  5 21  4 14  0.0000000  0  6G27G16G13G20G 1G 3
  21984861.168    -9148074.73543  -7125483.57342  21984863.188    21984861.520
  22695337.242    -5510914.12643  -4278192.84842  22695339.208    22695336.071
  20473019.795   -17256523.59744 -13298426.73142  20473022.501    20473018.484
  23558407.605    -2482574.53943   -677348.83042  23558409.318    23558408.614
  20900903.428   -14867363.19444 -11571779.95742  20900905.481    20900903.078
  23341234.614    -8614660.45243  -6679923.37742  23341236.815    23341235.915
 04  5 21  4 14 30.0000000  0  6G27G16G13G20G 1G 3
  21975965.727    -9194820.63443  -7161908.88542  21975967.735    21975966.009
  22710815.935    -5429573.48743  -4214810.53742  22710817.925    22710814.774
  20466797.285   -17289222.98944 -13323906.75442  20466799.994    20466795.916
  23579433.580    -2372081.95743   -591250.78042  23579435.297    23579434.684
  20908451.019   -14827699.76644 -11540873.39342  20908453.130    20908450.748
  23331374.304    -8666476.52543  -6720299.48942  23331376.571    23331375.545
 04  5 21  4 15  0.0000000  0  7G27G16G13G20G 1G 3G19
  21967101.597    -9241401.57643  -7198205.67942  21967103.628    21967101.858
  22726358.930    -5347894.20043  -4151164.34442  22726360.991    22726357.765
  20460642.491   -17321566.68444 -13349109.60642  20460645.212    20460641.116
  23600481.967    -2261472.46943   -505061.61042  23600483.702    23600482.994
  20916068.017   -14787672.36244 -11509683.21542  20916070.082    20916067.743
  23321589.395    -8717896.92343  -6760367.27242  23321591.681    23321590.671
  24588629.333
 04  5 21  4 15 30.0000000  0  7G27G16G13G20G 1G 3G19
  21958269.046    -9287816.70543  -7234373.28042  21958271.048    21958269.317
  22741965.956    -5265878.09443  -4087255.69342  22741968.016    22741964.798
  20454555.811   -17353552.27144 -13374033.41842  20454558.559    20454554.448
  23621551.971    -2150748.13643   -418782.96742  23621553.858    23621553.017
  20923754.410   -14747279.91044 -11478208.58042  20923756.518    20923754.167
  23311880.096    -8768918.06643  -6800123.91742  23311882.428    23311881.731
  24572803.236     -445744.71653   -343379.27852  24572803.270    24572801.937
 04  5 21  4 16  0.0000000  0  7G27G16G13G20G 1G 3G19
  21949464.359    -9334085.46043  -7270426.79742  21949466.361    21949464.724
  22757633.090    -5183546.72843  -4023101.39342  22757635.102    22757631.896
  20448533.914   -17385197.34944 -13398691.89142  20448536.636    20448532.620
  23642640.061    -2039930.83143   -332431.84342  23642642.005    23642640.745
  20931506.737   -14706541.38944 -11446464.29542  20931508.817    20931506.460
  23302244.023    -8819556.53743  -6839582.40342  23302246.182    23302245.462
  24556984.132     -528867.33943   -408150.04142  24556985.582    24556984.100
 04  5 21  4 16 30.0000000  0  7G27G16G13G20G 1G 3G19
  21940692.477    -9380182.03843  -7306346.18242  21940694.431    21940692.758
  22773364.769    -5100876.68443  -3958683.16542  22773366.779    22773363.441
  20442582.107   -17416474.20144 -13423063.43842  20442584.824    20442580.818
  23663749.863    -1928997.21843   -245990.15442  23663751.826    23663750.813
  20939329.852   -14665430.67244 -11414429.99142  20939331.911    20939329.558
  23292685.946    -8869783.82143  -6878720.46042  23292688.120    23292687.518
  24541177.875     -611927.92343   -472872.43942  24541179.788    24541178.258
 04  5 21  4 17  0.0000000  0  7G27G16G13G20G 1G 3G19
  21931950.428    -9426121.37043  -7342142.99742  21931952.433    21931950.700
  22789157.504    -5017885.36543  -3894014.59942  22789159.552    22789156.200
  20436697.896   -17447395.99244 -13447158.31642  20436700.590    20436696.500
  23684878.652    -1817965.09143   -159471.63942  23684880.493    23684879.593
  20947220.977   -14623962.32944 -11382117.01242  20947223.035    20947220.685
  23283203.987    -8919611.90243  -6917547.47942  23283206.128    23283205.460
  24525381.370     -694938.40743   -537555.80942  24525383.348    24525381.765
 04  5 21  4 17 30.0000000  0  7G27G16G13G20G 1G 3G19
  21923239.544    -9471897.00843  -7377812.26242  21923241.541    21923239.765
  22805012.081    -4934568.48743  -3829092.35442  22805014.182    22805010.911
  20430882.821   -17477954.46544 -13470970.09342  20430885.531    20430881.353
  23706026.833    -1706830.49943    -72873.35842  23706028.625    23706028.039
  20955181.514   -14582129.43244 -11349519.96442  20955183.492    20955181.191
  23273799.696    -8969031.83343  -6956056.42942  23273801.806    23273801.122
  24509596.073     -777888.83043   -602192.41242  24509598.294    24509596.574
 04  5 21  4 18  0.0000000  0  7G27G16G13G20G 1G 3G19
  21914558.776    -9517514.39243  -7413358.23242  21914560.831    21914559.079
  22820927.337    -4850933.97643  -3763922.61442  22820929.347    22820926.134
  20425136.070   -17508153.46744 -13494501.75542  20425138.781    20425134.656
  23727193.246    -1595601.69643     13798.39742  23727194.977    23727194.281
  20963210.385   -14539937.11144 -11316642.83342  20963212.404    20963210.145
  23264472.605    -9018046.31043  -6994249.45542  23264474.691    23264473.700
  24493822.251     -860781.64543   -666784.10942  24493824.174    24493822.332
 04  5 21  4 18 30.0000000  0  7G27G16G13G20G 1G 3G19
  21905908.816    -9562969.69043  -7448777.89142  21905910.907    21905909.152
  22836903.282    -4766980.31443  -3698504.18042  22836905.210    22836902.046
  20419458.919   -17537987.09244 -13517748.71542  20419461.628    20419457.461
  23748377.335    -1484277.29243    100544.65142  23748379.278    23748378.642
  20971308.516   -14497381.04444 -11283482.27342  20971310.514    20971308.333
  23255223.759    -9066648.55243  -7032121.29142  23255225.916    23255224.927
  24478060.624     -943609.94543   -731325.55242  24478062.274    24478060.396
 04  5 21  4 19  0.0000000  0  7G27G16G13G20G 1G 3G19
  21897289.403    -9608265.50843  -7484073.28342  21897291.435    21897289.600
  22852938.770    -4682712.76243  -3632841.14342  22852940.812    22852937.588
  20413851.075   -17567456.28044 -13540711.69442  20413853.795    20413849.674
  23769579.009    -1372862.36643    187361.42042  23769580.897    23769580.349
  20979475.560   -14454463.57744 -11250040.09742  20979477.497    20979475.230
  23246053.522    -9114838.71443  -7069671.98142  23246055.681    23246054.683
  24462311.180    -1026373.14043   -795816.25742  24462312.799    24462311.347
 04  5 21  4 19 30.0000000  0  7G27G16G13G20G 1G 3G19
  21888700.580    -9653399.61743  -7519242.67242  21888702.617    21888700.787
  22869034.078    -4598131.00743  -3566933.27342  22869036.119    22869032.904
  20408313.352   -17596557.04044 -13563387.57942  20408316.046    20408312.009
  23790797.729    -1261357.36243    274248.41242  23790799.599    23790798.936
  20987711.783   -14411181.95244 -11216314.17042  20987713.748    20987711.429
  23236962.584    -9162611.72343  -7106897.65042  23236964.826    23236963.563
  24446575.354    -1109065.65543   -860251.89542  24446576.799    24446575.702
 04  5 21  4 20  0.0000000  0  7G27G16G13G20G 1G 3G19
  21880142.218    -9698373.76543  -7554287.40242  21880144.267    21880142.469
  22885188.390    -4513239.55443  -3500784.09742  22885190.409    22885187.305
  20402845.727   -17625289.58344 -13585776.55142  20402848.392    20402844.356
  23812032.675    -1149766.83043    361202.04842  23812034.594    23812033.874
  20996017.022   -14367537.89544 -11182305.82942  20996018.969    20996016.620
  23227951.107    -9209966.73843  -7143797.58942  23227953.522    23227952.019
  24430853.173    -1191686.08943   -924631.36042  24430854.643    24430853.609
 04  5 21  4 20 30.0000000  0  7G27G16G13G20G 1G 3G19
  21871614.388    -9743187.64743  -7589207.25042  21871616.437    21871614.617
  22901401.332    -4428040.01443  -3434394.82742  22901403.411    22901400.289
  20397448.662   -17653651.34844 -13607876.60442  20397451.329    20397447.325
  23833283.768    -1038092.94243    448220.56542  23833285.506    23833285.093
  21004391.312   -14323530.62744 -11148014.46642  21004393.309    21004390.942
  23219019.725    -9256900.59043  -7180369.35942  23219022.223    23219020.601
  24415144.998    -1274230.99543   -988951.96942  24415146.773    24415145.589
 04  5 21  4 21  0.0000000  0  7G27G16G13G20G 1G 3G19
  21863116.525    -9787843.91743  -7624004.29642  21863118.564    21863116.722
  22917671.709    -4342537.90543  -3367769.79942  22917673.898    22917670.810
  20392121.940   -17681643.43444 -13629688.59542  20392124.618    20392120.582
  23854549.273     -926340.92743    535300.00242  23854551.138    23854550.945
  21012834.287   -14279162.67244 -11113442.04542  21012836.306    21012833.919
  23210168.580    -9303413.46743  -7216613.09942  23210171.087    23210169.452
  24399451.690    -1356699.97743  -1053213.39042  24399453.497    24399451.988
 04  5 21  4 21 30.0000000  0  7G27G16G13G20G 1G 3G19
  21854649.588    -9832337.78043  -7658674.79642  21854651.592    21854649.753
  22934000.333    -4256730.52043  -3300906.89242  22934002.460    22933999.397
  20386866.765   -17709259.42044 -13651207.52042  20386869.436    20386865.446
  23875830.300     -814508.75043    622441.92242  23875832.124    23875832.048
  21021346.856   -14234428.85144 -11078584.54242  21021348.899    21021346.547
  23201398.798    -9349497.97243  -7252523.03642  23201401.258    23201399.829
  24383774.340    -1439084.79843  -1117409.23442  24383776.259    24383774.458
 04  5 21  4 22  0.0000000  0  7G27G16G13G20G 1G 3G19
  21846212.071    -9876676.91943  -7693224.71642  21846214.065    21846212.245
  22950385.073    -4170627.96543  -3233813.96642  22950387.242    22950384.132
  20381682.066   -17736504.98744 -13672437.80542  20381684.718    20381680.726
  23897124.792     -702606.38343    709638.50442  23897126.447    23897126.490
  21029927.624   -14189336.53144 -11043447.66542  21029929.711    21029927.381
  23192709.832    -9395159.12243  -7288103.08642  23192712.067    23192710.781
  24368112.033    -1521389.91443  -1181542.96042  24368114.092    24368112.196
 04  5 21  4 22 30.0000000  0  7G27G16G13G20G 1G 3G19
  21837805.346    -9920854.40743  -7727648.68242  21837807.333    21837805.452
  22966826.704    -4084225.81443  -3166487.61942  22966828.938    22966825.842
  20376569.535   -17763371.73944 -13693372.92442  20376572.181    20376568.147
  23918432.924     -590629.84943    796892.94342  23918434.849    23918435.031
  21038577.975   -14143878.63044 -11008025.92542  21038580.045    21038577.738
  23184103.078    -9440387.60343  -7323345.98742  23184105.233    23184104.061
  24352466.672    -1603605.34643  -1245606.79142  24352468.818    24352467.240
 04  5 21  4 23  0.0000000  0  7G27G16G13G20G 1G 3G19
  21829428.939    -9964872.72043  -7761948.61742  21829430.934    21829429.050
  22983324.751    -3997528.88243  -3098931.56942  22983326.762    22983323.650
  20371528.896   -17789860.25044 -13714013.30442  20371531.560    20371527.472
  23939754.780     -478584.08043    884201.29742  23939756.536    23939756.721
  21047297.540   -14098057.28944 -10972320.99642  21047299.570    21047297.221
  23175578.558    -9485183.06643  -7358251.48942  23175580.825    23175579.762
  24336838.619    -1685730.26443  -1309600.10842  24336840.826    24336839.391
 04  5 21  4 23 30.0000000  0  7G27G16G13G20G 1G 3G19
  21821082.104   -10008735.45943  -7796127.32942  21821084.097    21821082.195
  22999877.647    -3910543.08343  -3031150.40342  22999879.666    22999876.514
  20366559.955   -17815972.58144 -13734360.55842  20366562.591    20366558.460
  23961088.491     -366475.39143    971558.61942  23961090.269    23961090.511
  21056085.508   -14051875.94844 -10936335.54642  21056087.577    21056085.216
  23167136.522    -9529546.48943  -7392820.34542  23167138.717    23167137.620
  24321228.025    -1767765.21643  -1373523.33642  24321230.061    24321228.497
 04  5 21  4 24  0.0000000  0  7G27G16G13G20G 1G 3G19
  21812765.487   -10052439.15943  -7830182.10742  21812767.489    21812765.568
  23016485.675    -3823267.25843  -2963143.26042  23016487.638    23016484.626
  20361663.515   -17841703.34944 -13754410.48842  20361666.214    20361662.048
  23982434.370     -254302.75043   1058965.87342  23982436.216    23982436.086
  21064942.753   -14005330.91144 -10900066.69742  21064944.743    21064942.458
  23158777.818    -9573471.76443  -7427047.75842  23158779.975    23158778.968
  24305635.675    -1849703.63843  -1437371.35242  24305637.617    24305635.985
 04  5 21  4 24 30.0000000  0  7G27G16G13G20G 1G 3G19
  21804479.487   -10095982.35043  -7864111.82942  21804481.483    21804479.385
  23033148.644    -3735702.32443  -2894910.82942  23033150.694    23033147.705
  20356840.355   -17867049.32944 -13774160.57842  20356843.022    20356838.853
  24003792.008     -142067.21643   1146422.08642  24003794.061    24003793.893
  21073869.478   -13958420.37644 -10863513.03242  21073871.485    21073869.314
  23150503.099    -9616955.13543  -7460930.83842  23150505.240    23150504.459
  24290062.391    -1931540.82743  -1501140.49742  24290064.360    24290062.682
 04  5 21  4 25  0.0000000  0  8G27G16G13G20G 1G 3G 8G19
  21796222.375   -10139373.42143  -7897923.01142  21796224.395    21796222.342
  23049864.691    -3647859.28843  -2826461.70742  23049866.641    23049863.603
  20352089.035   -17892017.27744 -13793616.08742  20352091.754    20352087.647
  24025159.510      -29779.97543   1233918.58442  24025161.602    24025161.304
  21082864.294   -13911152.59344 -10826681.01442  21082866.236    21082864.149
  23142311.568    -9660002.55843  -7494474.22942  23142313.696    23142312.686
  23727972.469     -715325.50553   -546739.19052  23727973.025    23727972.397
  24274507.782    -2013281.64343  -1564834.56542  24274509.720    24274507.717
 04  5 21  4 25 30.0000000  0  8G27G16G13G20G 1G 3G 8G19
  21787996.102   -10182602.45943  -7931607.93342  21787998.137    21787996.121
  23066635.055    -3559730.58743  -2757789.98642  23066636.974    23066633.859
  20347411.906   -17916595.60644 -13812768.00642  20347414.617    20347410.530
  24046538.575       82566.45143   1321461.17942  24046540.432    24046539.722
  21091928.923   -13863517.55044 -10789562.79742  21091930.881    21091928.770
  23134205.022    -9702601.55643  -7527668.19842  23134207.253    23134206.392
  23712520.111     -796528.16743   -610013.92442  23712520.576    23712520.276
  24258973.816    -2094913.31343  -1628443.57442  24258975.801    24258973.480
 04  5 21  4 26  0.0000000  0  8G27G16G13G20G 1G 3G 8G19
  21779800.162   -10225672.68843  -7965169.11942  21779802.163    21779800.134
  23083458.679    -3471321.59543  -2688899.84642  23083460.738    23083457.553
  20342808.608   -17940786.01144 -13831617.64942  20342811.308    20342807.167
  24067927.478      194966.24643   1409045.34342  24067929.394    24067928.601
  21101062.904   -13815518.19744 -10752160.71942  21101064.886    21101062.748
  23126184.001    -9744752.80043  -7560513.27142  23126186.127    23126185.106
  23697090.086     -877611.18843   -673195.43442  23697090.777    23697090.954
  24243460.334    -2176435.79743  -1691967.45342  24243462.511    24243459.848
 04  5 21  4 26 30.0000000  0  8G27G16G13G20G 1G 3G 8G19
  21771633.648   -10268587.61943  -7998609.27642  21771635.674    21771633.629
  23100334.623    -3382638.45443  -2619796.09842  23100336.548    23100333.468
  20338278.827   -17964590.02244 -13850166.20942  20338281.517    20338277.385
  24089325.469      307413.16543   1496666.24442  24089327.474    24089326.726
  21110265.602   -13767157.93244 -10714477.39642  21110267.571    21110265.433
  23118247.874    -9786457.46043  -7593010.38842  23118250.006    23118248.883
  23681682.787     -958577.51243   -736285.99642  23681683.455    23681683.429
  24227967.859    -2257849.23443  -1755406.37042  24227970.059    24227967.215
 04  5 21  4 27  0.0000000  0  8G27G16G13G20G 1G 3G 8G19
  21763497.291   -10311343.76843  -8031925.70742  21763499.338    21763497.355
  23117262.771    -3293679.89243  -2550477.72642  23117264.738    23117261.573
  20333823.579   -17988002.55544 -13868409.71442  20333826.260    20333822.071
  24110732.627      419908.11343   1584324.58142  24110734.529    24110734.164
  21119537.549   -13718433.21244 -10676510.08842  21119539.568    21119537.408
  23110397.749    -9827709.61543  -7625154.82842  23110400.046    23110398.940
  23666298.276    -1039422.95943   -799282.33842  23666299.103    23666298.819
  24212497.239    -2339146.97243  -1818755.15042  24212499.566    24212496.566
 04  5 21  4 27 30.0000000  0  8G27G16G13G20G 1G 3G 8G19
  21755391.100   -10353942.39543  -8065119.40642  21755393.122    21755391.057
  23134242.847    -3204449.62443  -2480947.66242  23134244.718    23134241.594
  20329442.819   -18011023.10344 -13886347.76942  20329445.530    20329441.346
  24132148.261      532447.33643   1672017.47342  24132150.173    24132149.825
  21128878.778   -13669345.07144 -10638259.60842  21128880.748    21128878.579
  23102634.108    -9868507.97943  -7656945.71642  23102636.349    23102635.232
  23650936.781    -1120148.39443   -862185.21242  23650937.472    23650937.307
  24197048.968    -2420327.03543  -1882012.18942  24197051.302    24197048.612
 04  5 21  4 28  0.0000000  0  8G27G16G13G20G 1G 3G 8G19
  21747314.792   -10396383.38143  -8098190.27042  21747316.852    21747314.786
  23151274.124    -3114949.96143  -2411207.66042  23151275.922    23151272.869
  20325137.064   -18033649.91944 -13903979.02642  20325139.784    20325135.594
  24153571.830      645028.38543   1759742.93542  24153573.727    24153573.547
  21138289.204   -13619893.15744 -10599725.66042  21138291.167    21138289.025
  23094957.233    -9908850.02443  -7688381.04542  23094959.450    23094958.198
  23635598.141    -1200753.41643   -924994.25042  23635598.834    23635598.702
  24181623.685    -2501386.21243  -1945175.03242  24181626.034    24181623.642
 04  5 21  4 28 30.0000000  0  8G27G16G13G20G 1G 3G 8G19
  21739268.165   -10438668.90143  -8131139.97942  21739270.171    21739268.099
  23168355.536    -3025185.45543  -2341261.28842  23168357.540    23168354.461
  20320906.096   -18055883.82944 -13921304.12942  20320908.814    20320904.620
  24175002.247      757646.31343   1847497.07042  24175004.034    24175004.237
  21147768.365   -13570079.73844 -10560910.02942  21147770.369    21147768.239
  23087367.146    -9948735.61243  -7719460.67342  23087369.441    23087368.053
  23620281.961    -1281240.08043   -987711.04942  23620282.697    23620282.522
  24166221.799    -2582323.69843  -2008243.09242  24166224.061    24166221.717
 04  5 21  4 29  0.0000000  0  8G27G16G13G20G 1G 3G 8G19
  21731251.354   -10480797.18643  -8163967.16142  21731253.383    21731251.295
  23185487.408    -2935156.76443  -2271109.06442  23185489.405    23185486.284
  20316750.563   -18077721.21044 -13938320.23942  20316753.262    20316749.106
  24196439.573      870300.41943   1935279.43442  24196441.351    24196441.667
  21157316.704   -13519902.89144 -10521811.19342  21157318.738    21157316.602
  23079864.804    -9988160.35543  -7750181.19842  23079866.991    23079865.779
  23604988.814    -1361606.03143  -1050333.73742  23604989.630    23604989.398
  24150844.116    -2663134.37143  -2071212.31042  24150846.245    24150843.876
 04  5 21  4 29 30.0000000  0  8G27G16G13G20G 1G 3G 8G19
  21723264.164   -10522769.98243  -8196673.17542  21723266.181    21723264.111
  23202668.925    -2844868.15943  -2200754.34842  23202670.846    23202667.635
  20312670.444   -18099162.13944 -13955027.42542  20312673.174    20312669.008
  24217882.998      982986.59043   2023086.76542  24217884.786    24217884.984
  21166933.933   -13469364.17044 -10482430.37742  21166935.959    21166933.824
  23072450.164   -10027123.82143  -7780542.26942  23072452.302    23072451.230
  23589718.447    -1441852.26543  -1112863.18942  23589719.244    23589718.883
  24135490.791    -2743816.71543  -2134081.57342  24135492.983    24135490.445
 04  5 21  4 30  0.0000000  0  8G27G16G13G20G 1G 3G 8G19
  21715306.770   -10564586.24043  -8229257.23942  21715308.789    21715306.639
  23219899.718    -2754320.50443  -2130197.73642  23219901.601    23219898.294
  20308666.387   -18120203.66344 -13971423.39242  20308669.109    20308664.852
  24239332.535     1095703.29543   2110917.86842  24239334.105    24239333.968
  21176620.260   -13418462.25944 -10442766.57442  21176622.275    21176620.090
  23065124.248   -10065622.53943  -7810541.21642  23065126.200    23065124.867
  23574471.207    -1521977.56943  -1175298.44042  23574471.794    23574471.341
  24120162.571    -2824366.21743  -2196847.30942  24120164.783    24120162.350
 04  5 21  4 30 30.0000000  0  8G27G16G13G20G 1G 3G 8G19
  21707379.578   -10606243.74343  -8261717.57542  21707381.578    21707379.526
  23237179.234    -2663514.58943  -2059439.90342  23237181.280    23237178.042
  20304738.908   -18140842.51444 -13987505.58842  20304741.630    20304737.396
  24260787.448     1208449.63843   2198772.11142  24260789.195    24260788.439
  21186376.050   -13367195.48844 -10402818.44642  21186378.054    21186375.841
  23057887.097   -10103652.51743  -7840174.92242  23057889.042    23057887.993
  23559247.299    -1601979.16743  -1237637.27042  23559248.072    23559247.817
  24104860.697    -2904778.10543  -2259505.80242  24104862.813    24104860.475
 04  5 21  4 31  0.0000000  0  8G27G16G13G20G 1G 3G 8G19
  21699481.980   -10647745.62743  -8294056.65642  21699484.040    21699481.916
  23254507.150    -2572455.45243  -1988484.75542  23254509.161    23254505.891
  20300887.906   -18161079.70444 -14003274.80642  20300890.608    20300886.397
  24282247.089     1321220.42443   2286645.41042  24282248.950    24282247.943
  21196200.643   -13315566.38744 -10362587.98642  21196202.703    21196200.610
  23050739.359   -10141214.03443  -7869443.55742  23050741.246    23050740.113
  23544046.325    -1681860.03443  -1299882.05442  23544046.948    23544046.887
  24089584.879    -2985051.72743  -2322056.55842  24089587.058    24089584.697
 04  5 21  4 31 30.0000000  0  8G27G16G13G20G 1G 3G 8G19
  21691614.132   -10689091.75443  -8326274.36342  21691616.165    21691613.983
  23271882.821    -2481145.58743  -1917334.20442  23271884.865    23271881.664
  20297113.557   -18180913.97244 -14018730.05142  20297116.259    20297112.071
  24303710.834     1434012.96643   2374535.66642  24303712.764    24303711.909
  21206094.260   -13263575.09044 -10322075.31042  21206096.245    21206094.206
  23043681.086   -10178304.99243  -7898345.55942  23043683.066    23043681.873
  23528868.362    -1761619.70843  -1362032.32242  23528869.058    23528869.187
  24074336.054    -3065184.13043  -2384497.25442  24074338.122    24074335.750
 04  5 21  4 32  0.0000000  0  8G27G16G13G20G 1G 3G 8G19
  21683775.283   -10730284.62743  -8358372.65442  21683777.343    21683775.200
  23289305.259    -2389589.86843  -1845992.10042  23289307.201    23289304.208
  20293415.749   -18200345.86044 -14033871.75242  20293418.458    20293414.285
  24325177.427     1546822.47043   2462439.11442  24325179.503    24325179.195
  21216056.370   -13211223.94144 -10281282.21442  21216058.330    21216056.324
  23036712.642   -10214925.55743  -7926881.00242  23036714.572    23036713.202
  23513713.187    -1841259.79243  -1424089.47742  23513714.106    23513713.943
  24059114.465    -3145174.42343  -2446827.21042  24059116.446    24059113.773
 04  5 21  4 32 30.0000000  0  8G27G16G13G20G 1G 3G 8G19
  21675966.210   -10771321.45543  -8390349.35742  21675968.218    21675966.135
  23306774.601    -2297787.78243  -1774458.04042  23306776.414    23306773.654
  20289795.385   -18219371.05544 -14048696.55942  20289798.044    20289793.849
  24346647.387     1659649.04843   2550355.85142  24346649.212    24346649.591
  21226087.439   -13158510.17444 -10240206.56942  21226089.414    21226087.371
  23029834.478   -10251070.45643  -7955045.77842  23029836.564    23029835.038
  23498581.242    -1920777.45753  -1486051.23352  23498581.993    23498581.963
  24043920.976    -3225016.53143  -2509041.80442  24043922.972    24043919.804
 04  5 21  4 33  0.0000000  0  8G27G16G13G20G 1G 3G 8G19
  21668186.920   -10812201.60543  -8422203.96642  21668188.936    21668186.934
  23324290.406    -2205741.24543  -1702733.42942  23324292.309    23324289.423
  20286252.796   -18237987.35544 -14063202.75442  20286255.444    20286251.282
  24368120.478     1772490.69143   2638284.37442  24368122.238    24368122.976
  21236187.730   -13105433.03944 -10198847.78042  21236189.670    21236187.639
  23023047.486   -10286736.87343  -7982837.72642  23023049.499    23023047.982
  23483473.090    -2000171.12253  -1547916.36952  23483473.827    23483473.745
  24028756.200    -3304706.57243  -2571137.79842  24028758.302    24028755.266
 04  5 21  4 33 30.0000000  0  8G27G16G13G20G 1G 3G 8G19
  21660437.183   -10852926.51944  -8453937.61142  21660439.221    21660437.217
  23341852.126    -2113454.20543  -1630821.44042  23341853.978    23341851.156
  20282787.979   -18256194.76644 -14077390.31442  20282790.664    20282786.506
  24389595.800     1885343.45043   2726221.50442  24389597.549    24389598.328
  21246356.787   -13051994.26744 -10157207.17542  21246358.749    21246356.720
  23016351.395   -10321924.33243  -8010256.45842  23016353.583    23016351.995
  23468388.148    -2079442.88143  -1609686.44142  23468388.876    23468388.809
  24013620.605    -3384243.22743  -2633114.29142  24013622.779    24013619.911
 04  5 21  4 34  0.0000000  0  8G27G16G13G20G 1G 3G 8G19
  21652717.397   -10893493.83943  -8485548.46442  21652719.423    21652717.422
  23359459.620    -2020926.53043  -1558721.95642  23359461.439    23359458.626
  20279401.857   -18273989.13044 -14091256.03642  20279404.528    20279400.295
  24411073.399     1998207.16843   2814167.14042  24411075.153    24411075.628
  21256595.116   -12998191.30744 -10115282.81742  21256597.089    21256595.103
  23009747.471   -10356628.34243  -8037298.48642  23009749.595    23009747.936
  23453326.875    -2158589.21343  -1671358.82042  23453327.785    23453327.652
  23998515.204    -3463620.80543  -2694966.82042  23998517.316    23998514.842
 04  5 21  4 34 30.0000000  0  8G27G16G13G20G 1G 3G 8G19
  21645026.594   -10933908.88443  -8517040.65942  21645028.595    21645026.680
  23377111.299    -1928165.92643  -1486440.95742  23377113.177    23377110.335
  20276093.561   -18291374.45244 -14104803.02142  20276096.257    20276091.899
  24432551.511     2111073.85943   2902115.14942  24432553.379    24432553.058
  21266901.746   -12944029.62344 -10073078.91642  21266903.643    21266901.675
  23003234.921   -10390851.89243  -8063966.13042  23003237.158    23003235.375
  23438288.712    -2237615.15743  -1732937.39742  23438289.486    23438289.590
  23983440.140    -3542841.38743  -2756697.03142  23983442.019    23983439.512
 04  5 21  4 35  0.0000000  0  9G27G16G13G31G20G 1G 3G 8G19
  21637365.156   -10974170.11943  -8548413.01642  21637367.168    21637365.198
  23394807.300    -1835173.34743  -1413979.20842  23394809.061    23394806.193
  20272863.693   -18308347.43044 -14118028.70542  20272866.394    20272862.021
  24210958.682
  24454029.665     2223942.60043   2990064.78042  24454031.490    24454030.803
  21277276.962   -12889507.54644 -10030594.18742  21277278.850    21277276.901
  22996814.508   -10424591.36243  -8090256.54942  22996816.710    22996814.687
  23423273.870    -2316518.88143  -1794420.75942  23423274.574    23423274.552
  23968395.968    -3621900.10943  -2818301.14542  23968397.787    23968395.113
 04  5 21  4 35 30.0000000  0  9G27G16G13G31G20G 1G 3G 8G19
  21629733.521   -11014274.29443  -8579662.97742  21629735.550    21629733.584
  23412547.401    -1741947.45243  -1341335.67542  23412549.228    23412546.520
  20269713.164   -18324903.28644 -14130929.35442  20269715.889    20269711.499
  24191709.846     -912764.57053   -704936.78652  24191707.116    24191703.438
  24475508.412     2336814.09343   3078016.55342  24475510.192    24475509.473
  21287721.290   -12834621.99544  -9987826.24842  21287723.195    21287721.274
  22990486.878   -10457841.17743  -8116165.44242  22990489.363    22990487.385
  23408282.630    -2395297.14043  -1855806.32342  23408283.400    23408283.588
  23953383.496    -3700790.52843  -2879774.06642  23953385.281    23953382.679
 04  5 21  4 36  0.0000000  0  9G27G16G13G31G20G 1G 3G 8G19
  21622131.330   -11054224.31644  -8610792.82542  21622133.335    21622131.283
  23430331.047    -1648494.09843  -1268514.86842  23430332.834    23430330.038
  20266641.887   -18341043.07744 -14143505.80042  20266644.598    20266640.159
  24172462.094    -1013898.65343   -783742.54742  24172461.906    24172460.277
  24496986.825     2449682.80843   3165966.16642  24496988.707    24496987.862
  21298234.302   -12779376.08344  -9944777.49942  21298236.196    21298234.216
  22984252.669   -10490602.37843  -8141693.58542  22984255.054    22984252.948
  23393315.134    -2473952.21843  -1917095.89942  23393315.862    23393315.784
  23938403.208    -3779512.51843  -2941115.79042  23938405.009    23938402.087
 04  5 21  4 36 30.0000000  0  9G27G16G13G31G20G 1G 3G 8G19
  21614558.436   -11094020.10943  -8641802.49642  21614560.433    21614558.367
  23448157.422    -1554815.54243  -1195518.57442  23448159.367    23448156.410
  20263649.867   -18356766.26044 -14155757.61442  20263652.578    20263648.130
  24153216.006    -1115024.08943   -862541.47142  24153218.337    24153217.607
  24518463.999     2562546.18543   3253911.58042  24518466.018    24518465.164
  21308815.941   -12723769.73044  -9901447.88842  21308817.822    21308815.764
  22978111.712   -10522872.96243  -8166839.43842  22978114.014    22978112.064
  23378371.118    -2552483.37343  -1978288.94142  23378371.884    23378371.678
  23923455.383    -3858062.94443  -3002323.80042  23923457.335    23923454.499
 04  5 21  4 37  0.0000000  0  9G27G16G13G31G20G 1G 3G 8G19
  21607014.716   -11133662.16543  -8672692.36342  21607016.717    21607014.682
  23466026.252    -1460914.51843  -1122348.95842  23466028.149    23466025.132
  20260737.395   -18372071.40344 -14167683.68742  20260740.116    20260735.682
  24133974.668    -1216138.01643   -941331.45742  24133977.151    24133976.435
  24539939.462     2675401.28243   3341850.54442  24539941.461    24539940.979
  21319465.848   -12667803.60944  -9857837.93042  21319467.796    21319465.746
  22972064.493   -10554651.48543  -8191601.85442  22972066.593    22972064.761
  23363450.681    -2630891.13543  -2039385.79942  23363451.455    23363451.260
  23908540.862    -3936439.09543  -3063395.99042  23908542.782    23908540.120
 04  5 21  4 37 30.0000000  0  9G27G16G13G31G20G 1G 3G 8G19
  21599500.807   -11173147.73543  -8703460.29442  21599502.793    21599500.827
  23483937.558    -1366790.83543  -1049005.80542  23483939.438    23483936.252
  20257905.278   -18386954.06344 -14179280.54942  20257908.012    20257903.579
  24114736.632    -1317234.55243  -1020107.85542  24114739.023    24114738.410
  24561413.747     2788248.44443   3429783.33542  24561415.662    24561415.103
  21330184.892   -12611475.05844  -9813945.55942  21330186.845    21330184.740
  22966111.838   -10585932.86643  -8215976.92042  22966113.895    22966112.107
  23348554.145    -2709172.30743  -2100384.01342  23348554.985    23348554.897
  23893660.591    -4014634.82043  -3124327.66642  23893662.590    23893659.599
 04  5 21  4 38  0.0000000  0  9G27G16G13G31G20G 1G 3G 8G19
  21592015.786   -11212481.64943  -8734110.04642  21592017.789    21592015.769
  23501889.629    -1272451.56143   -975494.68242  23501891.691    23501888.545
  20255152.918   -18401417.62644 -14190550.83742  20255155.669    20255151.237
  24095501.478    -1418315.22643  -1098871.89742  24095503.888    24095503.492
  24582885.034     2901080.04543   3517704.01642  24582887.113    24582886.409
  21340971.852   -12554789.12443  -9769774.71642  21340973.814    21340971.734
  22960253.347   -10616720.20743  -8239966.97442  22960255.302    22960253.466
  23333681.187    -2787330.63643  -2161286.52542  23333681.988    23333681.660
  23878814.338    -4092651.91843  -3185120.12642  23878816.325    23878813.423
 04  5 21  4 38 30.0000000  0  9G27G16G13G31G20G 1G 3G 8G19
  21584560.476   -11251659.19343  -8764637.94742  21584562.482    21584560.509
  23519883.319    -1177894.40043   -901813.76742  23519885.351    23519882.155
  20252481.539   -18415455.86444 -14201489.70642  20252484.273    20252479.804
  24076270.876    -1519372.19143  -1177617.47242  24076273.294    24076272.904
  24604353.517     3013898.32443   3605614.30642  24604355.791    24604355.161
  21351827.655   -12497741.16544  -9725321.77042  21351829.624    21351827.606
  22954489.893   -10647006.66043  -8263566.74742  22954491.961    22954490.236
  23318832.264    -2865361.92143  -2222090.04742  23318833.196    23318832.612
  23864003.715    -4170482.45943  -3245767.16242  23864005.644    23864002.836
 04  5 21  4 39  0.0000000  0  9G27G16G13G31G20G 1G 3G 8G19
  21577134.234   -11290684.62943  -8795047.33942  21577136.199    21577134.119
  23537917.307    -1083125.99643   -827968.26542  23537919.272    23537916.009
  20249890.537   -18429071.69844 -14212099.43142  20249893.267    20249888.762
  24057044.459    -1620406.48443  -1256345.34742  24057046.922    24057046.621
  24625818.361     3126696.66243   3693509.06942  24625820.469    24625820.122
  21362751.688   -12440335.53243  -9680590.11842  21362753.613    21362751.529
  22948821.431   -10676794.50543  -8286777.99942  22948823.524    22948821.701
  23304006.921    -2943269.55443  -2282797.21742  23304007.742    23304007.237
  23849228.101    -4248127.61643  -3306269.75042  23849230.064    23849227.606
 04  5 21  4 39 30.0000000  0  9G27G16G13G31G20G 1G 3G 8G19
  21569737.596   -11329554.07043  -8825335.17442  21569739.585    21569737.401
  23555991.711     -988144.99543   -753957.08642  23555993.696    23555990.246
  20247380.858   -18442259.83244 -14222375.89542  20247383.632    20247379.150
  24037823.592    -1721411.08843  -1335050.09842  24037826.006    24037826.105
  24647279.836     3239476.23643   3781389.18342  24647281.707    24647281.423
  21373744.332   -12382568.59944  -9635576.92542  21373746.323    21373744.175
  22943249.056   -10706078.01543  -8309596.27542  22943251.088    22943249.264
  23289205.823    -3021050.03243  -2343405.30042  23289206.651    23289206.098
  23834489.100    -4325580.26943  -3366622.38142  23834491.235    23834488.609
 04  5 21  4 40  0.0000000  0  9G27G16G13G31G20G 1G 3G 8G19
  21562369.706   -11368272.24643  -8855505.13642  21562371.713    21562369.541
  23574105.078     -892958.27943   -679785.60442  23574107.221    23574103.549
  20244952.088   -18455023.29844 -14232321.44342  20244954.806    20244950.335
  24018608.458    -1822387.39243  -1413732.75042  24018610.674    24018610.893
  24668736.154     3352230.03543   3869249.22942  24668738.075    24668737.859
  21384804.827   -12324445.23644  -9590286.01042  21384806.819    21384804.649
  22937771.927   -10734859.90843  -8332023.64442  22937774.037    22937772.342
  23274427.984    -3098707.10643  -2403917.19342  23274428.830    23274428.416
  23819786.790    -4402841.95043  -3426826.21042  23819788.832    23819786.124
 04  5 21  4 40 30.0000000  0  9G27G16G13G31G20G 1G 3G 8G19
  21555031.565   -11406834.23243  -8885553.40342  21555033.567    21555031.309
  23592258.069     -797563.53943   -605452.05142  23592260.210    23592256.493
  20242605.149   -18467356.24244 -14241931.50942  20242607.883    20242603.477
  23999400.020    -1923327.50143  -1492387.24142  23999402.364    23999402.630
  24690188.045     3464960.18643   3957090.83242  24690189.863    24690189.795
  21395934.068   -12265960.82443  -9544713.75842  21395936.048    21395933.860
  22932391.586   -10763133.49443  -8354054.96242  22932393.644    22932392.031
  23259674.901    -3176235.11843  -2464328.53542  23259675.701    23259675.264
  23805122.369    -4479905.04243  -3486875.22642  23805124.218    23805121.536
 04  5 21  4 41  0.0000000  0  9G27G16G13G31G20G 1G 3G 8G19
  21547722.754   -11445242.30944  -8915481.72842  21547724.734    21547722.418
  23610449.828     -701965.31643   -530959.91242  23610451.850    23610448.168
  20240340.094   -18479259.20644 -14251206.53142  20240342.768    20240338.458
  23980198.995    -2024230.20643  -1571012.62942  23980201.198    23980201.320
  24711634.701     3577661.93943   4044910.29842  24711636.525    24711636.677
  21407131.492   -12207117.78543  -9498862.04742  21407133.483    21407131.342
  22927107.766   -10790899.25543  -8375690.56742  22927109.980    22927108.121
  23244945.796    -3253637.07543  -2524641.65942  23244946.549    23244945.926
  23790495.428    -4556768.30243  -3546768.56342  23790497.538    23790494.827
 04  5 21  4 41 30.0000000  0  9G27G16G13G31G20G 1G 3G 8G19
  21540442.973   -11483497.79944  -8945291.15842  21540444.978    21540442.641
  23628679.353     -606167.33443   -456312.12042  23628681.384    23628677.960
  20238156.863   -18490732.16944 -14260146.49142  20238159.511    20238155.204
  23961005.207    -2125093.85343  -1649607.58442  23961007.376    23961007.461
  24733075.165     3690331.39043   4132704.62742  24733077.324    24733077.238
  21418396.957   -12147917.71643  -9452732.15442  21418398.912    21418396.795
  22921920.761   -10818156.52543  -8396929.94942  22921922.917    22921921.111
  23230240.508    -3330913.28543  -2584856.81442  23230241.277    23230240.665
  23775907.174    -4633429.94543  -3606504.77042  23775909.308    23775906.457
 04  5 21  4 42  0.0000000  0  9G27G16G13G31G20G 1G 3G 8G19
  21533191.872   -11521601.81943  -8974982.55642  21533193.915    21533191.667
  23646946.457     -510173.10743   -381511.44942  23646948.311    23646945.122
  20236055.463   -18501774.81644 -14268751.13442  20236058.126    20236053.866
  23941819.293    -2225915.97843  -1728170.16842  23941821.572    23941821.521
  24754508.748                     4220471.07142                  24754510.595
  21429730.079   -12088361.93443  -9406325.04342  21429732.079    21429729.937
  22916830.793   -10844904.62743  -8417772.54642  22916832.958    22916831.056
  23215559.123    -3408064.38343  -2644974.46042  23215559.864    23215559.207
  23761357.811    -4709887.72543  -3666082.22842  23761359.814    23761356.578
 04  5 21  4 42 30.0000000  0  9G27G16G13G31G20G 1G 3G 8G19
  21525970.021   -11559552.97943  -9004554.84842  21525972.019    21525969.732
  23665250.469     -413983.71943   -306558.66542  23665252.360    23665249.426
  20234036.512   -18512384.43144 -14277018.35342  20234039.184    20234034.941
  23922642.216    -2326692.07243  -1806696.86442  23922644.391    23922644.085
  24775931.192
  21441131.017   -12028449.47943  -9359640.03042  21441132.991    21441130.966
  22911838.368   -10871140.61043  -8438216.11142  22911840.489    22911838.503
  23200901.702    -3485089.23543  -2704993.75742  23200902.453    23200901.819
  23746847.722    -4786137.45443  -3725497.49542  23746849.841    23746846.666
 04  5 21  4 43  0.0000000  0  8G27G16G13G31G 1G 3G 8G19
  21518778.253   -11597345.61743  -9034003.61942  21518780.246    21518777.979
  23683592.844     -317595.68043   -231451.15642  23683594.334    23683591.629
  20232101.324   -18522554.11744 -14284942.76642  20232103.963    20232099.690
  23903475.414    -2427413.95943  -1885181.31742  23903477.599    23903476.955
  21452600.897   -11968174.87443  -9312672.81942  21452602.869    21452600.863
  22906944.595   -10896856.79543  -8458254.62742  22906946.911    22906944.818
  23186269.474    -3561981.91443  -2764910.03242  23186270.200    23186269.521
  23732379.075    -4862170.42343  -3784743.86842  23732380.999    23732377.785
 04  5 21  4 43 30.0000000  0  8G27G16G13G31G 1G 3G 8G19
  21511615.554   -11634986.10343  -9063333.83042  21511617.469    21511615.286
  23701970.930     -221017.91743   -156195.71242  23701972.571    23701969.854
  20230248.844   -18532289.02044 -14292528.39742  20230251.477    20230247.184
  23884318.481    -2528084.23643  -1963625.56242  23884320.610    23884319.794
  21464138.325   -11907545.11643  -9265428.86842  21464140.294    21464138.282
  22902148.837   -10922058.20943  -8477892.04942  22902151.176    22902149.026
  23171661.303    -3638748.22343  -2824727.87642  23171662.027    23171661.147
  23717950.950    -4937989.88943  -3843823.89542  23717952.811    23717949.602
 04  5 21  4 44  0.0000000  0  8G27G16G13G31G 1G 3G 8G19
  21504481.256   -11672476.56043  -9092547.13242  21504483.195    21504481.086
  23720384.479     -124254.71343    -80795.79542  23720386.169    23720383.318
  20228478.953   -18541589.50944 -14299775.51042  20228481.601    20228477.353
  23865171.241    -2628701.45443  -2042028.43642  23865173.601    23865172.946
  21475743.051   -11846562.17343  -9217909.69742  21475744.970    21475742.896
  22897450.940   -10946744.80243  -8497128.29542  22897453.297    22897451.280
  23157076.904    -3715389.38743  -2884448.17742  23157077.636    23157076.750
  23703564.091    -5013594.45543  -3902736.46542  23703565.656    23703562.387
 04  5 21  4 44 30.0000000  0  8G27G16G13G31G 1G 3G 8G19
  21497376.522   -11709811.89643  -9121639.57142  21497378.490    21497376.354
  23738833.560      -27303.51143     -5249.41142  23738835.492    23738832.526
  20226792.956   -18550449.53144 -14306679.40642  20226795.609    20226791.298
  23846035.975    -2729257.77443  -2120383.90842  23846038.345    23846037.609
  21487415.884   -11785221.46743  -9170111.77342  21487417.800    21487415.643
  22892852.357   -10970909.89943  -8515958.18442  22892854.639    22892852.824
  23142517.243    -3791900.36343  -2944067.01742  23142518.027    23142517.194
  23689219.096    -5088976.24843  -3961475.46342  23689220.747    23689217.564
 04  5 21  4 45  0.0000000  0  8G27G16G13G31G 1G 3G 8G19
  21490300.192   -11746998.12543  -9150615.82242  21490302.139    21490299.951
  23757316.988       69827.32943     70436.94142  23757319.007    23757315.909
  20225189.807   -18558873.88644 -14313243.82042  20225192.510    20225188.159
  23826911.958    -2829755.71243  -2198693.89142  23826914.202    23826913.380
  21499155.472   -11723529.29943  -9122039.96642  21499157.460    21499155.261
  22888352.275   -10994557.79343  -8534385.07442  22888354.434    22888352.770
  23127981.282    -3868287.18643  -3003589.10942  23127982.047    23127981.226
  23674916.048    -5164138.06543  -4020043.00242  23674917.717    23674914.977
 04  5 21  4 45 30.0000000  0  8G27G16G13G31G 1G 3G 8G19
  21483253.972   -11784026.26244  -9179468.88642  21483255.910    21483253.691
  23775835.760      167144.24943    146268.24142  23775837.883    23775834.699
  20223671.638   -18566852.12544 -14319460.61942  20223674.336    20223669.950
  23807801.306    -2930183.32843  -2276949.06642  23807803.496    23807802.650
  21510963.681   -11661477.13843  -9073687.64842  21510965.681    21510963.395
  22883952.520   -11017677.97443  -8552400.74142  22883954.642    22883953.149
  23113470.562    -3944540.56043  -3063007.23142  23113471.394    23113470.726
  23660657.448    -5239067.95143  -4078429.86842  23660659.021    23660656.217
 04  5 21  4 46  0.0000000  0  8G27G16G13G31G 1G 3G 8G19
  21476236.274   -11820904.56844  -9208205.18842  21476238.226    21476235.949
  23794388.020      264636.66343    222236.35442  23794390.216    23794386.846
  20222236.974   -18574391.20944 -14325335.20942  20222239.639    20222235.284
  23788702.781    -3030545.37443  -2355153.15042  23788705.128    23788704.173
  21522838.626   -11599073.58643  -9025061.52242  21522840.664    21522838.517
  22879652.144   -11040277.32643  -8570010.57242  22879654.148    22879652.492
  23098983.897    -4020668.14443  -3122327.34742  23098984.649    23098984.037
  23646441.985    -5313771.15343  -4136640.08842  23646443.460    23646440.638
 04  5 21  4 46 30.0000000  0  8G27G16G13G31G 1G 3G 8G19
  21469247.444   -11857631.02544  -9236823.16342  21469249.418    21469247.132
  23812973.465      362304.24043    298340.93842  23812975.634    23812972.434
  20220886.533   -18581487.70844 -14330864.92642  20220889.199    20220884.838
  23769617.931    -3130836.91143  -2433302.30642  23769620.242    23769619.235
  21534780.749   -11536317.07043  -8976160.34542  21534782.778    21534780.769
  22875451.224   -11062352.17643  -8587211.70642  22875453.287    22875451.590
  23084521.609    -4096667.85743  -3181547.82342  23084522.430    23084521.625
  23632270.693    -5388242.52243  -4194669.66642  23632272.130    23632269.192
 04  5 21  4 47  0.0000000  0  8G27G16G13G31G 1G 3G 8G19
  21462288.139   -11894202.52644  -9265320.39542  21462290.127    21462287.814
  23831592.447      460148.10343    374582.98142  23831594.625    23831591.399
  20219621.069   -18588137.74244 -14336046.75542  20219623.762    20219619.317
  23750547.586    -3231051.13843  -2511391.25942  23750549.957    23750549.048
  21546790.620   -11473204.82843  -8926982.00442  21546792.637    21546790.737
  22871351.295   -11083897.60843  -8604000.32042  22871353.300    22871351.522
  23070084.384    -4172536.05943  -3240665.84142  23070085.098    23070084.267
  23618144.408    -5462475.70343  -4252513.63642  23618146.143    23618143.243
 04  5 21  4 47 30.0000000  0  8G27G16G13G31G 1G 3G 8G19
  21455357.377   -11930623.58344  -9293700.39942  21455359.391    21455357.050
  23850243.674      558160.96943    450956.62542  23850245.845    23850242.778
  20218439.922   -18594344.34744 -14340883.04642  20218442.644    20218438.184
  23731491.659    -3331189.69843  -2589421.19842  23731494.069    23731493.208
  21558867.321   -11409741.84343  -8877530.33942  21558869.324    21558867.393
  22867351.706   -11104916.44943  -8620378.58742  22867353.597    22867351.687
  23055671.230    -4248277.28543  -3299684.89242  23055671.926    23055671.140
  23604063.319    -5536472.34243  -4310173.27742  23604065.212    23604062.161
 04  5 21  4 48  0.0000000  0  8G27G16G13G31G 1G 3G 8G19
  21448456.096   -11966889.98044  -9321959.88642  21448458.131    21448455.735
  23868927.470      656344.61243    527463.33842  23868929.543    23868926.564
  20217344.294   -18600101.90344 -14345369.43242  20217346.988    20217342.526
  23712451.682    -3431244.86943  -2667386.20742  23712454.082    23712453.457
  21571011.485   -11345924.28343  -8827802.38042  21571013.483    21571011.508
  22863453.003   -11125403.37243  -8636342.37242  22863454.946    22863453.165
  23041283.095    -4323886.58843  -3358601.11942  23041283.876    23041283.131
  23590028.607    -5610225.05843  -4367642.89642  23590030.504    23590027.212
 04  5 21  4 48 30.0000000  0  8G27G16G13G31G 1G 3G 8G19
  21441583.413   -12003006.29444  -9350102.41942  21441585.431    21441582.960
  23887642.591      754692.53743    604098.07142  23887644.580    23887641.470
  20216333.422   -18605413.99144 -14349508.71242  20216336.127    20216331.617
  23693427.540    -3531218.02443  -2745287.31042  23693429.833    23693429.286
  21583222.069   -11281757.13343  -8777802.01442  21583224.118    21583222.097
  22859655.208   -11145361.39843  -8651894.03542  22859657.120    22859655.158
  23026919.337    -4399368.10843  -3417417.81842  23026920.142    23026919.328
  23576040.245    -5683735.28643  -4424923.54842  23576042.083    23576038.720
 04  5 21  4 49  0.0000000  0  8G27G16G13G31G 1G 3G 8G19
  21434740.215   -12038967.15444  -9378123.82242  21434742.252    21434739.786
  23906389.366      853207.41543    680862.94742  23906391.461    23906388.086
  20215408.562   -18610274.16944 -14353295.84542  20215411.261    20215406.734
  23674420.621    -3631100.53443  -2823117.75742  23674422.853    23674422.359
  21595500.136   -11217235.50943  -8727525.44842  21595502.178    21595500.174
  22855959.169   -11164783.72243  -8667028.25742  22855961.103    22855959.180
  23012580.819    -4474717.10643  -3476131.24142  23012581.666    23012580.736
  23562099.302    -5756994.68543  -4482008.72842  23562101.178    23562097.749
 04  5 21  4 49 30.0000000  0  8G27G16G13G31G 1G 3G 8G19
  21427925.593   -12074778.00543  -9406028.33442  21427927.604    21427925.164
  23925166.500      951881.47343    757751.82642  23925168.602    23925165.142
  20214568.915   -18614686.55544 -14356734.04842  20214571.602    20214567.142
  23655430.429    -3730894.61943  -2900879.31942  23655432.683    23655432.037
  21607844.483   -11152365.30043  -8676977.23842  21607846.571    21607844.521
  22852364.417   -11183674.24743  -8681748.09642  22852366.392    22852364.538
  22998266.746    -4549938.07543  -3534744.88542  22998267.483    22998266.527
  23548205.707    -5830005.78443  -4538900.44342  23548207.625    23548204.147
 04  5 21  4 50  0.0000000  0  8G27G16G13G31G 1G 3G 8G19
  21421140.010   -12110436.05644  -9433813.78242  21421142.018    21421139.610
  23943973.808     1050715.05343    834764.99942  23943976.003    23943972.700
  20213815.209   -18618647.22844 -14359820.27942  20213817.882    20213813.401
  23636458.200    -3830594.28143  -2978567.28442  23636460.356    23636459.687
  21620255.668   -11087144.33743  -8626155.71242  21620257.766    21620255.564
  22848871.581   -11202028.98143  -8696050.43542  22848873.577    22848871.711
  22983977.614    -4625027.95143  -3593256.39442  22983978.351    22983977.353
  23534360.504    -5902762.66043  -4595594.06542  23534362.315    23534358.743
 04  5 21  4 50 30.0000000  0  8G27G16G13G31G 1G 3G 8G19
  21414383.685   -12145940.52344  -9461479.55642  21414385.718    21414383.309
  23962811.420     1149706.83443    911901.46342  23962813.457    23962810.414
  20213147.850   -18622154.23444 -14362552.99742  20213150.502    20213146.073
  23617504.414    -3930195.41243  -3056178.41742  23617506.655    23617506.152
  21632733.555   -11021572.33343  -8575060.66542  21632735.711    21632733.505
  22845481.045   -11219845.59443  -8709933.46342  22845483.066    22845481.266
  22969713.570    -4699985.73343  -3651664.97042  22969714.320    22969713.314
  23520564.294    -5975261.62543  -4652086.71642  23520566.118    23520562.545
 04  5 21  4 51  0.0000000  0  8G27G16G13G31G 1G 3G 8G19
  21407656.785   -12181290.41844  -9489024.88742  21407658.814    21407656.478
  23981678.605     1248855.17043    989159.87742  23981680.829    23981677.888
  20212567.193   -18625205.53844 -14364930.62842  20212569.887    20212565.411
  23598570.539    -4029693.76743  -3133709.55742  23598572.582    23598571.942
  21645278.421   -10955648.82543  -8523691.71642  21645280.538    21645278.380
  22842193.378   -11237121.97843  -8723395.56742  22842195.417    22842193.718
  22955474.829    -4774810.62843  -3709970.00842  22955475.549    22955474.519
  23506817.890    -6047498.72843  -4708375.28142  23506819.834    23506816.130
 04  5 21  4 51 30.0000000  0  8G27G16G13G31G 1G 3G 8G19
  21400958.134   -12216492.03544  -9516454.67942  21400960.153    21400957.808
  24000574.223     1348151.66143   1066533.75542  24000576.341    24000573.313
  20212072.277   -18627806.37744 -14366957.24742  20212074.978    20212070.500
  23579655.435    -4129092.34043  -3211162.91742  23579657.436    23579656.595
  21657888.809   -10889380.50143  -8472054.07242  21657890.945    21657888.882
  22839007.629   -11253862.82043  -8736440.31942  22839009.710    22839008.053
  22941260.357    -4849508.13743  -3768175.78842  22941261.097    22941260.078
  23493120.711    -6119477.01343  -4764462.18842  23493122.691    23493119.086
 04  5 21  4 52  0.0000000  0  8G27G16G13G31G 1G 3G 8G19
  21394288.871   -12251539.35844  -9543764.24142  21394290.891    21394288.479
  24019498.278     1447599.76943   1144025.79642  24019500.471    24019497.512
  20211664.484   -18629949.57744 -14368627.25842  20211667.169    20211662.705
  23560761.198    -4228382.02343  -3288531.43742  23560763.195    23560762.096
  21670565.999   -10822762.07343  -8420143.61842  21670567.995    21670565.936
  22835925.311   -11270060.88843  -8749062.15642  22835927.323    22835925.641
  22927071.213    -4924072.01343  -3826277.47142  22927071.972    22927070.937
  23479474.661    -6191187.52043  -4820340.46742  23479476.571    23479472.836
 04  5 21  4 52 30.0000000  0  8G27G16G13G31G 1G 3G 8G19
  21387648.116   -12286436.49944  -9570956.78242  21387650.151    21387647.683
  24038450.263     1547193.23043   1221631.11342  24038452.269    24038449.546
  20211343.068   -18631638.28144 -14369943.11542  20211345.807    20211341.324
  23541887.557    -4327563.39943  -3365815.55842  23541889.605    23541888.288
  21683308.741   -10755798.04343  -8367963.87042  21683310.754    21683308.773
  22832945.832   -11285719.07643  -8761263.30842  22832947.762    22832945.960
  22912906.707    -4998506.15243  -3884278.03642  22912907.483    22912906.576
  23465879.307    -6262631.39043  -4876010.97842  23465881.149    23465877.646
